<?xml version="1.0" encoding="UTF-8" standalone="no" ?>
<gpx xmlns="http://www.topografix.com/GPX/1/1" xmlns:xsi="http://www.w3.org/2001/XMLSchema-instance" xsi:schemaLocation="http://www.topografix.com/GPX/1/1 http://www.topografix.com/GPX/1/1/gpx.xsd" version="1.1" creator="VisuGPX - https://www.visugpx.com">
  <metadata>
    <name>Euromédecine, Grabels</name>
    <desc><![CDATA[Une sortie un peu plus longue que les sorties traditionnelles de la pause déjeuner. 1h20 environ pour cette boucle très roulante, avec une nouvelle petite descente qui nous ramène sur les tennis de Grabels. Trés typé XC.
]]></desc>
  </metadata>
  <trk>
    <name><![CDATA[Euromédecine, Grabels_1]]></name>
    <trkseg>
      <trkpt lat="43.63759" lon="3.82842">
        <ele>131.7</ele>
        <time>2016-06-10T10:19:39Z</time>
      </trkpt>
      <trkpt lat="43.63759" lon="3.82842">
        <ele>131.7</ele>
        <time>2016-06-10T10:19:49Z</time>
      </trkpt>
      <trkpt lat="43.63755" lon="3.82849">
        <ele>129</ele>
        <time>2016-06-10T10:19:56Z</time>
      </trkpt>
      <trkpt lat="43.63759" lon="3.82842">
        <ele>125.3</ele>
        <time>2016-06-10T10:20:03Z</time>
      </trkpt>
      <trkpt lat="43.6376" lon="3.82848">
        <ele>130</ele>
        <time>2016-06-10T10:20:14Z</time>
      </trkpt>
      <trkpt lat="43.63755" lon="3.82841">
        <ele>129.1</ele>
        <time>2016-06-10T10:20:24Z</time>
      </trkpt>
      <trkpt lat="43.63763" lon="3.82847">
        <ele>128.5</ele>
        <time>2016-06-10T10:20:27Z</time>
      </trkpt>
      <trkpt lat="43.6377" lon="3.82848">
        <ele>127.9</ele>
        <time>2016-06-10T10:20:31Z</time>
      </trkpt>
      <trkpt lat="43.6377" lon="3.82838">
        <ele>127.7</ele>
        <time>2016-06-10T10:20:35Z</time>
      </trkpt>
      <trkpt lat="43.63767" lon="3.82828">
        <ele>127.6</ele>
        <time>2016-06-10T10:20:37Z</time>
      </trkpt>
      <trkpt lat="43.63764" lon="3.82818">
        <ele>127.5</ele>
        <time>2016-06-10T10:20:39Z</time>
      </trkpt>
      <trkpt lat="43.63759" lon="3.82806">
        <ele>126.8</ele>
        <time>2016-06-10T10:20:42Z</time>
      </trkpt>
      <trkpt lat="43.63754" lon="3.82797">
        <ele>125.9</ele>
        <time>2016-06-10T10:20:44Z</time>
      </trkpt>
      <trkpt lat="43.63749" lon="3.82788">
        <ele>125.9</ele>
        <time>2016-06-10T10:20:46Z</time>
      </trkpt>
      <trkpt lat="43.63745" lon="3.82776">
        <ele>125.8</ele>
        <time>2016-06-10T10:20:49Z</time>
      </trkpt>
      <trkpt lat="43.63748" lon="3.82763">
        <ele>125.8</ele>
        <time>2016-06-10T10:20:52Z</time>
      </trkpt>
      <trkpt lat="43.63755" lon="3.82757">
        <ele>125.9</ele>
        <time>2016-06-10T10:20:54Z</time>
      </trkpt>
      <trkpt lat="43.63763" lon="3.82754">
        <ele>126</ele>
        <time>2016-06-10T10:20:56Z</time>
      </trkpt>
      <trkpt lat="43.63771" lon="3.82752">
        <ele>126</ele>
        <time>2016-06-10T10:20:58Z</time>
      </trkpt>
      <trkpt lat="43.63779" lon="3.82749">
        <ele>126</ele>
        <time>2016-06-10T10:21:00Z</time>
      </trkpt>
      <trkpt lat="43.63789" lon="3.82744">
        <ele>125.9</ele>
        <time>2016-06-10T10:21:03Z</time>
      </trkpt>
      <trkpt lat="43.63798" lon="3.8274">
        <ele>124.6</ele>
        <time>2016-06-10T10:21:06Z</time>
      </trkpt>
      <trkpt lat="43.63806" lon="3.82735">
        <ele>123.5</ele>
        <time>2016-06-10T10:21:08Z</time>
      </trkpt>
      <trkpt lat="43.63813" lon="3.82731">
        <ele>122.7</ele>
        <time>2016-06-10T10:21:10Z</time>
      </trkpt>
      <trkpt lat="43.63822" lon="3.82725">
        <ele>122.2</ele>
        <time>2016-06-10T10:21:12Z</time>
      </trkpt>
      <trkpt lat="43.6383" lon="3.82722">
        <ele>122.7</ele>
        <time>2016-06-10T10:21:14Z</time>
      </trkpt>
      <trkpt lat="43.6384" lon="3.82717">
        <ele>122.6</ele>
        <time>2016-06-10T10:21:17Z</time>
      </trkpt>
      <trkpt lat="43.6385" lon="3.82713">
        <ele>122.9</ele>
        <time>2016-06-10T10:21:20Z</time>
      </trkpt>
      <trkpt lat="43.6386" lon="3.82708">
        <ele>123.4</ele>
        <time>2016-06-10T10:21:23Z</time>
      </trkpt>
      <trkpt lat="43.63863" lon="3.82699">
        <ele>124</ele>
        <time>2016-06-10T10:21:26Z</time>
      </trkpt>
      <trkpt lat="43.6386" lon="3.82688">
        <ele>124.4</ele>
        <time>2016-06-10T10:21:31Z</time>
      </trkpt>
      <trkpt lat="43.63856" lon="3.82677">
        <ele>124.7</ele>
        <time>2016-06-10T10:21:34Z</time>
      </trkpt>
      <trkpt lat="43.63853" lon="3.82667">
        <ele>125.1</ele>
        <time>2016-06-10T10:21:37Z</time>
      </trkpt>
      <trkpt lat="43.6385" lon="3.82657">
        <ele>125.7</ele>
        <time>2016-06-10T10:21:40Z</time>
      </trkpt>
      <trkpt lat="43.63843" lon="3.82644">
        <ele>126.3</ele>
        <time>2016-06-10T10:21:43Z</time>
      </trkpt>
      <trkpt lat="43.63838" lon="3.82634">
        <ele>127</ele>
        <time>2016-06-10T10:21:46Z</time>
      </trkpt>
      <trkpt lat="43.63832" lon="3.82623">
        <ele>127.9</ele>
        <time>2016-06-10T10:21:49Z</time>
      </trkpt>
      <trkpt lat="43.63828" lon="3.82614">
        <ele>128.4</ele>
        <time>2016-06-10T10:21:51Z</time>
      </trkpt>
      <trkpt lat="43.63823" lon="3.82603">
        <ele>129.2</ele>
        <time>2016-06-10T10:21:54Z</time>
      </trkpt>
      <trkpt lat="43.63819" lon="3.82594">
        <ele>129.9</ele>
        <time>2016-06-10T10:21:57Z</time>
      </trkpt>
      <trkpt lat="43.63813" lon="3.82583">
        <ele>130.8</ele>
        <time>2016-06-10T10:22:00Z</time>
      </trkpt>
      <trkpt lat="43.63807" lon="3.82572">
        <ele>131.5</ele>
        <time>2016-06-10T10:22:03Z</time>
      </trkpt>
      <trkpt lat="43.63801" lon="3.82562">
        <ele>132.2</ele>
        <time>2016-06-10T10:22:07Z</time>
      </trkpt>
      <trkpt lat="43.63797" lon="3.82553">
        <ele>132.8</ele>
        <time>2016-06-10T10:22:10Z</time>
      </trkpt>
      <trkpt lat="43.63796" lon="3.82539">
        <ele>134.6</ele>
        <time>2016-06-10T10:22:13Z</time>
      </trkpt>
      <trkpt lat="43.63797" lon="3.82524">
        <ele>136.3</ele>
        <time>2016-06-10T10:22:15Z</time>
      </trkpt>
      <trkpt lat="43.63796" lon="3.82509">
        <ele>138</ele>
        <time>2016-06-10T10:22:17Z</time>
      </trkpt>
      <trkpt lat="43.63793" lon="3.82496">
        <ele>138.7</ele>
        <time>2016-06-10T10:22:19Z</time>
      </trkpt>
      <trkpt lat="43.63789" lon="3.82485">
        <ele>139.6</ele>
        <time>2016-06-10T10:22:21Z</time>
      </trkpt>
      <trkpt lat="43.63784" lon="3.82474">
        <ele>140.4</ele>
        <time>2016-06-10T10:22:23Z</time>
      </trkpt>
      <trkpt lat="43.63777" lon="3.82459">
        <ele>141</ele>
        <time>2016-06-10T10:22:25Z</time>
      </trkpt>
      <trkpt lat="43.63772" lon="3.82444">
        <ele>141.2</ele>
        <time>2016-06-10T10:22:27Z</time>
      </trkpt>
      <trkpt lat="43.63767" lon="3.82431">
        <ele>140.3</ele>
        <time>2016-06-10T10:22:29Z</time>
      </trkpt>
      <trkpt lat="43.6376" lon="3.82414">
        <ele>139.6</ele>
        <time>2016-06-10T10:22:31Z</time>
      </trkpt>
      <trkpt lat="43.63753" lon="3.82398">
        <ele>138.6</ele>
        <time>2016-06-10T10:22:33Z</time>
      </trkpt>
      <trkpt lat="43.6375" lon="3.82389">
        <ele>138.1</ele>
        <time>2016-06-10T10:22:34Z</time>
      </trkpt>
      <trkpt lat="43.63746" lon="3.82381">
        <ele>136.9</ele>
        <time>2016-06-10T10:22:35Z</time>
      </trkpt>
      <trkpt lat="43.63738" lon="3.82364">
        <ele>134.4</ele>
        <time>2016-06-10T10:22:37Z</time>
      </trkpt>
      <trkpt lat="43.63734" lon="3.82354">
        <ele>134.7</ele>
        <time>2016-06-10T10:22:38Z</time>
      </trkpt>
      <trkpt lat="43.63731" lon="3.82345">
        <ele>135</ele>
        <time>2016-06-10T10:22:39Z</time>
      </trkpt>
      <trkpt lat="43.63724" lon="3.82329">
        <ele>135.7</ele>
        <time>2016-06-10T10:22:41Z</time>
      </trkpt>
      <trkpt lat="43.63719" lon="3.82321">
        <ele>135.6</ele>
        <time>2016-06-10T10:22:42Z</time>
      </trkpt>
      <trkpt lat="43.63711" lon="3.8231">
        <ele>134.4</ele>
        <time>2016-06-10T10:22:44Z</time>
      </trkpt>
      <trkpt lat="43.63715" lon="3.82292">
        <ele>133.8</ele>
        <time>2016-06-10T10:22:46Z</time>
      </trkpt>
      <trkpt lat="43.63723" lon="3.82282">
        <ele>133.5</ele>
        <time>2016-06-10T10:22:48Z</time>
      </trkpt>
      <trkpt lat="43.63727" lon="3.82273">
        <ele>133.3</ele>
        <time>2016-06-10T10:22:50Z</time>
      </trkpt>
      <trkpt lat="43.6373" lon="3.82258">
        <ele>133.4</ele>
        <time>2016-06-10T10:22:53Z</time>
      </trkpt>
      <trkpt lat="43.63731" lon="3.82247">
        <ele>133.5</ele>
        <time>2016-06-10T10:22:55Z</time>
      </trkpt>
      <trkpt lat="43.6373" lon="3.82235">
        <ele>133.6</ele>
        <time>2016-06-10T10:22:57Z</time>
      </trkpt>
      <trkpt lat="43.63728" lon="3.82225">
        <ele>134.6</ele>
        <time>2016-06-10T10:22:59Z</time>
      </trkpt>
      <trkpt lat="43.63731" lon="3.82212">
        <ele>134.7</ele>
        <time>2016-06-10T10:23:02Z</time>
      </trkpt>
      <trkpt lat="43.63732" lon="3.82199">
        <ele>135</ele>
        <time>2016-06-10T10:23:06Z</time>
      </trkpt>
      <trkpt lat="43.63733" lon="3.82189">
        <ele>135.2</ele>
        <time>2016-06-10T10:23:08Z</time>
      </trkpt>
      <trkpt lat="43.63732" lon="3.82177">
        <ele>135.4</ele>
        <time>2016-06-10T10:23:10Z</time>
      </trkpt>
      <trkpt lat="43.63734" lon="3.82164">
        <ele>136.2</ele>
        <time>2016-06-10T10:23:12Z</time>
      </trkpt>
      <trkpt lat="43.63736" lon="3.82151">
        <ele>135.8</ele>
        <time>2016-06-10T10:23:14Z</time>
      </trkpt>
      <trkpt lat="43.63737" lon="3.82139">
        <ele>135.8</ele>
        <time>2016-06-10T10:23:16Z</time>
      </trkpt>
      <trkpt lat="43.63736" lon="3.82126">
        <ele>134.9</ele>
        <time>2016-06-10T10:23:18Z</time>
      </trkpt>
      <trkpt lat="43.63737" lon="3.82111">
        <ele>134.5</ele>
        <time>2016-06-10T10:23:20Z</time>
      </trkpt>
      <trkpt lat="43.63738" lon="3.821">
        <ele>134.8</ele>
        <time>2016-06-10T10:23:22Z</time>
      </trkpt>
      <trkpt lat="43.63734" lon="3.82086">
        <ele>136.6</ele>
        <time>2016-06-10T10:23:25Z</time>
      </trkpt>
      <trkpt lat="43.63736" lon="3.82073">
        <ele>139.6</ele>
        <time>2016-06-10T10:23:27Z</time>
      </trkpt>
      <trkpt lat="43.6374" lon="3.82059">
        <ele>141.4</ele>
        <time>2016-06-10T10:23:29Z</time>
      </trkpt>
      <trkpt lat="43.63739" lon="3.82046">
        <ele>142.3</ele>
        <time>2016-06-10T10:23:31Z</time>
      </trkpt>
      <trkpt lat="43.63739" lon="3.82031">
        <ele>142.3</ele>
        <time>2016-06-10T10:23:33Z</time>
      </trkpt>
      <trkpt lat="43.63737" lon="3.82019">
        <ele>143</ele>
        <time>2016-06-10T10:23:35Z</time>
      </trkpt>
      <trkpt lat="43.63732" lon="3.82007">
        <ele>143.3</ele>
        <time>2016-06-10T10:23:37Z</time>
      </trkpt>
      <trkpt lat="43.63729" lon="3.81996">
        <ele>143.7</ele>
        <time>2016-06-10T10:23:39Z</time>
      </trkpt>
      <trkpt lat="43.63723" lon="3.81987">
        <ele>143.6</ele>
        <time>2016-06-10T10:23:41Z</time>
      </trkpt>
      <trkpt lat="43.63717" lon="3.81979">
        <ele>143.7</ele>
        <time>2016-06-10T10:23:43Z</time>
      </trkpt>
      <trkpt lat="43.63711" lon="3.81972">
        <ele>143.1</ele>
        <time>2016-06-10T10:23:45Z</time>
      </trkpt>
      <trkpt lat="43.63703" lon="3.81965">
        <ele>141.7</ele>
        <time>2016-06-10T10:23:47Z</time>
      </trkpt>
      <trkpt lat="43.63698" lon="3.81957">
        <ele>141.5</ele>
        <time>2016-06-10T10:23:49Z</time>
      </trkpt>
      <trkpt lat="43.6369" lon="3.81948">
        <ele>143.3</ele>
        <time>2016-06-10T10:23:51Z</time>
      </trkpt>
      <trkpt lat="43.63683" lon="3.81939">
        <ele>144.2</ele>
        <time>2016-06-10T10:23:53Z</time>
      </trkpt>
      <trkpt lat="43.63677" lon="3.81932">
        <ele>144.4</ele>
        <time>2016-06-10T10:23:55Z</time>
      </trkpt>
      <trkpt lat="43.63671" lon="3.81924">
        <ele>144</ele>
        <time>2016-06-10T10:23:57Z</time>
      </trkpt>
      <trkpt lat="43.63665" lon="3.81915">
        <ele>143.7</ele>
        <time>2016-06-10T10:23:59Z</time>
      </trkpt>
      <trkpt lat="43.63657" lon="3.81908">
        <ele>143.7</ele>
        <time>2016-06-10T10:24:01Z</time>
      </trkpt>
      <trkpt lat="43.63649" lon="3.819">
        <ele>143.8</ele>
        <time>2016-06-10T10:24:04Z</time>
      </trkpt>
      <trkpt lat="43.6364" lon="3.81895">
        <ele>143.5</ele>
        <time>2016-06-10T10:24:06Z</time>
      </trkpt>
      <trkpt lat="43.6363" lon="3.81888">
        <ele>143.7</ele>
        <time>2016-06-10T10:24:08Z</time>
      </trkpt>
      <trkpt lat="43.63624" lon="3.81877">
        <ele>143.3</ele>
        <time>2016-06-10T10:24:10Z</time>
      </trkpt>
      <trkpt lat="43.63617" lon="3.81867">
        <ele>142.5</ele>
        <time>2016-06-10T10:24:12Z</time>
      </trkpt>
      <trkpt lat="43.63609" lon="3.81864">
        <ele>143.5</ele>
        <time>2016-06-10T10:24:14Z</time>
      </trkpt>
      <trkpt lat="43.63601" lon="3.81857">
        <ele>145.9</ele>
        <time>2016-06-10T10:24:17Z</time>
      </trkpt>
      <trkpt lat="43.63597" lon="3.81847">
        <ele>145.8</ele>
        <time>2016-06-10T10:24:19Z</time>
      </trkpt>
      <trkpt lat="43.63592" lon="3.81838">
        <ele>146.5</ele>
        <time>2016-06-10T10:24:21Z</time>
      </trkpt>
      <trkpt lat="43.63586" lon="3.81825">
        <ele>147.9</ele>
        <time>2016-06-10T10:24:23Z</time>
      </trkpt>
      <trkpt lat="43.63582" lon="3.8181">
        <ele>149.2</ele>
        <time>2016-06-10T10:24:25Z</time>
      </trkpt>
      <trkpt lat="43.63581" lon="3.81793">
        <ele>148.6</ele>
        <time>2016-06-10T10:24:27Z</time>
      </trkpt>
      <trkpt lat="43.63581" lon="3.8178">
        <ele>147.9</ele>
        <time>2016-06-10T10:24:28Z</time>
      </trkpt>
      <trkpt lat="43.63585" lon="3.81763">
        <ele>148.7</ele>
        <time>2016-06-10T10:24:30Z</time>
      </trkpt>
      <trkpt lat="43.63588" lon="3.81748">
        <ele>149.5</ele>
        <time>2016-06-10T10:24:32Z</time>
      </trkpt>
      <trkpt lat="43.6359" lon="3.81734">
        <ele>150</ele>
        <time>2016-06-10T10:24:34Z</time>
      </trkpt>
      <trkpt lat="43.63593" lon="3.81722">
        <ele>150</ele>
        <time>2016-06-10T10:24:35Z</time>
      </trkpt>
      <trkpt lat="43.636" lon="3.8171">
        <ele>148.2</ele>
        <time>2016-06-10T10:24:37Z</time>
      </trkpt>
      <trkpt lat="43.636" lon="3.81699">
        <ele>148.4</ele>
        <time>2016-06-10T10:24:39Z</time>
      </trkpt>
      <trkpt lat="43.63602" lon="3.81685">
        <ele>148.6</ele>
        <time>2016-06-10T10:24:42Z</time>
      </trkpt>
      <trkpt lat="43.63612" lon="3.81682">
        <ele>149</ele>
        <time>2016-06-10T10:24:44Z</time>
      </trkpt>
      <trkpt lat="43.63624" lon="3.81684">
        <ele>148.6</ele>
        <time>2016-06-10T10:24:46Z</time>
      </trkpt>
      <trkpt lat="43.63635" lon="3.81684">
        <ele>148.3</ele>
        <time>2016-06-10T10:24:48Z</time>
      </trkpt>
      <trkpt lat="43.63645" lon="3.81686">
        <ele>146.3</ele>
        <time>2016-06-10T10:24:50Z</time>
      </trkpt>
      <trkpt lat="43.63654" lon="3.81685">
        <ele>144.5</ele>
        <time>2016-06-10T10:24:52Z</time>
      </trkpt>
      <trkpt lat="43.63663" lon="3.81685">
        <ele>143.2</ele>
        <time>2016-06-10T10:24:54Z</time>
      </trkpt>
      <trkpt lat="43.63674" lon="3.81686">
        <ele>142.6</ele>
        <time>2016-06-10T10:24:57Z</time>
      </trkpt>
      <trkpt lat="43.63681" lon="3.81687">
        <ele>142.6</ele>
        <time>2016-06-10T10:24:59Z</time>
      </trkpt>
      <trkpt lat="43.63687" lon="3.81683">
        <ele>142.5</ele>
        <time>2016-06-10T10:25:06Z</time>
      </trkpt>
      <trkpt lat="43.63689" lon="3.81673">
        <ele>143.4</ele>
        <time>2016-06-10T10:25:08Z</time>
      </trkpt>
      <trkpt lat="43.63692" lon="3.81661">
        <ele>143.9</ele>
        <time>2016-06-10T10:25:10Z</time>
      </trkpt>
      <trkpt lat="43.63699" lon="3.81654">
        <ele>143.9</ele>
        <time>2016-06-10T10:25:12Z</time>
      </trkpt>
      <trkpt lat="43.63709" lon="3.81657">
        <ele>143.6</ele>
        <time>2016-06-10T10:25:15Z</time>
      </trkpt>
      <trkpt lat="43.63717" lon="3.81661">
        <ele>143.3</ele>
        <time>2016-06-10T10:25:17Z</time>
      </trkpt>
      <trkpt lat="43.63726" lon="3.81662">
        <ele>142.2</ele>
        <time>2016-06-10T10:25:19Z</time>
      </trkpt>
      <trkpt lat="43.63735" lon="3.81664">
        <ele>142</ele>
        <time>2016-06-10T10:25:22Z</time>
      </trkpt>
      <trkpt lat="43.63742" lon="3.81664">
        <ele>142.2</ele>
        <time>2016-06-10T10:25:24Z</time>
      </trkpt>
      <trkpt lat="43.63751" lon="3.81668">
        <ele>141.9</ele>
        <time>2016-06-10T10:25:26Z</time>
      </trkpt>
      <trkpt lat="43.6376" lon="3.81672">
        <ele>140.6</ele>
        <time>2016-06-10T10:25:28Z</time>
      </trkpt>
      <trkpt lat="43.63769" lon="3.81673">
        <ele>139.6</ele>
        <time>2016-06-10T10:25:30Z</time>
      </trkpt>
      <trkpt lat="43.63779" lon="3.81677">
        <ele>138.6</ele>
        <time>2016-06-10T10:25:32Z</time>
      </trkpt>
      <trkpt lat="43.63789" lon="3.81682">
        <ele>138.5</ele>
        <time>2016-06-10T10:25:34Z</time>
      </trkpt>
      <trkpt lat="43.63799" lon="3.81686">
        <ele>137.8</ele>
        <time>2016-06-10T10:25:36Z</time>
      </trkpt>
      <trkpt lat="43.63808" lon="3.81688">
        <ele>137.6</ele>
        <time>2016-06-10T10:25:38Z</time>
      </trkpt>
      <trkpt lat="43.63816" lon="3.81695">
        <ele>137.2</ele>
        <time>2016-06-10T10:25:40Z</time>
      </trkpt>
      <trkpt lat="43.63826" lon="3.81703">
        <ele>138.2</ele>
        <time>2016-06-10T10:25:42Z</time>
      </trkpt>
      <trkpt lat="43.63835" lon="3.81711">
        <ele>138.8</ele>
        <time>2016-06-10T10:25:44Z</time>
      </trkpt>
      <trkpt lat="43.63845" lon="3.81718">
        <ele>139</ele>
        <time>2016-06-10T10:25:46Z</time>
      </trkpt>
      <trkpt lat="43.63854" lon="3.81724">
        <ele>138.9</ele>
        <time>2016-06-10T10:25:48Z</time>
      </trkpt>
      <trkpt lat="43.63863" lon="3.81729">
        <ele>138.1</ele>
        <time>2016-06-10T10:25:50Z</time>
      </trkpt>
      <trkpt lat="43.63872" lon="3.81732">
        <ele>137.4</ele>
        <time>2016-06-10T10:25:52Z</time>
      </trkpt>
      <trkpt lat="43.63881" lon="3.81732">
        <ele>138.5</ele>
        <time>2016-06-10T10:25:54Z</time>
      </trkpt>
      <trkpt lat="43.63891" lon="3.81729">
        <ele>138.7</ele>
        <time>2016-06-10T10:25:56Z</time>
      </trkpt>
      <trkpt lat="43.63898" lon="3.81721">
        <ele>138.4</ele>
        <time>2016-06-10T10:25:58Z</time>
      </trkpt>
      <trkpt lat="43.63896" lon="3.81707">
        <ele>137.7</ele>
        <time>2016-06-10T10:26:00Z</time>
      </trkpt>
      <trkpt lat="43.63892" lon="3.81696">
        <ele>137.8</ele>
        <time>2016-06-10T10:26:02Z</time>
      </trkpt>
      <trkpt lat="43.63892" lon="3.81683">
        <ele>138.2</ele>
        <time>2016-06-10T10:26:04Z</time>
      </trkpt>
      <trkpt lat="43.63895" lon="3.81671">
        <ele>138.6</ele>
        <time>2016-06-10T10:26:06Z</time>
      </trkpt>
      <trkpt lat="43.63903" lon="3.81663">
        <ele>138.4</ele>
        <time>2016-06-10T10:26:08Z</time>
      </trkpt>
      <trkpt lat="43.63911" lon="3.81654">
        <ele>139.1</ele>
        <time>2016-06-10T10:26:10Z</time>
      </trkpt>
      <trkpt lat="43.63919" lon="3.81646">
        <ele>138.5</ele>
        <time>2016-06-10T10:26:12Z</time>
      </trkpt>
      <trkpt lat="43.63929" lon="3.81641">
        <ele>138.2</ele>
        <time>2016-06-10T10:26:14Z</time>
      </trkpt>
      <trkpt lat="43.6394" lon="3.81634">
        <ele>138.4</ele>
        <time>2016-06-10T10:26:16Z</time>
      </trkpt>
      <trkpt lat="43.63947" lon="3.81624">
        <ele>138.6</ele>
        <time>2016-06-10T10:26:18Z</time>
      </trkpt>
      <trkpt lat="43.63955" lon="3.81616">
        <ele>137.9</ele>
        <time>2016-06-10T10:26:20Z</time>
      </trkpt>
      <trkpt lat="43.63963" lon="3.81606">
        <ele>137.5</ele>
        <time>2016-06-10T10:26:22Z</time>
      </trkpt>
      <trkpt lat="43.63971" lon="3.81597">
        <ele>137.2</ele>
        <time>2016-06-10T10:26:24Z</time>
      </trkpt>
      <trkpt lat="43.63978" lon="3.81588">
        <ele>136.3</ele>
        <time>2016-06-10T10:26:26Z</time>
      </trkpt>
      <trkpt lat="43.63984" lon="3.81578">
        <ele>135.8</ele>
        <time>2016-06-10T10:26:28Z</time>
      </trkpt>
      <trkpt lat="43.63988" lon="3.81566">
        <ele>135.8</ele>
        <time>2016-06-10T10:26:30Z</time>
      </trkpt>
      <trkpt lat="43.63986" lon="3.81556">
        <ele>138.5</ele>
        <time>2016-06-10T10:26:32Z</time>
      </trkpt>
      <trkpt lat="43.63978" lon="3.81552">
        <ele>139.4</ele>
        <time>2016-06-10T10:26:34Z</time>
      </trkpt>
      <trkpt lat="43.63971" lon="3.81549">
        <ele>139.5</ele>
        <time>2016-06-10T10:26:36Z</time>
      </trkpt>
      <trkpt lat="43.63962" lon="3.81548">
        <ele>139.4</ele>
        <time>2016-06-10T10:26:39Z</time>
      </trkpt>
      <trkpt lat="43.63957" lon="3.8154">
        <ele>139.4</ele>
        <time>2016-06-10T10:26:42Z</time>
      </trkpt>
      <trkpt lat="43.63951" lon="3.81529">
        <ele>139.7</ele>
        <time>2016-06-10T10:26:45Z</time>
      </trkpt>
      <trkpt lat="43.63954" lon="3.81519">
        <ele>140</ele>
        <time>2016-06-10T10:26:47Z</time>
      </trkpt>
      <trkpt lat="43.63958" lon="3.81508">
        <ele>140.5</ele>
        <time>2016-06-10T10:26:50Z</time>
      </trkpt>
      <trkpt lat="43.6395" lon="3.81501">
        <ele>141</ele>
        <time>2016-06-10T10:26:57Z</time>
      </trkpt>
      <trkpt lat="43.63944" lon="3.81495">
        <ele>141.3</ele>
        <time>2016-06-10T10:27:00Z</time>
      </trkpt>
      <trkpt lat="43.63936" lon="3.81486">
        <ele>141.5</ele>
        <time>2016-06-10T10:27:03Z</time>
      </trkpt>
      <trkpt lat="43.63929" lon="3.81479">
        <ele>141.8</ele>
        <time>2016-06-10T10:27:06Z</time>
      </trkpt>
      <trkpt lat="43.63921" lon="3.81475">
        <ele>142.1</ele>
        <time>2016-06-10T10:27:10Z</time>
      </trkpt>
      <trkpt lat="43.63912" lon="3.81474">
        <ele>142.1</ele>
        <time>2016-06-10T10:27:14Z</time>
      </trkpt>
      <trkpt lat="43.63902" lon="3.81478">
        <ele>142.4</ele>
        <time>2016-06-10T10:27:18Z</time>
      </trkpt>
      <trkpt lat="43.63894" lon="3.81483">
        <ele>142.4</ele>
        <time>2016-06-10T10:27:21Z</time>
      </trkpt>
      <trkpt lat="43.63887" lon="3.81491">
        <ele>142.5</ele>
        <time>2016-06-10T10:27:24Z</time>
      </trkpt>
      <trkpt lat="43.63881" lon="3.81497">
        <ele>142.5</ele>
        <time>2016-06-10T10:27:26Z</time>
      </trkpt>
      <trkpt lat="43.63873" lon="3.81503">
        <ele>142.7</ele>
        <time>2016-06-10T10:27:29Z</time>
      </trkpt>
      <trkpt lat="43.63866" lon="3.81507">
        <ele>142.9</ele>
        <time>2016-06-10T10:27:32Z</time>
      </trkpt>
      <trkpt lat="43.63855" lon="3.81511">
        <ele>143.1</ele>
        <time>2016-06-10T10:27:35Z</time>
      </trkpt>
      <trkpt lat="43.63846" lon="3.81512">
        <ele>143.3</ele>
        <time>2016-06-10T10:27:38Z</time>
      </trkpt>
      <trkpt lat="43.63837" lon="3.81513">
        <ele>143.8</ele>
        <time>2016-06-10T10:27:41Z</time>
      </trkpt>
      <trkpt lat="43.63827" lon="3.81515">
        <ele>144.4</ele>
        <time>2016-06-10T10:27:44Z</time>
      </trkpt>
      <trkpt lat="43.63818" lon="3.81514">
        <ele>144.9</ele>
        <time>2016-06-10T10:27:48Z</time>
      </trkpt>
      <trkpt lat="43.63809" lon="3.8151">
        <ele>145.3</ele>
        <time>2016-06-10T10:27:51Z</time>
      </trkpt>
      <trkpt lat="43.63801" lon="3.81505">
        <ele>145.4</ele>
        <time>2016-06-10T10:27:53Z</time>
      </trkpt>
      <trkpt lat="43.63793" lon="3.81498">
        <ele>148.1</ele>
        <time>2016-06-10T10:27:55Z</time>
      </trkpt>
      <trkpt lat="43.63784" lon="3.81492">
        <ele>149.8</ele>
        <time>2016-06-10T10:27:57Z</time>
      </trkpt>
      <trkpt lat="43.63775" lon="3.81485">
        <ele>151.3</ele>
        <time>2016-06-10T10:27:59Z</time>
      </trkpt>
      <trkpt lat="43.63764" lon="3.81475">
        <ele>152.2</ele>
        <time>2016-06-10T10:28:01Z</time>
      </trkpt>
      <trkpt lat="43.63756" lon="3.81467">
        <ele>153.2</ele>
        <time>2016-06-10T10:28:03Z</time>
      </trkpt>
      <trkpt lat="43.63746" lon="3.81461">
        <ele>153.3</ele>
        <time>2016-06-10T10:28:05Z</time>
      </trkpt>
      <trkpt lat="43.63738" lon="3.81456">
        <ele>153.1</ele>
        <time>2016-06-10T10:28:07Z</time>
      </trkpt>
      <trkpt lat="43.63728" lon="3.81451">
        <ele>153.2</ele>
        <time>2016-06-10T10:28:09Z</time>
      </trkpt>
      <trkpt lat="43.63716" lon="3.81446">
        <ele>153.4</ele>
        <time>2016-06-10T10:28:11Z</time>
      </trkpt>
      <trkpt lat="43.63704" lon="3.81441">
        <ele>152.8</ele>
        <time>2016-06-10T10:28:13Z</time>
      </trkpt>
      <trkpt lat="43.63694" lon="3.81439">
        <ele>153</ele>
        <time>2016-06-10T10:28:15Z</time>
      </trkpt>
      <trkpt lat="43.63683" lon="3.81434">
        <ele>152.5</ele>
        <time>2016-06-10T10:28:17Z</time>
      </trkpt>
      <trkpt lat="43.63671" lon="3.81428">
        <ele>151.9</ele>
        <time>2016-06-10T10:28:19Z</time>
      </trkpt>
      <trkpt lat="43.63661" lon="3.81422">
        <ele>152.1</ele>
        <time>2016-06-10T10:28:21Z</time>
      </trkpt>
      <trkpt lat="43.6365" lon="3.81415">
        <ele>151.3</ele>
        <time>2016-06-10T10:28:23Z</time>
      </trkpt>
      <trkpt lat="43.63639" lon="3.81409">
        <ele>151.3</ele>
        <time>2016-06-10T10:28:25Z</time>
      </trkpt>
      <trkpt lat="43.63627" lon="3.81404">
        <ele>152.3</ele>
        <time>2016-06-10T10:28:27Z</time>
      </trkpt>
      <trkpt lat="43.63616" lon="3.81402">
        <ele>152.5</ele>
        <time>2016-06-10T10:28:29Z</time>
      </trkpt>
      <trkpt lat="43.63606" lon="3.81401">
        <ele>151.6</ele>
        <time>2016-06-10T10:28:31Z</time>
      </trkpt>
      <trkpt lat="43.63594" lon="3.814">
        <ele>151.1</ele>
        <time>2016-06-10T10:28:33Z</time>
      </trkpt>
      <trkpt lat="43.63583" lon="3.81397">
        <ele>151.1</ele>
        <time>2016-06-10T10:28:35Z</time>
      </trkpt>
      <trkpt lat="43.63575" lon="3.81395">
        <ele>151.1</ele>
        <time>2016-06-10T10:28:38Z</time>
      </trkpt>
      <trkpt lat="43.63568" lon="3.8139">
        <ele>150.2</ele>
        <time>2016-06-10T10:28:40Z</time>
      </trkpt>
      <trkpt lat="43.63563" lon="3.8139">
        <ele>149.9</ele>
        <time>2016-06-10T10:28:47Z</time>
      </trkpt>
      <trkpt lat="43.63555" lon="3.81389">
        <ele>149.6</ele>
        <time>2016-06-10T10:28:52Z</time>
      </trkpt>
      <trkpt lat="43.63547" lon="3.8139">
        <ele>149.7</ele>
        <time>2016-06-10T10:28:56Z</time>
      </trkpt>
      <trkpt lat="43.63538" lon="3.8139">
        <ele>149.3</ele>
        <time>2016-06-10T10:29:01Z</time>
      </trkpt>
      <trkpt lat="43.63531" lon="3.81397">
        <ele>149.2</ele>
        <time>2016-06-10T10:29:06Z</time>
      </trkpt>
      <trkpt lat="43.63523" lon="3.81409">
        <ele>148.5</ele>
        <time>2016-06-10T10:29:17Z</time>
      </trkpt>
      <trkpt lat="43.6352" lon="3.8142">
        <ele>147.7</ele>
        <time>2016-06-10T10:29:22Z</time>
      </trkpt>
      <trkpt lat="43.63514" lon="3.81425">
        <ele>147.4</ele>
        <time>2016-06-10T10:29:24Z</time>
      </trkpt>
      <trkpt lat="43.63505" lon="3.81424">
        <ele>146.7</ele>
        <time>2016-06-10T10:29:27Z</time>
      </trkpt>
      <trkpt lat="43.63506" lon="3.81427">
        <ele>145.1</ele>
        <time>2016-06-10T10:29:34Z</time>
      </trkpt>
      <trkpt lat="43.63506" lon="3.81427">
        <ele>143.5</ele>
        <time>2016-06-10T10:29:41Z</time>
      </trkpt>
      <trkpt lat="43.63502" lon="3.81428">
        <ele>141.5</ele>
        <time>2016-06-10T10:29:48Z</time>
      </trkpt>
      <trkpt lat="43.63495" lon="3.8143">
        <ele>141.1</ele>
        <time>2016-06-10T10:29:51Z</time>
      </trkpt>
      <trkpt lat="43.63487" lon="3.81428">
        <ele>139.7</ele>
        <time>2016-06-10T10:29:53Z</time>
      </trkpt>
      <trkpt lat="43.63479" lon="3.81424">
        <ele>139.2</ele>
        <time>2016-06-10T10:29:57Z</time>
      </trkpt>
      <trkpt lat="43.6347" lon="3.81429">
        <ele>137.2</ele>
        <time>2016-06-10T10:30:02Z</time>
      </trkpt>
      <trkpt lat="43.63462" lon="3.81428">
        <ele>136.9</ele>
        <time>2016-06-10T10:30:05Z</time>
      </trkpt>
      <trkpt lat="43.63453" lon="3.81435">
        <ele>136</ele>
        <time>2016-06-10T10:30:10Z</time>
      </trkpt>
      <trkpt lat="43.63447" lon="3.8144">
        <ele>135</ele>
        <time>2016-06-10T10:30:14Z</time>
      </trkpt>
      <trkpt lat="43.63437" lon="3.81441">
        <ele>131.7</ele>
        <time>2016-06-10T10:30:17Z</time>
      </trkpt>
      <trkpt lat="43.63428" lon="3.81438">
        <ele>131.3</ele>
        <time>2016-06-10T10:30:19Z</time>
      </trkpt>
      <trkpt lat="43.63421" lon="3.81434">
        <ele>128.5</ele>
        <time>2016-06-10T10:30:22Z</time>
      </trkpt>
      <trkpt lat="43.63414" lon="3.81438">
        <ele>125.2</ele>
        <time>2016-06-10T10:30:24Z</time>
      </trkpt>
      <trkpt lat="43.6341" lon="3.81446">
        <ele>124.5</ele>
        <time>2016-06-10T10:30:28Z</time>
      </trkpt>
      <trkpt lat="43.63405" lon="3.81457">
        <ele>123.7</ele>
        <time>2016-06-10T10:30:32Z</time>
      </trkpt>
      <trkpt lat="43.63397" lon="3.8146">
        <ele>123.2</ele>
        <time>2016-06-10T10:30:35Z</time>
      </trkpt>
      <trkpt lat="43.63389" lon="3.81459">
        <ele>121.8</ele>
        <time>2016-06-10T10:30:41Z</time>
      </trkpt>
      <trkpt lat="43.63383" lon="3.81453">
        <ele>120.9</ele>
        <time>2016-06-10T10:30:44Z</time>
      </trkpt>
      <trkpt lat="43.63372" lon="3.81457">
        <ele>113.6</ele>
        <time>2016-06-10T10:30:47Z</time>
      </trkpt>
      <trkpt lat="43.63364" lon="3.81465">
        <ele>108.7</ele>
        <time>2016-06-10T10:30:49Z</time>
      </trkpt>
      <trkpt lat="43.63356" lon="3.81465">
        <ele>107.2</ele>
        <time>2016-06-10T10:30:52Z</time>
      </trkpt>
      <trkpt lat="43.63349" lon="3.81452">
        <ele>106.5</ele>
        <time>2016-06-10T10:30:56Z</time>
      </trkpt>
      <trkpt lat="43.63344" lon="3.81438">
        <ele>103.5</ele>
        <time>2016-06-10T10:30:58Z</time>
      </trkpt>
      <trkpt lat="43.63338" lon="3.81424">
        <ele>103.1</ele>
        <time>2016-06-10T10:31:00Z</time>
      </trkpt>
      <trkpt lat="43.63347" lon="3.8141">
        <ele>103</ele>
        <time>2016-06-10T10:31:03Z</time>
      </trkpt>
      <trkpt lat="43.63356" lon="3.81397">
        <ele>102.7</ele>
        <time>2016-06-10T10:31:05Z</time>
      </trkpt>
      <trkpt lat="43.63362" lon="3.8139">
        <ele>102.4</ele>
        <time>2016-06-10T10:31:07Z</time>
      </trkpt>
      <trkpt lat="43.6337" lon="3.81382">
        <ele>101.9</ele>
        <time>2016-06-10T10:31:10Z</time>
      </trkpt>
      <trkpt lat="43.63377" lon="3.81377">
        <ele>101.5</ele>
        <time>2016-06-10T10:31:12Z</time>
      </trkpt>
      <trkpt lat="43.63385" lon="3.81374">
        <ele>101.3</ele>
        <time>2016-06-10T10:31:14Z</time>
      </trkpt>
      <trkpt lat="43.63393" lon="3.81366">
        <ele>101</ele>
        <time>2016-06-10T10:31:17Z</time>
      </trkpt>
      <trkpt lat="43.63404" lon="3.81359">
        <ele>99.6</ele>
        <time>2016-06-10T10:31:20Z</time>
      </trkpt>
      <trkpt lat="43.63412" lon="3.81351">
        <ele>96.9</ele>
        <time>2016-06-10T10:31:22Z</time>
      </trkpt>
      <trkpt lat="43.63421" lon="3.81341">
        <ele>94.7</ele>
        <time>2016-06-10T10:31:24Z</time>
      </trkpt>
      <trkpt lat="43.63428" lon="3.81332">
        <ele>94.6</ele>
        <time>2016-06-10T10:31:26Z</time>
      </trkpt>
      <trkpt lat="43.63435" lon="3.81323">
        <ele>94.6</ele>
        <time>2016-06-10T10:31:28Z</time>
      </trkpt>
      <trkpt lat="43.63441" lon="3.81312">
        <ele>95.6</ele>
        <time>2016-06-10T10:31:30Z</time>
      </trkpt>
      <trkpt lat="43.63446" lon="3.81303">
        <ele>95.8</ele>
        <time>2016-06-10T10:31:32Z</time>
      </trkpt>
      <trkpt lat="43.6345" lon="3.81291">
        <ele>95.8</ele>
        <time>2016-06-10T10:31:34Z</time>
      </trkpt>
      <trkpt lat="43.63451" lon="3.81277">
        <ele>96.9</ele>
        <time>2016-06-10T10:31:37Z</time>
      </trkpt>
      <trkpt lat="43.63452" lon="3.81266">
        <ele>99.2</ele>
        <time>2016-06-10T10:31:39Z</time>
      </trkpt>
      <trkpt lat="43.63452" lon="3.81255">
        <ele>101.2</ele>
        <time>2016-06-10T10:31:41Z</time>
      </trkpt>
      <trkpt lat="43.63453" lon="3.81243">
        <ele>103.9</ele>
        <time>2016-06-10T10:31:43Z</time>
      </trkpt>
      <trkpt lat="43.63453" lon="3.81231">
        <ele>104.5</ele>
        <time>2016-06-10T10:31:45Z</time>
      </trkpt>
      <trkpt lat="43.63453" lon="3.81219">
        <ele>106.1</ele>
        <time>2016-06-10T10:31:47Z</time>
      </trkpt>
      <trkpt lat="43.63454" lon="3.81206">
        <ele>107.2</ele>
        <time>2016-06-10T10:31:49Z</time>
      </trkpt>
      <trkpt lat="43.63453" lon="3.81195">
        <ele>107.6</ele>
        <time>2016-06-10T10:31:51Z</time>
      </trkpt>
      <trkpt lat="43.63452" lon="3.81183">
        <ele>108</ele>
        <time>2016-06-10T10:31:53Z</time>
      </trkpt>
      <trkpt lat="43.63452" lon="3.81171">
        <ele>108.2</ele>
        <time>2016-06-10T10:31:55Z</time>
      </trkpt>
      <trkpt lat="43.63452" lon="3.81159">
        <ele>107.6</ele>
        <time>2016-06-10T10:31:57Z</time>
      </trkpt>
      <trkpt lat="43.63454" lon="3.81146">
        <ele>106.3</ele>
        <time>2016-06-10T10:31:59Z</time>
      </trkpt>
      <trkpt lat="43.63454" lon="3.81133">
        <ele>102.9</ele>
        <time>2016-06-10T10:32:01Z</time>
      </trkpt>
      <trkpt lat="43.63454" lon="3.81119">
        <ele>101.3</ele>
        <time>2016-06-10T10:32:03Z</time>
      </trkpt>
      <trkpt lat="43.63453" lon="3.81105">
        <ele>100</ele>
        <time>2016-06-10T10:32:05Z</time>
      </trkpt>
      <trkpt lat="43.63451" lon="3.81091">
        <ele>99.3</ele>
        <time>2016-06-10T10:32:07Z</time>
      </trkpt>
      <trkpt lat="43.6345" lon="3.81078">
        <ele>97.7</ele>
        <time>2016-06-10T10:32:09Z</time>
      </trkpt>
      <trkpt lat="43.63448" lon="3.81065">
        <ele>96.2</ele>
        <time>2016-06-10T10:32:11Z</time>
      </trkpt>
      <trkpt lat="43.63446" lon="3.81053">
        <ele>96.4</ele>
        <time>2016-06-10T10:32:13Z</time>
      </trkpt>
      <trkpt lat="43.63444" lon="3.81041">
        <ele>96</ele>
        <time>2016-06-10T10:32:15Z</time>
      </trkpt>
      <trkpt lat="43.63441" lon="3.81028">
        <ele>94.6</ele>
        <time>2016-06-10T10:32:17Z</time>
      </trkpt>
      <trkpt lat="43.63439" lon="3.81016">
        <ele>94</ele>
        <time>2016-06-10T10:32:19Z</time>
      </trkpt>
      <trkpt lat="43.63437" lon="3.81004">
        <ele>94</ele>
        <time>2016-06-10T10:32:21Z</time>
      </trkpt>
      <trkpt lat="43.63434" lon="3.80992">
        <ele>95.2</ele>
        <time>2016-06-10T10:32:23Z</time>
      </trkpt>
      <trkpt lat="43.63431" lon="3.8098">
        <ele>96.3</ele>
        <time>2016-06-10T10:32:25Z</time>
      </trkpt>
      <trkpt lat="43.63429" lon="3.80966">
        <ele>96.9</ele>
        <time>2016-06-10T10:32:27Z</time>
      </trkpt>
      <trkpt lat="43.63427" lon="3.80951">
        <ele>97.8</ele>
        <time>2016-06-10T10:32:29Z</time>
      </trkpt>
      <trkpt lat="43.63426" lon="3.80937">
        <ele>98</ele>
        <time>2016-06-10T10:32:31Z</time>
      </trkpt>
      <trkpt lat="43.63427" lon="3.80923">
        <ele>97.9</ele>
        <time>2016-06-10T10:32:33Z</time>
      </trkpt>
      <trkpt lat="43.63429" lon="3.8091">
        <ele>96.5</ele>
        <time>2016-06-10T10:32:35Z</time>
      </trkpt>
      <trkpt lat="43.63434" lon="3.80898">
        <ele>94.9</ele>
        <time>2016-06-10T10:32:37Z</time>
      </trkpt>
      <trkpt lat="43.6344" lon="3.80886">
        <ele>95.6</ele>
        <time>2016-06-10T10:32:39Z</time>
      </trkpt>
      <trkpt lat="43.63444" lon="3.80875">
        <ele>96.8</ele>
        <time>2016-06-10T10:32:41Z</time>
      </trkpt>
      <trkpt lat="43.63448" lon="3.80862">
        <ele>98.3</ele>
        <time>2016-06-10T10:32:43Z</time>
      </trkpt>
      <trkpt lat="43.63449" lon="3.80847">
        <ele>98.8</ele>
        <time>2016-06-10T10:32:45Z</time>
      </trkpt>
      <trkpt lat="43.63449" lon="3.80833">
        <ele>98.9</ele>
        <time>2016-06-10T10:32:47Z</time>
      </trkpt>
      <trkpt lat="43.63449" lon="3.8082">
        <ele>100</ele>
        <time>2016-06-10T10:32:49Z</time>
      </trkpt>
      <trkpt lat="43.63451" lon="3.80805">
        <ele>99.5</ele>
        <time>2016-06-10T10:32:51Z</time>
      </trkpt>
      <trkpt lat="43.63456" lon="3.80791">
        <ele>99.6</ele>
        <time>2016-06-10T10:32:53Z</time>
      </trkpt>
      <trkpt lat="43.63466" lon="3.80782">
        <ele>100.8</ele>
        <time>2016-06-10T10:32:55Z</time>
      </trkpt>
      <trkpt lat="43.63478" lon="3.80776">
        <ele>100.5</ele>
        <time>2016-06-10T10:32:57Z</time>
      </trkpt>
      <trkpt lat="43.6349" lon="3.80773">
        <ele>100</ele>
        <time>2016-06-10T10:32:59Z</time>
      </trkpt>
      <trkpt lat="43.63503" lon="3.80772">
        <ele>100.4</ele>
        <time>2016-06-10T10:33:01Z</time>
      </trkpt>
      <trkpt lat="43.63515" lon="3.80776">
        <ele>99.9</ele>
        <time>2016-06-10T10:33:03Z</time>
      </trkpt>
      <trkpt lat="43.63524" lon="3.80783">
        <ele>98</ele>
        <time>2016-06-10T10:33:05Z</time>
      </trkpt>
      <trkpt lat="43.63534" lon="3.80793">
        <ele>97.7</ele>
        <time>2016-06-10T10:33:07Z</time>
      </trkpt>
      <trkpt lat="43.63544" lon="3.80804">
        <ele>96.7</ele>
        <time>2016-06-10T10:33:09Z</time>
      </trkpt>
      <trkpt lat="43.63553" lon="3.80812">
        <ele>96.7</ele>
        <time>2016-06-10T10:33:11Z</time>
      </trkpt>
      <trkpt lat="43.63562" lon="3.80823">
        <ele>96.2</ele>
        <time>2016-06-10T10:33:13Z</time>
      </trkpt>
      <trkpt lat="43.6357" lon="3.80834">
        <ele>96</ele>
        <time>2016-06-10T10:33:15Z</time>
      </trkpt>
      <trkpt lat="43.63578" lon="3.80846">
        <ele>97.1</ele>
        <time>2016-06-10T10:33:17Z</time>
      </trkpt>
      <trkpt lat="43.63588" lon="3.80855">
        <ele>98.4</ele>
        <time>2016-06-10T10:33:19Z</time>
      </trkpt>
      <trkpt lat="43.63598" lon="3.80861">
        <ele>99.2</ele>
        <time>2016-06-10T10:33:21Z</time>
      </trkpt>
      <trkpt lat="43.63609" lon="3.80865">
        <ele>99.7</ele>
        <time>2016-06-10T10:33:23Z</time>
      </trkpt>
      <trkpt lat="43.6362" lon="3.80869">
        <ele>100.4</ele>
        <time>2016-06-10T10:33:25Z</time>
      </trkpt>
      <trkpt lat="43.63633" lon="3.80869">
        <ele>99.5</ele>
        <time>2016-06-10T10:33:27Z</time>
      </trkpt>
      <trkpt lat="43.63647" lon="3.80868">
        <ele>99.5</ele>
        <time>2016-06-10T10:33:29Z</time>
      </trkpt>
      <trkpt lat="43.6366" lon="3.80863">
        <ele>99.8</ele>
        <time>2016-06-10T10:33:31Z</time>
      </trkpt>
      <trkpt lat="43.63672" lon="3.80859">
        <ele>100.8</ele>
        <time>2016-06-10T10:33:33Z</time>
      </trkpt>
      <trkpt lat="43.63686" lon="3.80854">
        <ele>100.5</ele>
        <time>2016-06-10T10:33:35Z</time>
      </trkpt>
      <trkpt lat="43.63694" lon="3.80852">
        <ele>100.2</ele>
        <time>2016-06-10T10:33:36Z</time>
      </trkpt>
      <trkpt lat="43.63708" lon="3.80849">
        <ele>98.9</ele>
        <time>2016-06-10T10:33:38Z</time>
      </trkpt>
      <trkpt lat="43.63722" lon="3.80848">
        <ele>97.3</ele>
        <time>2016-06-10T10:33:40Z</time>
      </trkpt>
      <trkpt lat="43.63734" lon="3.80848">
        <ele>97.5</ele>
        <time>2016-06-10T10:33:42Z</time>
      </trkpt>
      <trkpt lat="43.63748" lon="3.80847">
        <ele>95.4</ele>
        <time>2016-06-10T10:33:44Z</time>
      </trkpt>
      <trkpt lat="43.63761" lon="3.80846">
        <ele>95.6</ele>
        <time>2016-06-10T10:33:46Z</time>
      </trkpt>
      <trkpt lat="43.63769" lon="3.80845">
        <ele>95.2</ele>
        <time>2016-06-10T10:33:47Z</time>
      </trkpt>
      <trkpt lat="43.63782" lon="3.80841">
        <ele>94.3</ele>
        <time>2016-06-10T10:33:49Z</time>
      </trkpt>
      <trkpt lat="43.63794" lon="3.80837">
        <ele>95.2</ele>
        <time>2016-06-10T10:33:51Z</time>
      </trkpt>
      <trkpt lat="43.63804" lon="3.80833">
        <ele>96.3</ele>
        <time>2016-06-10T10:33:53Z</time>
      </trkpt>
      <trkpt lat="43.63815" lon="3.80826">
        <ele>95.7</ele>
        <time>2016-06-10T10:33:55Z</time>
      </trkpt>
      <trkpt lat="43.63824" lon="3.80819">
        <ele>95.5</ele>
        <time>2016-06-10T10:33:57Z</time>
      </trkpt>
      <trkpt lat="43.63829" lon="3.8081">
        <ele>95.6</ele>
        <time>2016-06-10T10:34:01Z</time>
      </trkpt>
      <trkpt lat="43.6383" lon="3.80806">
        <ele>95.5</ele>
        <time>2016-06-10T10:34:08Z</time>
      </trkpt>
      <trkpt lat="43.63836" lon="3.80794">
        <ele>96.8</ele>
        <time>2016-06-10T10:34:16Z</time>
      </trkpt>
      <trkpt lat="43.63844" lon="3.80788">
        <ele>97.4</ele>
        <time>2016-06-10T10:34:21Z</time>
      </trkpt>
      <trkpt lat="43.63848" lon="3.8078">
        <ele>97.9</ele>
        <time>2016-06-10T10:34:28Z</time>
      </trkpt>
      <trkpt lat="43.6385" lon="3.80775">
        <ele>98</ele>
        <time>2016-06-10T10:34:35Z</time>
      </trkpt>
      <trkpt lat="43.63846" lon="3.80766">
        <ele>98.1</ele>
        <time>2016-06-10T10:34:42Z</time>
      </trkpt>
      <trkpt lat="43.63846" lon="3.80755">
        <ele>98.3</ele>
        <time>2016-06-10T10:34:48Z</time>
      </trkpt>
      <trkpt lat="43.63846" lon="3.80747">
        <ele>98.7</ele>
        <time>2016-06-10T10:34:55Z</time>
      </trkpt>
      <trkpt lat="43.63846" lon="3.80736">
        <ele>99.1</ele>
        <time>2016-06-10T10:35:06Z</time>
      </trkpt>
      <trkpt lat="43.63841" lon="3.8073">
        <ele>98.7</ele>
        <time>2016-06-10T10:35:11Z</time>
      </trkpt>
      <trkpt lat="43.63834" lon="3.80726">
        <ele>98.7</ele>
        <time>2016-06-10T10:35:14Z</time>
      </trkpt>
      <trkpt lat="43.63826" lon="3.80728">
        <ele>98.8</ele>
        <time>2016-06-10T10:35:17Z</time>
      </trkpt>
      <trkpt lat="43.63817" lon="3.80731">
        <ele>98.9</ele>
        <time>2016-06-10T10:35:20Z</time>
      </trkpt>
      <trkpt lat="43.63808" lon="3.80733">
        <ele>98.8</ele>
        <time>2016-06-10T10:35:23Z</time>
      </trkpt>
      <trkpt lat="43.63799" lon="3.80734">
        <ele>98.9</ele>
        <time>2016-06-10T10:35:25Z</time>
      </trkpt>
      <trkpt lat="43.63791" lon="3.80737">
        <ele>99</ele>
        <time>2016-06-10T10:35:28Z</time>
      </trkpt>
      <trkpt lat="43.63782" lon="3.80741">
        <ele>99.1</ele>
        <time>2016-06-10T10:35:31Z</time>
      </trkpt>
      <trkpt lat="43.63771" lon="3.80746">
        <ele>99.1</ele>
        <time>2016-06-10T10:35:34Z</time>
      </trkpt>
      <trkpt lat="43.63762" lon="3.80749">
        <ele>99.1</ele>
        <time>2016-06-10T10:35:36Z</time>
      </trkpt>
      <trkpt lat="43.63753" lon="3.80751">
        <ele>100.2</ele>
        <time>2016-06-10T10:35:38Z</time>
      </trkpt>
      <trkpt lat="43.63743" lon="3.80749">
        <ele>100.1</ele>
        <time>2016-06-10T10:35:40Z</time>
      </trkpt>
      <trkpt lat="43.63735" lon="3.80748">
        <ele>100.3</ele>
        <time>2016-06-10T10:35:42Z</time>
      </trkpt>
      <trkpt lat="43.63727" lon="3.80746">
        <ele>101.6</ele>
        <time>2016-06-10T10:35:44Z</time>
      </trkpt>
      <trkpt lat="43.63718" lon="3.80744">
        <ele>102.6</ele>
        <time>2016-06-10T10:35:46Z</time>
      </trkpt>
      <trkpt lat="43.6371" lon="3.80743">
        <ele>102.9</ele>
        <time>2016-06-10T10:35:48Z</time>
      </trkpt>
      <trkpt lat="43.63701" lon="3.8074">
        <ele>103.6</ele>
        <time>2016-06-10T10:35:50Z</time>
      </trkpt>
      <trkpt lat="43.63689" lon="3.80734">
        <ele>103.8</ele>
        <time>2016-06-10T10:35:52Z</time>
      </trkpt>
      <trkpt lat="43.63679" lon="3.8073">
        <ele>104.1</ele>
        <time>2016-06-10T10:35:54Z</time>
      </trkpt>
      <trkpt lat="43.63668" lon="3.80727">
        <ele>103.9</ele>
        <time>2016-06-10T10:35:56Z</time>
      </trkpt>
      <trkpt lat="43.63656" lon="3.80725">
        <ele>104</ele>
        <time>2016-06-10T10:35:58Z</time>
      </trkpt>
      <trkpt lat="43.63645" lon="3.80723">
        <ele>103.4</ele>
        <time>2016-06-10T10:36:00Z</time>
      </trkpt>
      <trkpt lat="43.63635" lon="3.80722">
        <ele>102.7</ele>
        <time>2016-06-10T10:36:02Z</time>
      </trkpt>
      <trkpt lat="43.63624" lon="3.80721">
        <ele>103.3</ele>
        <time>2016-06-10T10:36:04Z</time>
      </trkpt>
      <trkpt lat="43.63612" lon="3.80719">
        <ele>103.9</ele>
        <time>2016-06-10T10:36:06Z</time>
      </trkpt>
      <trkpt lat="43.63601" lon="3.80716">
        <ele>105</ele>
        <time>2016-06-10T10:36:08Z</time>
      </trkpt>
      <trkpt lat="43.63591" lon="3.80713">
        <ele>105.1</ele>
        <time>2016-06-10T10:36:10Z</time>
      </trkpt>
      <trkpt lat="43.63579" lon="3.80711">
        <ele>105.2</ele>
        <time>2016-06-10T10:36:12Z</time>
      </trkpt>
      <trkpt lat="43.63568" lon="3.80709">
        <ele>105.4</ele>
        <time>2016-06-10T10:36:14Z</time>
      </trkpt>
      <trkpt lat="43.63557" lon="3.80707">
        <ele>104</ele>
        <time>2016-06-10T10:36:16Z</time>
      </trkpt>
      <trkpt lat="43.63545" lon="3.80705">
        <ele>101.5</ele>
        <time>2016-06-10T10:36:18Z</time>
      </trkpt>
      <trkpt lat="43.63532" lon="3.80704">
        <ele>100.4</ele>
        <time>2016-06-10T10:36:20Z</time>
      </trkpt>
      <trkpt lat="43.63521" lon="3.80698">
        <ele>101.3</ele>
        <time>2016-06-10T10:36:22Z</time>
      </trkpt>
      <trkpt lat="43.6351" lon="3.80692">
        <ele>100.6</ele>
        <time>2016-06-10T10:36:24Z</time>
      </trkpt>
      <trkpt lat="43.63499" lon="3.80684">
        <ele>100.4</ele>
        <time>2016-06-10T10:36:26Z</time>
      </trkpt>
      <trkpt lat="43.6349" lon="3.80677">
        <ele>100.4</ele>
        <time>2016-06-10T10:36:28Z</time>
      </trkpt>
      <trkpt lat="43.63482" lon="3.80671">
        <ele>100.5</ele>
        <time>2016-06-10T10:36:30Z</time>
      </trkpt>
      <trkpt lat="43.63475" lon="3.80666">
        <ele>100.5</ele>
        <time>2016-06-10T10:36:32Z</time>
      </trkpt>
      <trkpt lat="43.63466" lon="3.80659">
        <ele>100.5</ele>
        <time>2016-06-10T10:36:35Z</time>
      </trkpt>
      <trkpt lat="43.63459" lon="3.80656">
        <ele>100.9</ele>
        <time>2016-06-10T10:36:39Z</time>
      </trkpt>
      <trkpt lat="43.6345" lon="3.80658">
        <ele>101.2</ele>
        <time>2016-06-10T10:36:42Z</time>
      </trkpt>
      <trkpt lat="43.63441" lon="3.80659">
        <ele>101.1</ele>
        <time>2016-06-10T10:36:44Z</time>
      </trkpt>
      <trkpt lat="43.63434" lon="3.80659">
        <ele>100.9</ele>
        <time>2016-06-10T10:36:46Z</time>
      </trkpt>
      <trkpt lat="43.63425" lon="3.80658">
        <ele>99.6</ele>
        <time>2016-06-10T10:36:48Z</time>
      </trkpt>
      <trkpt lat="43.63417" lon="3.80653">
        <ele>99.5</ele>
        <time>2016-06-10T10:36:50Z</time>
      </trkpt>
      <trkpt lat="43.6341" lon="3.80649">
        <ele>99.5</ele>
        <time>2016-06-10T10:36:52Z</time>
      </trkpt>
      <trkpt lat="43.634" lon="3.80646">
        <ele>99.7</ele>
        <time>2016-06-10T10:36:55Z</time>
      </trkpt>
      <trkpt lat="43.6339" lon="3.80646">
        <ele>100</ele>
        <time>2016-06-10T10:36:59Z</time>
      </trkpt>
      <trkpt lat="43.63382" lon="3.80647">
        <ele>100.3</ele>
        <time>2016-06-10T10:37:02Z</time>
      </trkpt>
      <trkpt lat="43.63373" lon="3.80647">
        <ele>100.8</ele>
        <time>2016-06-10T10:37:05Z</time>
      </trkpt>
      <trkpt lat="43.63366" lon="3.80648">
        <ele>101.1</ele>
        <time>2016-06-10T10:37:08Z</time>
      </trkpt>
      <trkpt lat="43.63358" lon="3.8065">
        <ele>101.2</ele>
        <time>2016-06-10T10:37:11Z</time>
      </trkpt>
      <trkpt lat="43.63348" lon="3.80652">
        <ele>101.8</ele>
        <time>2016-06-10T10:37:15Z</time>
      </trkpt>
      <trkpt lat="43.63341" lon="3.80656">
        <ele>101.9</ele>
        <time>2016-06-10T10:37:18Z</time>
      </trkpt>
      <trkpt lat="43.63333" lon="3.80659">
        <ele>102</ele>
        <time>2016-06-10T10:37:21Z</time>
      </trkpt>
      <trkpt lat="43.63324" lon="3.80661">
        <ele>102.3</ele>
        <time>2016-06-10T10:37:24Z</time>
      </trkpt>
      <trkpt lat="43.63317" lon="3.80666">
        <ele>102.9</ele>
        <time>2016-06-10T10:37:27Z</time>
      </trkpt>
      <trkpt lat="43.63312" lon="3.80672">
        <ele>103.6</ele>
        <time>2016-06-10T10:37:31Z</time>
      </trkpt>
      <trkpt lat="43.63307" lon="3.80681">
        <ele>104.4</ele>
        <time>2016-06-10T10:37:35Z</time>
      </trkpt>
      <trkpt lat="43.633" lon="3.80687">
        <ele>105.1</ele>
        <time>2016-06-10T10:37:38Z</time>
      </trkpt>
      <trkpt lat="43.63294" lon="3.80697">
        <ele>106.1</ele>
        <time>2016-06-10T10:37:42Z</time>
      </trkpt>
      <trkpt lat="43.63289" lon="3.80709">
        <ele>107.1</ele>
        <time>2016-06-10T10:37:46Z</time>
      </trkpt>
      <trkpt lat="43.63285" lon="3.80718">
        <ele>108</ele>
        <time>2016-06-10T10:37:49Z</time>
      </trkpt>
      <trkpt lat="43.63279" lon="3.80725">
        <ele>108.7</ele>
        <time>2016-06-10T10:37:52Z</time>
      </trkpt>
      <trkpt lat="43.6327" lon="3.80728">
        <ele>109.3</ele>
        <time>2016-06-10T10:37:55Z</time>
      </trkpt>
      <trkpt lat="43.63264" lon="3.80721">
        <ele>110.2</ele>
        <time>2016-06-10T10:37:59Z</time>
      </trkpt>
      <trkpt lat="43.63261" lon="3.80709">
        <ele>110.9</ele>
        <time>2016-06-10T10:38:02Z</time>
      </trkpt>
      <trkpt lat="43.63262" lon="3.80696">
        <ele>111.8</ele>
        <time>2016-06-10T10:38:06Z</time>
      </trkpt>
      <trkpt lat="43.63265" lon="3.80687">
        <ele>112.6</ele>
        <time>2016-06-10T10:38:09Z</time>
      </trkpt>
      <trkpt lat="43.63269" lon="3.80677">
        <ele>113.3</ele>
        <time>2016-06-10T10:38:12Z</time>
      </trkpt>
      <trkpt lat="43.63273" lon="3.80668">
        <ele>113.9</ele>
        <time>2016-06-10T10:38:15Z</time>
      </trkpt>
      <trkpt lat="43.63277" lon="3.80659">
        <ele>114.5</ele>
        <time>2016-06-10T10:38:18Z</time>
      </trkpt>
      <trkpt lat="43.63281" lon="3.80647">
        <ele>115.5</ele>
        <time>2016-06-10T10:38:22Z</time>
      </trkpt>
      <trkpt lat="43.63286" lon="3.80634">
        <ele>116.4</ele>
        <time>2016-06-10T10:38:26Z</time>
      </trkpt>
      <trkpt lat="43.63292" lon="3.80624">
        <ele>117.3</ele>
        <time>2016-06-10T10:38:30Z</time>
      </trkpt>
      <trkpt lat="43.63298" lon="3.80614">
        <ele>117.8</ele>
        <time>2016-06-10T10:38:33Z</time>
      </trkpt>
      <trkpt lat="43.63303" lon="3.80605">
        <ele>118.4</ele>
        <time>2016-06-10T10:38:36Z</time>
      </trkpt>
      <trkpt lat="43.63307" lon="3.80596">
        <ele>118.9</ele>
        <time>2016-06-10T10:38:39Z</time>
      </trkpt>
      <trkpt lat="43.63312" lon="3.80584">
        <ele>119.7</ele>
        <time>2016-06-10T10:38:43Z</time>
      </trkpt>
      <trkpt lat="43.63315" lon="3.80574">
        <ele>120.7</ele>
        <time>2016-06-10T10:38:47Z</time>
      </trkpt>
      <trkpt lat="43.63322" lon="3.80565">
        <ele>121.7</ele>
        <time>2016-06-10T10:38:50Z</time>
      </trkpt>
      <trkpt lat="43.63331" lon="3.80558">
        <ele>122.9</ele>
        <time>2016-06-10T10:38:54Z</time>
      </trkpt>
      <trkpt lat="43.63338" lon="3.80554">
        <ele>123.7</ele>
        <time>2016-06-10T10:38:57Z</time>
      </trkpt>
      <trkpt lat="43.63346" lon="3.80551">
        <ele>124.5</ele>
        <time>2016-06-10T10:39:00Z</time>
      </trkpt>
      <trkpt lat="43.63355" lon="3.80551">
        <ele>125.4</ele>
        <time>2016-06-10T10:39:03Z</time>
      </trkpt>
      <trkpt lat="43.63363" lon="3.8055">
        <ele>126.1</ele>
        <time>2016-06-10T10:39:06Z</time>
      </trkpt>
      <trkpt lat="43.63371" lon="3.80545">
        <ele>127</ele>
        <time>2016-06-10T10:39:10Z</time>
      </trkpt>
      <trkpt lat="43.63376" lon="3.80539">
        <ele>127.7</ele>
        <time>2016-06-10T10:39:13Z</time>
      </trkpt>
      <trkpt lat="43.6338" lon="3.80528">
        <ele>129.1</ele>
        <time>2016-06-10T10:39:18Z</time>
      </trkpt>
      <trkpt lat="43.63379" lon="3.80516">
        <ele>130</ele>
        <time>2016-06-10T10:39:21Z</time>
      </trkpt>
      <trkpt lat="43.63379" lon="3.80506">
        <ele>130.7</ele>
        <time>2016-06-10T10:39:24Z</time>
      </trkpt>
      <trkpt lat="43.63384" lon="3.80495">
        <ele>131.8</ele>
        <time>2016-06-10T10:39:28Z</time>
      </trkpt>
      <trkpt lat="43.63388" lon="3.80486">
        <ele>132.7</ele>
        <time>2016-06-10T10:39:31Z</time>
      </trkpt>
      <trkpt lat="43.63393" lon="3.80477">
        <ele>133.8</ele>
        <time>2016-06-10T10:39:35Z</time>
      </trkpt>
      <trkpt lat="43.63397" lon="3.80467">
        <ele>135</ele>
        <time>2016-06-10T10:39:39Z</time>
      </trkpt>
      <trkpt lat="43.63402" lon="3.80458">
        <ele>136.5</ele>
        <time>2016-06-10T10:39:43Z</time>
      </trkpt>
      <trkpt lat="43.63409" lon="3.80451">
        <ele>137.8</ele>
        <time>2016-06-10T10:39:46Z</time>
      </trkpt>
      <trkpt lat="43.63417" lon="3.80451">
        <ele>139.5</ele>
        <time>2016-06-10T10:39:50Z</time>
      </trkpt>
      <trkpt lat="43.63424" lon="3.80454">
        <ele>140.9</ele>
        <time>2016-06-10T10:39:54Z</time>
      </trkpt>
      <trkpt lat="43.63431" lon="3.80462">
        <ele>142.9</ele>
        <time>2016-06-10T10:39:59Z</time>
      </trkpt>
      <trkpt lat="43.63439" lon="3.80466">
        <ele>144.5</ele>
        <time>2016-06-10T10:40:04Z</time>
      </trkpt>
      <trkpt lat="43.63447" lon="3.80465">
        <ele>145.4</ele>
        <time>2016-06-10T10:40:08Z</time>
      </trkpt>
      <trkpt lat="43.63454" lon="3.80458">
        <ele>146.1</ele>
        <time>2016-06-10T10:40:12Z</time>
      </trkpt>
      <trkpt lat="43.63455" lon="3.80447">
        <ele>146.8</ele>
        <time>2016-06-10T10:40:17Z</time>
      </trkpt>
      <trkpt lat="43.6345" lon="3.80437">
        <ele>147.3</ele>
        <time>2016-06-10T10:40:21Z</time>
      </trkpt>
      <trkpt lat="43.63446" lon="3.80426">
        <ele>148</ele>
        <time>2016-06-10T10:40:25Z</time>
      </trkpt>
      <trkpt lat="43.63448" lon="3.80415">
        <ele>148.5</ele>
        <time>2016-06-10T10:40:28Z</time>
      </trkpt>
      <trkpt lat="43.63451" lon="3.80406">
        <ele>149</ele>
        <time>2016-06-10T10:40:31Z</time>
      </trkpt>
      <trkpt lat="43.63457" lon="3.80398">
        <ele>149.5</ele>
        <time>2016-06-10T10:40:34Z</time>
      </trkpt>
      <trkpt lat="43.63463" lon="3.80388">
        <ele>150.2</ele>
        <time>2016-06-10T10:40:38Z</time>
      </trkpt>
      <trkpt lat="43.63467" lon="3.8038">
        <ele>150.9</ele>
        <time>2016-06-10T10:40:41Z</time>
      </trkpt>
      <trkpt lat="43.6347" lon="3.80368">
        <ele>151.9</ele>
        <time>2016-06-10T10:40:45Z</time>
      </trkpt>
      <trkpt lat="43.63474" lon="3.80358">
        <ele>152.8</ele>
        <time>2016-06-10T10:40:48Z</time>
      </trkpt>
      <trkpt lat="43.63475" lon="3.80346">
        <ele>153.9</ele>
        <time>2016-06-10T10:40:52Z</time>
      </trkpt>
      <trkpt lat="43.63476" lon="3.80334">
        <ele>154.7</ele>
        <time>2016-06-10T10:40:55Z</time>
      </trkpt>
      <trkpt lat="43.63478" lon="3.80321">
        <ele>155.5</ele>
        <time>2016-06-10T10:40:58Z</time>
      </trkpt>
      <trkpt lat="43.6348" lon="3.80309">
        <ele>156.1</ele>
        <time>2016-06-10T10:41:01Z</time>
      </trkpt>
      <trkpt lat="43.6348" lon="3.80298">
        <ele>156.4</ele>
        <time>2016-06-10T10:41:04Z</time>
      </trkpt>
      <trkpt lat="43.63481" lon="3.80287">
        <ele>156.9</ele>
        <time>2016-06-10T10:41:07Z</time>
      </trkpt>
      <trkpt lat="43.63482" lon="3.80277">
        <ele>157.3</ele>
        <time>2016-06-10T10:41:10Z</time>
      </trkpt>
      <trkpt lat="43.63483" lon="3.80265">
        <ele>157.9</ele>
        <time>2016-06-10T10:41:13Z</time>
      </trkpt>
      <trkpt lat="43.63486" lon="3.80252">
        <ele>158.3</ele>
        <time>2016-06-10T10:41:16Z</time>
      </trkpt>
      <trkpt lat="43.63489" lon="3.8024">
        <ele>158.6</ele>
        <time>2016-06-10T10:41:19Z</time>
      </trkpt>
      <trkpt lat="43.63493" lon="3.80228">
        <ele>159</ele>
        <time>2016-06-10T10:41:22Z</time>
      </trkpt>
      <trkpt lat="43.63497" lon="3.80219">
        <ele>159.3</ele>
        <time>2016-06-10T10:41:25Z</time>
      </trkpt>
      <trkpt lat="43.63504" lon="3.80209">
        <ele>159.7</ele>
        <time>2016-06-10T10:41:28Z</time>
      </trkpt>
      <trkpt lat="43.63511" lon="3.80199">
        <ele>160.2</ele>
        <time>2016-06-10T10:41:31Z</time>
      </trkpt>
      <trkpt lat="43.63516" lon="3.80191">
        <ele>160.5</ele>
        <time>2016-06-10T10:41:33Z</time>
      </trkpt>
      <trkpt lat="43.63521" lon="3.80182">
        <ele>162.9</ele>
        <time>2016-06-10T10:41:35Z</time>
      </trkpt>
      <trkpt lat="43.63526" lon="3.80172">
        <ele>164.1</ele>
        <time>2016-06-10T10:41:37Z</time>
      </trkpt>
      <trkpt lat="43.63532" lon="3.80162">
        <ele>166.7</ele>
        <time>2016-06-10T10:41:39Z</time>
      </trkpt>
      <trkpt lat="43.63535" lon="3.80153">
        <ele>168.2</ele>
        <time>2016-06-10T10:41:41Z</time>
      </trkpt>
      <trkpt lat="43.63538" lon="3.80141">
        <ele>169</ele>
        <time>2016-06-10T10:41:43Z</time>
      </trkpt>
      <trkpt lat="43.6354" lon="3.80127">
        <ele>168.3</ele>
        <time>2016-06-10T10:41:45Z</time>
      </trkpt>
      <trkpt lat="43.63542" lon="3.80108">
        <ele>167</ele>
        <time>2016-06-10T10:41:47Z</time>
      </trkpt>
      <trkpt lat="43.63545" lon="3.80097">
        <ele>165.9</ele>
        <time>2016-06-10T10:41:48Z</time>
      </trkpt>
      <trkpt lat="43.63549" lon="3.80087">
        <ele>165.1</ele>
        <time>2016-06-10T10:41:49Z</time>
      </trkpt>
      <trkpt lat="43.63554" lon="3.80079">
        <ele>164.1</ele>
        <time>2016-06-10T10:41:50Z</time>
      </trkpt>
      <trkpt lat="43.63563" lon="3.80068">
        <ele>161.8</ele>
        <time>2016-06-10T10:41:52Z</time>
      </trkpt>
      <trkpt lat="43.63569" lon="3.80053">
        <ele>161.4</ele>
        <time>2016-06-10T10:41:55Z</time>
      </trkpt>
      <trkpt lat="43.63573" lon="3.80043">
        <ele>162.1</ele>
        <time>2016-06-10T10:41:55Z</time>
      </trkpt>
      <trkpt lat="43.63579" lon="3.80029">
        <ele>163.4</ele>
        <time>2016-06-10T10:41:57Z</time>
      </trkpt>
      <trkpt lat="43.63584" lon="3.80018">
        <ele>163.1</ele>
        <time>2016-06-10T10:41:59Z</time>
      </trkpt>
      <trkpt lat="43.63589" lon="3.80005">
        <ele>163</ele>
        <time>2016-06-10T10:42:01Z</time>
      </trkpt>
      <trkpt lat="43.63594" lon="3.79993">
        <ele>163</ele>
        <time>2016-06-10T10:42:03Z</time>
      </trkpt>
      <trkpt lat="43.6361" lon="3.7997">
        <ele>164.2</ele>
        <time>2016-06-10T10:42:08Z</time>
      </trkpt>
      <trkpt lat="43.63614" lon="3.79959">
        <ele>163.8</ele>
        <time>2016-06-10T10:42:10Z</time>
      </trkpt>
      <trkpt lat="43.63618" lon="3.7995">
        <ele>163.6</ele>
        <time>2016-06-10T10:42:12Z</time>
      </trkpt>
      <trkpt lat="43.63625" lon="3.79944">
        <ele>163.1</ele>
        <time>2016-06-10T10:42:14Z</time>
      </trkpt>
      <trkpt lat="43.63633" lon="3.79933">
        <ele>164.4</ele>
        <time>2016-06-10T10:42:17Z</time>
      </trkpt>
      <trkpt lat="43.63638" lon="3.79926">
        <ele>164.5</ele>
        <time>2016-06-10T10:42:19Z</time>
      </trkpt>
      <trkpt lat="43.63642" lon="3.79916">
        <ele>165.2</ele>
        <time>2016-06-10T10:42:21Z</time>
      </trkpt>
      <trkpt lat="43.63647" lon="3.79907">
        <ele>165.8</ele>
        <time>2016-06-10T10:42:23Z</time>
      </trkpt>
      <trkpt lat="43.63652" lon="3.79898">
        <ele>166.2</ele>
        <time>2016-06-10T10:42:25Z</time>
      </trkpt>
      <trkpt lat="43.63659" lon="3.79888">
        <ele>167.1</ele>
        <time>2016-06-10T10:42:28Z</time>
      </trkpt>
      <trkpt lat="43.63665" lon="3.79879">
        <ele>166.9</ele>
        <time>2016-06-10T10:42:30Z</time>
      </trkpt>
      <trkpt lat="43.63671" lon="3.79871">
        <ele>167.2</ele>
        <time>2016-06-10T10:42:32Z</time>
      </trkpt>
      <trkpt lat="43.63675" lon="3.79863">
        <ele>167</ele>
        <time>2016-06-10T10:42:34Z</time>
      </trkpt>
      <trkpt lat="43.6368" lon="3.79852">
        <ele>167.1</ele>
        <time>2016-06-10T10:42:36Z</time>
      </trkpt>
      <trkpt lat="43.63686" lon="3.79844">
        <ele>167.4</ele>
        <time>2016-06-10T10:42:38Z</time>
      </trkpt>
      <trkpt lat="43.63693" lon="3.79834">
        <ele>167.4</ele>
        <time>2016-06-10T10:42:41Z</time>
      </trkpt>
      <trkpt lat="43.63699" lon="3.79827">
        <ele>167.5</ele>
        <time>2016-06-10T10:42:43Z</time>
      </trkpt>
      <trkpt lat="43.63705" lon="3.79818">
        <ele>167.2</ele>
        <time>2016-06-10T10:42:45Z</time>
      </trkpt>
      <trkpt lat="43.63711" lon="3.79807">
        <ele>167.1</ele>
        <time>2016-06-10T10:42:48Z</time>
      </trkpt>
      <trkpt lat="43.63716" lon="3.79794">
        <ele>167.3</ele>
        <time>2016-06-10T10:42:51Z</time>
      </trkpt>
      <trkpt lat="43.63721" lon="3.79782">
        <ele>167.6</ele>
        <time>2016-06-10T10:42:54Z</time>
      </trkpt>
      <trkpt lat="43.63727" lon="3.79769">
        <ele>167.7</ele>
        <time>2016-06-10T10:42:57Z</time>
      </trkpt>
      <trkpt lat="43.63734" lon="3.7976">
        <ele>167.7</ele>
        <time>2016-06-10T10:43:00Z</time>
      </trkpt>
      <trkpt lat="43.63741" lon="3.7975">
        <ele>168</ele>
        <time>2016-06-10T10:43:03Z</time>
      </trkpt>
      <trkpt lat="43.63748" lon="3.79742">
        <ele>168.2</ele>
        <time>2016-06-10T10:43:06Z</time>
      </trkpt>
      <trkpt lat="43.63758" lon="3.79735">
        <ele>169.2</ele>
        <time>2016-06-10T10:43:09Z</time>
      </trkpt>
      <trkpt lat="43.63765" lon="3.79727">
        <ele>169.3</ele>
        <time>2016-06-10T10:43:12Z</time>
      </trkpt>
      <trkpt lat="43.63772" lon="3.79722">
        <ele>169.5</ele>
        <time>2016-06-10T10:43:14Z</time>
      </trkpt>
      <trkpt lat="43.63778" lon="3.79717">
        <ele>169.6</ele>
        <time>2016-06-10T10:43:16Z</time>
      </trkpt>
      <trkpt lat="43.63786" lon="3.79713">
        <ele>170</ele>
        <time>2016-06-10T10:43:18Z</time>
      </trkpt>
      <trkpt lat="43.63793" lon="3.79709">
        <ele>171</ele>
        <time>2016-06-10T10:43:20Z</time>
      </trkpt>
      <trkpt lat="43.63803" lon="3.79702">
        <ele>171.3</ele>
        <time>2016-06-10T10:43:22Z</time>
      </trkpt>
      <trkpt lat="43.63811" lon="3.79695">
        <ele>171.5</ele>
        <time>2016-06-10T10:43:24Z</time>
      </trkpt>
      <trkpt lat="43.63819" lon="3.79689">
        <ele>170.5</ele>
        <time>2016-06-10T10:43:26Z</time>
      </trkpt>
      <trkpt lat="43.63828" lon="3.7968">
        <ele>169.8</ele>
        <time>2016-06-10T10:43:28Z</time>
      </trkpt>
      <trkpt lat="43.63839" lon="3.79669">
        <ele>169.3</ele>
        <time>2016-06-10T10:43:30Z</time>
      </trkpt>
      <trkpt lat="43.63847" lon="3.79666">
        <ele>169.5</ele>
        <time>2016-06-10T10:43:32Z</time>
      </trkpt>
      <trkpt lat="43.63855" lon="3.79668">
        <ele>169.9</ele>
        <time>2016-06-10T10:43:34Z</time>
      </trkpt>
      <trkpt lat="43.63861" lon="3.79664">
        <ele>169.8</ele>
        <time>2016-06-10T10:43:37Z</time>
      </trkpt>
      <trkpt lat="43.63871" lon="3.79658">
        <ele>169.9</ele>
        <time>2016-06-10T10:43:41Z</time>
      </trkpt>
      <trkpt lat="43.63878" lon="3.79655">
        <ele>170</ele>
        <time>2016-06-10T10:43:43Z</time>
      </trkpt>
      <trkpt lat="43.63887" lon="3.79647">
        <ele>171.1</ele>
        <time>2016-06-10T10:43:46Z</time>
      </trkpt>
      <trkpt lat="43.63893" lon="3.79637">
        <ele>171</ele>
        <time>2016-06-10T10:43:48Z</time>
      </trkpt>
      <trkpt lat="43.639" lon="3.79625">
        <ele>169.5</ele>
        <time>2016-06-10T10:43:50Z</time>
      </trkpt>
      <trkpt lat="43.63906" lon="3.79614">
        <ele>168.8</ele>
        <time>2016-06-10T10:43:52Z</time>
      </trkpt>
      <trkpt lat="43.63913" lon="3.79601">
        <ele>167.7</ele>
        <time>2016-06-10T10:43:54Z</time>
      </trkpt>
      <trkpt lat="43.63917" lon="3.79589">
        <ele>166.8</ele>
        <time>2016-06-10T10:43:56Z</time>
      </trkpt>
      <trkpt lat="43.63921" lon="3.7958">
        <ele>166.8</ele>
        <time>2016-06-10T10:43:58Z</time>
      </trkpt>
      <trkpt lat="43.63927" lon="3.79568">
        <ele>166.4</ele>
        <time>2016-06-10T10:44:01Z</time>
      </trkpt>
      <trkpt lat="43.6393" lon="3.79556">
        <ele>165.9</ele>
        <time>2016-06-10T10:44:03Z</time>
      </trkpt>
      <trkpt lat="43.63935" lon="3.79545">
        <ele>165.7</ele>
        <time>2016-06-10T10:44:05Z</time>
      </trkpt>
      <trkpt lat="43.63938" lon="3.79532">
        <ele>165</ele>
        <time>2016-06-10T10:44:07Z</time>
      </trkpt>
      <trkpt lat="43.63941" lon="3.79522">
        <ele>165.3</ele>
        <time>2016-06-10T10:44:09Z</time>
      </trkpt>
      <trkpt lat="43.63943" lon="3.79512">
        <ele>165.8</ele>
        <time>2016-06-10T10:44:11Z</time>
      </trkpt>
      <trkpt lat="43.63947" lon="3.79502">
        <ele>166.7</ele>
        <time>2016-06-10T10:44:13Z</time>
      </trkpt>
      <trkpt lat="43.63951" lon="3.79492">
        <ele>166.8</ele>
        <time>2016-06-10T10:44:15Z</time>
      </trkpt>
      <trkpt lat="43.63956" lon="3.79484">
        <ele>168</ele>
        <time>2016-06-10T10:44:17Z</time>
      </trkpt>
      <trkpt lat="43.63958" lon="3.79473">
        <ele>169.5</ele>
        <time>2016-06-10T10:44:19Z</time>
      </trkpt>
      <trkpt lat="43.63961" lon="3.79461">
        <ele>170.3</ele>
        <time>2016-06-10T10:44:22Z</time>
      </trkpt>
      <trkpt lat="43.63962" lon="3.79448">
        <ele>170.5</ele>
        <time>2016-06-10T10:44:25Z</time>
      </trkpt>
      <trkpt lat="43.63965" lon="3.79433">
        <ele>170.7</ele>
        <time>2016-06-10T10:44:27Z</time>
      </trkpt>
      <trkpt lat="43.63972" lon="3.79419">
        <ele>170.8</ele>
        <time>2016-06-10T10:44:29Z</time>
      </trkpt>
      <trkpt lat="43.63978" lon="3.79408">
        <ele>170.3</ele>
        <time>2016-06-10T10:44:31Z</time>
      </trkpt>
      <trkpt lat="43.63984" lon="3.79398">
        <ele>170.4</ele>
        <time>2016-06-10T10:44:33Z</time>
      </trkpt>
      <trkpt lat="43.63989" lon="3.79389">
        <ele>170.6</ele>
        <time>2016-06-10T10:44:35Z</time>
      </trkpt>
      <trkpt lat="43.63995" lon="3.79378">
        <ele>171.8</ele>
        <time>2016-06-10T10:44:37Z</time>
      </trkpt>
      <trkpt lat="43.64003" lon="3.79365">
        <ele>172.6</ele>
        <time>2016-06-10T10:44:39Z</time>
      </trkpt>
      <trkpt lat="43.6401" lon="3.79351">
        <ele>173.8</ele>
        <time>2016-06-10T10:44:41Z</time>
      </trkpt>
      <trkpt lat="43.64017" lon="3.79338">
        <ele>173.6</ele>
        <time>2016-06-10T10:44:43Z</time>
      </trkpt>
      <trkpt lat="43.64022" lon="3.79327">
        <ele>173.4</ele>
        <time>2016-06-10T10:44:45Z</time>
      </trkpt>
      <trkpt lat="43.64029" lon="3.79315">
        <ele>174.2</ele>
        <time>2016-06-10T10:44:47Z</time>
      </trkpt>
      <trkpt lat="43.64034" lon="3.79305">
        <ele>174.6</ele>
        <time>2016-06-10T10:44:49Z</time>
      </trkpt>
      <trkpt lat="43.64039" lon="3.79294">
        <ele>174.1</ele>
        <time>2016-06-10T10:44:51Z</time>
      </trkpt>
      <trkpt lat="43.64045" lon="3.79283">
        <ele>174.6</ele>
        <time>2016-06-10T10:44:53Z</time>
      </trkpt>
      <trkpt lat="43.64053" lon="3.7927">
        <ele>174.5</ele>
        <time>2016-06-10T10:44:55Z</time>
      </trkpt>
      <trkpt lat="43.64058" lon="3.79259">
        <ele>174.6</ele>
        <time>2016-06-10T10:44:57Z</time>
      </trkpt>
      <trkpt lat="43.64065" lon="3.79245">
        <ele>173.6</ele>
        <time>2016-06-10T10:44:59Z</time>
      </trkpt>
      <trkpt lat="43.64073" lon="3.79235">
        <ele>173.3</ele>
        <time>2016-06-10T10:45:01Z</time>
      </trkpt>
      <trkpt lat="43.64084" lon="3.79223">
        <ele>173.7</ele>
        <time>2016-06-10T10:45:03Z</time>
      </trkpt>
      <trkpt lat="43.64095" lon="3.79213">
        <ele>173.5</ele>
        <time>2016-06-10T10:45:05Z</time>
      </trkpt>
      <trkpt lat="43.64101" lon="3.79207">
        <ele>174</ele>
        <time>2016-06-10T10:45:06Z</time>
      </trkpt>
      <trkpt lat="43.64108" lon="3.79202">
        <ele>174.3</ele>
        <time>2016-06-10T10:45:07Z</time>
      </trkpt>
      <trkpt lat="43.64119" lon="3.79191">
        <ele>174.3</ele>
        <time>2016-06-10T10:45:09Z</time>
      </trkpt>
      <trkpt lat="43.64131" lon="3.79179">
        <ele>172.9</ele>
        <time>2016-06-10T10:45:11Z</time>
      </trkpt>
      <trkpt lat="43.64141" lon="3.79168">
        <ele>171.7</ele>
        <time>2016-06-10T10:45:13Z</time>
      </trkpt>
      <trkpt lat="43.64151" lon="3.7916">
        <ele>171.1</ele>
        <time>2016-06-10T10:45:15Z</time>
      </trkpt>
      <trkpt lat="43.64161" lon="3.79151">
        <ele>170</ele>
        <time>2016-06-10T10:45:17Z</time>
      </trkpt>
      <trkpt lat="43.6417" lon="3.79142">
        <ele>168.8</ele>
        <time>2016-06-10T10:45:19Z</time>
      </trkpt>
      <trkpt lat="43.64176" lon="3.79133">
        <ele>168</ele>
        <time>2016-06-10T10:45:21Z</time>
      </trkpt>
      <trkpt lat="43.64183" lon="3.79119">
        <ele>168</ele>
        <time>2016-06-10T10:45:23Z</time>
      </trkpt>
      <trkpt lat="43.64189" lon="3.79108">
        <ele>168.1</ele>
        <time>2016-06-10T10:45:25Z</time>
      </trkpt>
      <trkpt lat="43.64195" lon="3.79099">
        <ele>169.2</ele>
        <time>2016-06-10T10:45:27Z</time>
      </trkpt>
      <trkpt lat="43.642" lon="3.79088">
        <ele>169.3</ele>
        <time>2016-06-10T10:45:29Z</time>
      </trkpt>
      <trkpt lat="43.64203" lon="3.79077">
        <ele>169.6</ele>
        <time>2016-06-10T10:45:31Z</time>
      </trkpt>
      <trkpt lat="43.64207" lon="3.79065">
        <ele>170.1</ele>
        <time>2016-06-10T10:45:33Z</time>
      </trkpt>
      <trkpt lat="43.64213" lon="3.79053">
        <ele>169</ele>
        <time>2016-06-10T10:45:35Z</time>
      </trkpt>
      <trkpt lat="43.64221" lon="3.79047">
        <ele>169</ele>
        <time>2016-06-10T10:45:37Z</time>
      </trkpt>
      <trkpt lat="43.64229" lon="3.79039">
        <ele>168.8</ele>
        <time>2016-06-10T10:45:39Z</time>
      </trkpt>
      <trkpt lat="43.64236" lon="3.79032">
        <ele>169.6</ele>
        <time>2016-06-10T10:45:41Z</time>
      </trkpt>
      <trkpt lat="43.64243" lon="3.79023">
        <ele>169.7</ele>
        <time>2016-06-10T10:45:43Z</time>
      </trkpt>
      <trkpt lat="43.64249" lon="3.79016">
        <ele>169.6</ele>
        <time>2016-06-10T10:45:45Z</time>
      </trkpt>
      <trkpt lat="43.64257" lon="3.79008">
        <ele>169.9</ele>
        <time>2016-06-10T10:45:48Z</time>
      </trkpt>
      <trkpt lat="43.64264" lon="3.79003">
        <ele>172.3</ele>
        <time>2016-06-10T10:45:50Z</time>
      </trkpt>
      <trkpt lat="43.64273" lon="3.78995">
        <ele>173.3</ele>
        <time>2016-06-10T10:45:53Z</time>
      </trkpt>
      <trkpt lat="43.64275" lon="3.78982">
        <ele>173.6</ele>
        <time>2016-06-10T10:45:57Z</time>
      </trkpt>
      <trkpt lat="43.64276" lon="3.78972">
        <ele>173.7</ele>
        <time>2016-06-10T10:45:59Z</time>
      </trkpt>
      <trkpt lat="43.64279" lon="3.78962">
        <ele>173.8</ele>
        <time>2016-06-10T10:46:01Z</time>
      </trkpt>
      <trkpt lat="43.64283" lon="3.78949">
        <ele>174</ele>
        <time>2016-06-10T10:46:04Z</time>
      </trkpt>
      <trkpt lat="43.64288" lon="3.78936">
        <ele>174.2</ele>
        <time>2016-06-10T10:46:07Z</time>
      </trkpt>
      <trkpt lat="43.64293" lon="3.78928">
        <ele>174.4</ele>
        <time>2016-06-10T10:46:09Z</time>
      </trkpt>
      <trkpt lat="43.643" lon="3.78917">
        <ele>174.5</ele>
        <time>2016-06-10T10:46:12Z</time>
      </trkpt>
      <trkpt lat="43.64304" lon="3.78906">
        <ele>174.5</ele>
        <time>2016-06-10T10:46:14Z</time>
      </trkpt>
      <trkpt lat="43.64308" lon="3.78895">
        <ele>174.6</ele>
        <time>2016-06-10T10:46:16Z</time>
      </trkpt>
      <trkpt lat="43.64314" lon="3.78882">
        <ele>175.8</ele>
        <time>2016-06-10T10:46:19Z</time>
      </trkpt>
      <trkpt lat="43.64321" lon="3.78873">
        <ele>176.8</ele>
        <time>2016-06-10T10:46:21Z</time>
      </trkpt>
      <trkpt lat="43.64328" lon="3.78859">
        <ele>176.8</ele>
        <time>2016-06-10T10:46:24Z</time>
      </trkpt>
      <trkpt lat="43.64334" lon="3.78848">
        <ele>175.7</ele>
        <time>2016-06-10T10:46:26Z</time>
      </trkpt>
      <trkpt lat="43.64339" lon="3.78837">
        <ele>175.6</ele>
        <time>2016-06-10T10:46:28Z</time>
      </trkpt>
      <trkpt lat="43.64343" lon="3.78826">
        <ele>175</ele>
        <time>2016-06-10T10:46:30Z</time>
      </trkpt>
      <trkpt lat="43.64349" lon="3.78813">
        <ele>174.7</ele>
        <time>2016-06-10T10:46:32Z</time>
      </trkpt>
      <trkpt lat="43.64354" lon="3.788">
        <ele>174.9</ele>
        <time>2016-06-10T10:46:34Z</time>
      </trkpt>
      <trkpt lat="43.64359" lon="3.78787">
        <ele>175.4</ele>
        <time>2016-06-10T10:46:36Z</time>
      </trkpt>
      <trkpt lat="43.64363" lon="3.78773">
        <ele>175.4</ele>
        <time>2016-06-10T10:46:38Z</time>
      </trkpt>
      <trkpt lat="43.64368" lon="3.7876">
        <ele>175</ele>
        <time>2016-06-10T10:46:40Z</time>
      </trkpt>
      <trkpt lat="43.64372" lon="3.78747">
        <ele>174.7</ele>
        <time>2016-06-10T10:46:42Z</time>
      </trkpt>
      <trkpt lat="43.64376" lon="3.78733">
        <ele>173.7</ele>
        <time>2016-06-10T10:46:44Z</time>
      </trkpt>
      <trkpt lat="43.6438" lon="3.78719">
        <ele>174</ele>
        <time>2016-06-10T10:46:46Z</time>
      </trkpt>
      <trkpt lat="43.64383" lon="3.78705">
        <ele>172.6</ele>
        <time>2016-06-10T10:46:48Z</time>
      </trkpt>
      <trkpt lat="43.64386" lon="3.78691">
        <ele>171.9</ele>
        <time>2016-06-10T10:46:50Z</time>
      </trkpt>
      <trkpt lat="43.64392" lon="3.78677">
        <ele>170.6</ele>
        <time>2016-06-10T10:46:52Z</time>
      </trkpt>
      <trkpt lat="43.64398" lon="3.7866">
        <ele>171.8</ele>
        <time>2016-06-10T10:46:54Z</time>
      </trkpt>
      <trkpt lat="43.64404" lon="3.78652">
        <ele>172.5</ele>
        <time>2016-06-10T10:46:55Z</time>
      </trkpt>
      <trkpt lat="43.64417" lon="3.78642">
        <ele>174.2</ele>
        <time>2016-06-10T10:46:57Z</time>
      </trkpt>
      <trkpt lat="43.6443" lon="3.78637">
        <ele>173.8</ele>
        <time>2016-06-10T10:46:59Z</time>
      </trkpt>
      <trkpt lat="43.64436" lon="3.78629">
        <ele>173.6</ele>
        <time>2016-06-10T10:47:00Z</time>
      </trkpt>
      <trkpt lat="43.64446" lon="3.78616">
        <ele>173.3</ele>
        <time>2016-06-10T10:47:02Z</time>
      </trkpt>
      <trkpt lat="43.64456" lon="3.78602">
        <ele>172.5</ele>
        <time>2016-06-10T10:47:04Z</time>
      </trkpt>
      <trkpt lat="43.64466" lon="3.78589">
        <ele>171.7</ele>
        <time>2016-06-10T10:47:06Z</time>
      </trkpt>
      <trkpt lat="43.64472" lon="3.78582">
        <ele>171.5</ele>
        <time>2016-06-10T10:47:07Z</time>
      </trkpt>
      <trkpt lat="43.64481" lon="3.78568">
        <ele>172.2</ele>
        <time>2016-06-10T10:47:09Z</time>
      </trkpt>
      <trkpt lat="43.64482" lon="3.78552">
        <ele>172.9</ele>
        <time>2016-06-10T10:47:11Z</time>
      </trkpt>
      <trkpt lat="43.64479" lon="3.78535">
        <ele>172.9</ele>
        <time>2016-06-10T10:47:13Z</time>
      </trkpt>
      <trkpt lat="43.64479" lon="3.78525">
        <ele>172.1</ele>
        <time>2016-06-10T10:47:14Z</time>
      </trkpt>
      <trkpt lat="43.64481" lon="3.78509">
        <ele>171.2</ele>
        <time>2016-06-10T10:47:16Z</time>
      </trkpt>
      <trkpt lat="43.64486" lon="3.78494">
        <ele>170.5</ele>
        <time>2016-06-10T10:47:18Z</time>
      </trkpt>
      <trkpt lat="43.64494" lon="3.78482">
        <ele>169</ele>
        <time>2016-06-10T10:47:20Z</time>
      </trkpt>
      <trkpt lat="43.64502" lon="3.78471">
        <ele>168.8</ele>
        <time>2016-06-10T10:47:22Z</time>
      </trkpt>
      <trkpt lat="43.64507" lon="3.78458">
        <ele>169.1</ele>
        <time>2016-06-10T10:47:24Z</time>
      </trkpt>
      <trkpt lat="43.64511" lon="3.78446">
        <ele>169.8</ele>
        <time>2016-06-10T10:47:26Z</time>
      </trkpt>
      <trkpt lat="43.64515" lon="3.78435">
        <ele>169.9</ele>
        <time>2016-06-10T10:47:28Z</time>
      </trkpt>
      <trkpt lat="43.64519" lon="3.78423">
        <ele>171</ele>
        <time>2016-06-10T10:47:30Z</time>
      </trkpt>
      <trkpt lat="43.64523" lon="3.7841">
        <ele>172.1</ele>
        <time>2016-06-10T10:47:32Z</time>
      </trkpt>
      <trkpt lat="43.64526" lon="3.78399">
        <ele>172.7</ele>
        <time>2016-06-10T10:47:34Z</time>
      </trkpt>
      <trkpt lat="43.64528" lon="3.78389">
        <ele>172.9</ele>
        <time>2016-06-10T10:47:36Z</time>
      </trkpt>
      <trkpt lat="43.64531" lon="3.78377">
        <ele>172.2</ele>
        <time>2016-06-10T10:47:38Z</time>
      </trkpt>
      <trkpt lat="43.64535" lon="3.78363">
        <ele>172.7</ele>
        <time>2016-06-10T10:47:40Z</time>
      </trkpt>
      <trkpt lat="43.64539" lon="3.78351">
        <ele>173.2</ele>
        <time>2016-06-10T10:47:42Z</time>
      </trkpt>
      <trkpt lat="43.64543" lon="3.78339">
        <ele>174.9</ele>
        <time>2016-06-10T10:47:44Z</time>
      </trkpt>
      <trkpt lat="43.64547" lon="3.78326">
        <ele>174</ele>
        <time>2016-06-10T10:47:46Z</time>
      </trkpt>
      <trkpt lat="43.64552" lon="3.78314">
        <ele>173.9</ele>
        <time>2016-06-10T10:47:48Z</time>
      </trkpt>
      <trkpt lat="43.64559" lon="3.78303">
        <ele>173.4</ele>
        <time>2016-06-10T10:47:50Z</time>
      </trkpt>
      <trkpt lat="43.64565" lon="3.78294">
        <ele>172.5</ele>
        <time>2016-06-10T10:47:52Z</time>
      </trkpt>
      <trkpt lat="43.64572" lon="3.78283">
        <ele>172.6</ele>
        <time>2016-06-10T10:47:54Z</time>
      </trkpt>
      <trkpt lat="43.64579" lon="3.78272">
        <ele>171.9</ele>
        <time>2016-06-10T10:47:56Z</time>
      </trkpt>
      <trkpt lat="43.64586" lon="3.78261">
        <ele>172.7</ele>
        <time>2016-06-10T10:47:58Z</time>
      </trkpt>
      <trkpt lat="43.64593" lon="3.78252">
        <ele>173.2</ele>
        <time>2016-06-10T10:48:00Z</time>
      </trkpt>
      <trkpt lat="43.64596" lon="3.78243">
        <ele>172.6</ele>
        <time>2016-06-10T10:48:02Z</time>
      </trkpt>
      <trkpt lat="43.64598" lon="3.78232">
        <ele>172.4</ele>
        <time>2016-06-10T10:48:04Z</time>
      </trkpt>
      <trkpt lat="43.64602" lon="3.78218">
        <ele>173.4</ele>
        <time>2016-06-10T10:48:07Z</time>
      </trkpt>
      <trkpt lat="43.64606" lon="3.78205">
        <ele>173.9</ele>
        <time>2016-06-10T10:48:10Z</time>
      </trkpt>
      <trkpt lat="43.64614" lon="3.78205">
        <ele>174.2</ele>
        <time>2016-06-10T10:48:14Z</time>
      </trkpt>
      <trkpt lat="43.64617" lon="3.78217">
        <ele>174.6</ele>
        <time>2016-06-10T10:48:20Z</time>
      </trkpt>
      <trkpt lat="43.64619" lon="3.78226">
        <ele>174.6</ele>
        <time>2016-06-10T10:48:23Z</time>
      </trkpt>
      <trkpt lat="43.64621" lon="3.78237">
        <ele>174.8</ele>
        <time>2016-06-10T10:48:26Z</time>
      </trkpt>
      <trkpt lat="43.64625" lon="3.78251">
        <ele>174.9</ele>
        <time>2016-06-10T10:48:29Z</time>
      </trkpt>
      <trkpt lat="43.64628" lon="3.78262">
        <ele>175</ele>
        <time>2016-06-10T10:48:31Z</time>
      </trkpt>
      <trkpt lat="43.64631" lon="3.78272">
        <ele>175.8</ele>
        <time>2016-06-10T10:48:33Z</time>
      </trkpt>
      <trkpt lat="43.64636" lon="3.78284">
        <ele>176</ele>
        <time>2016-06-10T10:48:36Z</time>
      </trkpt>
      <trkpt lat="43.6464" lon="3.78295">
        <ele>176.4</ele>
        <time>2016-06-10T10:48:38Z</time>
      </trkpt>
      <trkpt lat="43.64644" lon="3.78304">
        <ele>176.4</ele>
        <time>2016-06-10T10:48:40Z</time>
      </trkpt>
      <trkpt lat="43.64647" lon="3.78312">
        <ele>176.2</ele>
        <time>2016-06-10T10:48:42Z</time>
      </trkpt>
      <trkpt lat="43.64651" lon="3.78323">
        <ele>176.2</ele>
        <time>2016-06-10T10:48:45Z</time>
      </trkpt>
      <trkpt lat="43.64657" lon="3.78335">
        <ele>176.3</ele>
        <time>2016-06-10T10:48:48Z</time>
      </trkpt>
      <trkpt lat="43.64663" lon="3.7834">
        <ele>176.6</ele>
        <time>2016-06-10T10:48:51Z</time>
      </trkpt>
      <trkpt lat="43.64671" lon="3.78337">
        <ele>176.6</ele>
        <time>2016-06-10T10:48:54Z</time>
      </trkpt>
      <trkpt lat="43.64675" lon="3.78327">
        <ele>176.6</ele>
        <time>2016-06-10T10:48:57Z</time>
      </trkpt>
      <trkpt lat="43.64681" lon="3.78317">
        <ele>176.5</ele>
        <time>2016-06-10T10:49:00Z</time>
      </trkpt>
      <trkpt lat="43.64687" lon="3.78311">
        <ele>176.4</ele>
        <time>2016-06-10T10:49:02Z</time>
      </trkpt>
      <trkpt lat="43.64695" lon="3.78305">
        <ele>176.2</ele>
        <time>2016-06-10T10:49:05Z</time>
      </trkpt>
      <trkpt lat="43.64703" lon="3.78299">
        <ele>176.2</ele>
        <time>2016-06-10T10:49:08Z</time>
      </trkpt>
      <trkpt lat="43.64712" lon="3.78293">
        <ele>176.2</ele>
        <time>2016-06-10T10:49:11Z</time>
      </trkpt>
      <trkpt lat="43.64717" lon="3.78286">
        <ele>176.3</ele>
        <time>2016-06-10T10:49:14Z</time>
      </trkpt>
      <trkpt lat="43.64727" lon="3.78279">
        <ele>176.5</ele>
        <time>2016-06-10T10:49:17Z</time>
      </trkpt>
      <trkpt lat="43.64735" lon="3.78272">
        <ele>176.5</ele>
        <time>2016-06-10T10:49:20Z</time>
      </trkpt>
      <trkpt lat="43.64741" lon="3.78265">
        <ele>176.6</ele>
        <time>2016-06-10T10:49:23Z</time>
      </trkpt>
      <trkpt lat="43.64747" lon="3.78257">
        <ele>176.5</ele>
        <time>2016-06-10T10:49:26Z</time>
      </trkpt>
      <trkpt lat="43.64753" lon="3.78248">
        <ele>176.7</ele>
        <time>2016-06-10T10:49:29Z</time>
      </trkpt>
      <trkpt lat="43.6476" lon="3.78246">
        <ele>176.6</ele>
        <time>2016-06-10T10:49:32Z</time>
      </trkpt>
      <trkpt lat="43.64764" lon="3.78255">
        <ele>176.8</ele>
        <time>2016-06-10T10:49:36Z</time>
      </trkpt>
      <trkpt lat="43.64768" lon="3.78267">
        <ele>177.4</ele>
        <time>2016-06-10T10:49:39Z</time>
      </trkpt>
      <trkpt lat="43.64772" lon="3.7828">
        <ele>177.7</ele>
        <time>2016-06-10T10:49:42Z</time>
      </trkpt>
      <trkpt lat="43.64775" lon="3.7829">
        <ele>177.9</ele>
        <time>2016-06-10T10:49:44Z</time>
      </trkpt>
      <trkpt lat="43.64777" lon="3.78299">
        <ele>178.9</ele>
        <time>2016-06-10T10:49:46Z</time>
      </trkpt>
      <trkpt lat="43.64781" lon="3.7831">
        <ele>180.3</ele>
        <time>2016-06-10T10:49:48Z</time>
      </trkpt>
      <trkpt lat="43.64784" lon="3.78321">
        <ele>181.6</ele>
        <time>2016-06-10T10:49:50Z</time>
      </trkpt>
      <trkpt lat="43.64788" lon="3.78331">
        <ele>183.1</ele>
        <time>2016-06-10T10:49:52Z</time>
      </trkpt>
      <trkpt lat="43.64793" lon="3.78339">
        <ele>184.7</ele>
        <time>2016-06-10T10:49:54Z</time>
      </trkpt>
      <trkpt lat="43.64799" lon="3.78347">
        <ele>185.1</ele>
        <time>2016-06-10T10:49:56Z</time>
      </trkpt>
      <trkpt lat="43.64806" lon="3.78357">
        <ele>184.1</ele>
        <time>2016-06-10T10:49:58Z</time>
      </trkpt>
      <trkpt lat="43.64813" lon="3.78367">
        <ele>183</ele>
        <time>2016-06-10T10:50:00Z</time>
      </trkpt>
      <trkpt lat="43.64819" lon="3.78378">
        <ele>182</ele>
        <time>2016-06-10T10:50:02Z</time>
      </trkpt>
      <trkpt lat="43.64822" lon="3.78389">
        <ele>181.5</ele>
        <time>2016-06-10T10:50:04Z</time>
      </trkpt>
      <trkpt lat="43.64825" lon="3.78399">
        <ele>181</ele>
        <time>2016-06-10T10:50:06Z</time>
      </trkpt>
      <trkpt lat="43.6483" lon="3.78408">
        <ele>181.7</ele>
        <time>2016-06-10T10:50:08Z</time>
      </trkpt>
      <trkpt lat="43.64833" lon="3.78419">
        <ele>181.9</ele>
        <time>2016-06-10T10:50:10Z</time>
      </trkpt>
      <trkpt lat="43.64838" lon="3.78429">
        <ele>182.6</ele>
        <time>2016-06-10T10:50:12Z</time>
      </trkpt>
      <trkpt lat="43.64841" lon="3.78443">
        <ele>182.9</ele>
        <time>2016-06-10T10:50:14Z</time>
      </trkpt>
      <trkpt lat="43.64845" lon="3.78455">
        <ele>183.5</ele>
        <time>2016-06-10T10:50:16Z</time>
      </trkpt>
      <trkpt lat="43.64851" lon="3.78463">
        <ele>183.2</ele>
        <time>2016-06-10T10:50:18Z</time>
      </trkpt>
      <trkpt lat="43.64857" lon="3.78473">
        <ele>181.6</ele>
        <time>2016-06-10T10:50:20Z</time>
      </trkpt>
      <trkpt lat="43.64866" lon="3.7848">
        <ele>180.9</ele>
        <time>2016-06-10T10:50:22Z</time>
      </trkpt>
      <trkpt lat="43.64872" lon="3.78487">
        <ele>180.3</ele>
        <time>2016-06-10T10:50:24Z</time>
      </trkpt>
      <trkpt lat="43.64878" lon="3.78497">
        <ele>180.4</ele>
        <time>2016-06-10T10:50:26Z</time>
      </trkpt>
      <trkpt lat="43.64885" lon="3.78502">
        <ele>180.8</ele>
        <time>2016-06-10T10:50:28Z</time>
      </trkpt>
      <trkpt lat="43.64893" lon="3.78508">
        <ele>181.7</ele>
        <time>2016-06-10T10:50:30Z</time>
      </trkpt>
      <trkpt lat="43.64899" lon="3.78519">
        <ele>181.8</ele>
        <time>2016-06-10T10:50:32Z</time>
      </trkpt>
      <trkpt lat="43.64906" lon="3.7853">
        <ele>182.5</ele>
        <time>2016-06-10T10:50:34Z</time>
      </trkpt>
      <trkpt lat="43.64913" lon="3.78539">
        <ele>183</ele>
        <time>2016-06-10T10:50:36Z</time>
      </trkpt>
      <trkpt lat="43.6492" lon="3.78546">
        <ele>182.8</ele>
        <time>2016-06-10T10:50:38Z</time>
      </trkpt>
      <trkpt lat="43.64927" lon="3.78555">
        <ele>183.3</ele>
        <time>2016-06-10T10:50:40Z</time>
      </trkpt>
      <trkpt lat="43.64932" lon="3.78562">
        <ele>183.7</ele>
        <time>2016-06-10T10:50:42Z</time>
      </trkpt>
      <trkpt lat="43.64936" lon="3.78572">
        <ele>183.6</ele>
        <time>2016-06-10T10:50:45Z</time>
      </trkpt>
      <trkpt lat="43.64942" lon="3.78578">
        <ele>183.3</ele>
        <time>2016-06-10T10:50:51Z</time>
      </trkpt>
      <trkpt lat="43.64945" lon="3.78571">
        <ele>183.1</ele>
        <time>2016-06-10T10:50:58Z</time>
      </trkpt>
      <trkpt lat="43.64949" lon="3.7856">
        <ele>182.5</ele>
        <time>2016-06-10T10:51:05Z</time>
      </trkpt>
      <trkpt lat="43.64956" lon="3.78556">
        <ele>182.3</ele>
        <time>2016-06-10T10:51:08Z</time>
      </trkpt>
      <trkpt lat="43.64964" lon="3.78552">
        <ele>181.9</ele>
        <time>2016-06-10T10:51:11Z</time>
      </trkpt>
      <trkpt lat="43.64966" lon="3.7854">
        <ele>177.7</ele>
        <time>2016-06-10T10:51:16Z</time>
      </trkpt>
      <trkpt lat="43.64971" lon="3.78529">
        <ele>177.2</ele>
        <time>2016-06-10T10:51:19Z</time>
      </trkpt>
      <trkpt lat="43.64978" lon="3.78519">
        <ele>176.6</ele>
        <time>2016-06-10T10:51:22Z</time>
      </trkpt>
      <trkpt lat="43.64984" lon="3.78514">
        <ele>176.1</ele>
        <time>2016-06-10T10:51:25Z</time>
      </trkpt>
      <trkpt lat="43.64987" lon="3.78505">
        <ele>174.6</ele>
        <time>2016-06-10T10:51:32Z</time>
      </trkpt>
      <trkpt lat="43.64994" lon="3.78503">
        <ele>173.7</ele>
        <time>2016-06-10T10:51:35Z</time>
      </trkpt>
      <trkpt lat="43.65002" lon="3.78501">
        <ele>172.5</ele>
        <time>2016-06-10T10:51:39Z</time>
      </trkpt>
      <trkpt lat="43.65012" lon="3.78497">
        <ele>171.1</ele>
        <time>2016-06-10T10:51:44Z</time>
      </trkpt>
      <trkpt lat="43.65019" lon="3.78494">
        <ele>170.4</ele>
        <time>2016-06-10T10:51:46Z</time>
      </trkpt>
      <trkpt lat="43.65027" lon="3.78494">
        <ele>169.3</ele>
        <time>2016-06-10T10:51:49Z</time>
      </trkpt>
      <trkpt lat="43.65035" lon="3.78492">
        <ele>167.3</ele>
        <time>2016-06-10T10:51:54Z</time>
      </trkpt>
      <trkpt lat="43.65042" lon="3.78492">
        <ele>165.9</ele>
        <time>2016-06-10T10:51:57Z</time>
      </trkpt>
      <trkpt lat="43.65048" lon="3.78501">
        <ele>163.9</ele>
        <time>2016-06-10T10:52:02Z</time>
      </trkpt>
      <trkpt lat="43.6505" lon="3.78511">
        <ele>162.8</ele>
        <time>2016-06-10T10:52:05Z</time>
      </trkpt>
      <trkpt lat="43.65056" lon="3.78521">
        <ele>161.2</ele>
        <time>2016-06-10T10:52:10Z</time>
      </trkpt>
      <trkpt lat="43.65061" lon="3.78531">
        <ele>159.6</ele>
        <time>2016-06-10T10:52:14Z</time>
      </trkpt>
      <trkpt lat="43.65066" lon="3.78545">
        <ele>154.2</ele>
        <time>2016-06-10T10:52:17Z</time>
      </trkpt>
      <trkpt lat="43.65068" lon="3.78556">
        <ele>153.5</ele>
        <time>2016-06-10T10:52:19Z</time>
      </trkpt>
      <trkpt lat="43.65071" lon="3.7857">
        <ele>152.3</ele>
        <time>2016-06-10T10:52:22Z</time>
      </trkpt>
      <trkpt lat="43.65073" lon="3.78581">
        <ele>151.8</ele>
        <time>2016-06-10T10:52:24Z</time>
      </trkpt>
      <trkpt lat="43.65074" lon="3.78594">
        <ele>151.1</ele>
        <time>2016-06-10T10:52:26Z</time>
      </trkpt>
      <trkpt lat="43.65077" lon="3.78608">
        <ele>144.4</ele>
        <time>2016-06-10T10:52:28Z</time>
      </trkpt>
      <trkpt lat="43.65076" lon="3.7862">
        <ele>144</ele>
        <time>2016-06-10T10:52:30Z</time>
      </trkpt>
      <trkpt lat="43.65076" lon="3.78633">
        <ele>143.7</ele>
        <time>2016-06-10T10:52:33Z</time>
      </trkpt>
      <trkpt lat="43.65073" lon="3.78646">
        <ele>143.4</ele>
        <time>2016-06-10T10:52:36Z</time>
      </trkpt>
      <trkpt lat="43.65071" lon="3.78657">
        <ele>142.8</ele>
        <time>2016-06-10T10:52:40Z</time>
      </trkpt>
      <trkpt lat="43.65073" lon="3.78671">
        <ele>142.3</ele>
        <time>2016-06-10T10:52:44Z</time>
      </trkpt>
      <trkpt lat="43.65073" lon="3.78684">
        <ele>141.9</ele>
        <time>2016-06-10T10:52:47Z</time>
      </trkpt>
      <trkpt lat="43.65074" lon="3.78695">
        <ele>139.1</ele>
        <time>2016-06-10T10:52:49Z</time>
      </trkpt>
      <trkpt lat="43.65068" lon="3.78707">
        <ele>135.7</ele>
        <time>2016-06-10T10:52:51Z</time>
      </trkpt>
      <trkpt lat="43.65063" lon="3.78715">
        <ele>135.5</ele>
        <time>2016-06-10T10:52:53Z</time>
      </trkpt>
      <trkpt lat="43.65056" lon="3.78728">
        <ele>135.1</ele>
        <time>2016-06-10T10:52:56Z</time>
      </trkpt>
      <trkpt lat="43.65048" lon="3.78738">
        <ele>134.9</ele>
        <time>2016-06-10T10:52:58Z</time>
      </trkpt>
      <trkpt lat="43.65042" lon="3.78744">
        <ele>134.7</ele>
        <time>2016-06-10T10:53:00Z</time>
      </trkpt>
      <trkpt lat="43.65037" lon="3.78751">
        <ele>134.7</ele>
        <time>2016-06-10T10:53:03Z</time>
      </trkpt>
      <trkpt lat="43.65037" lon="3.78766">
        <ele>134.7</ele>
        <time>2016-06-10T10:53:07Z</time>
      </trkpt>
      <trkpt lat="43.65039" lon="3.78778">
        <ele>134.6</ele>
        <time>2016-06-10T10:53:10Z</time>
      </trkpt>
      <trkpt lat="43.65034" lon="3.78787">
        <ele>134.3</ele>
        <time>2016-06-10T10:53:13Z</time>
      </trkpt>
      <trkpt lat="43.65027" lon="3.78796">
        <ele>134.2</ele>
        <time>2016-06-10T10:53:15Z</time>
      </trkpt>
      <trkpt lat="43.65019" lon="3.78803">
        <ele>134.2</ele>
        <time>2016-06-10T10:53:17Z</time>
      </trkpt>
      <trkpt lat="43.6501" lon="3.78811">
        <ele>134.1</ele>
        <time>2016-06-10T10:53:20Z</time>
      </trkpt>
      <trkpt lat="43.65005" lon="3.78819">
        <ele>134.1</ele>
        <time>2016-06-10T10:53:22Z</time>
      </trkpt>
      <trkpt lat="43.65001" lon="3.78828">
        <ele>134.4</ele>
        <time>2016-06-10T10:53:24Z</time>
      </trkpt>
      <trkpt lat="43.64993" lon="3.78836">
        <ele>133.9</ele>
        <time>2016-06-10T10:53:26Z</time>
      </trkpt>
      <trkpt lat="43.64982" lon="3.78847">
        <ele>132.2</ele>
        <time>2016-06-10T10:53:28Z</time>
      </trkpt>
      <trkpt lat="43.64972" lon="3.78856">
        <ele>131.2</ele>
        <time>2016-06-10T10:53:30Z</time>
      </trkpt>
      <trkpt lat="43.64963" lon="3.78865">
        <ele>130.4</ele>
        <time>2016-06-10T10:53:32Z</time>
      </trkpt>
      <trkpt lat="43.64962" lon="3.78868">
        <ele>129.5</ele>
        <time>2016-06-10T10:53:39Z</time>
      </trkpt>
      <trkpt lat="43.64971" lon="3.78868">
        <ele>127.5</ele>
        <time>2016-06-10T10:53:42Z</time>
      </trkpt>
      <trkpt lat="43.64978" lon="3.78865">
        <ele>125.3</ele>
        <time>2016-06-10T10:53:44Z</time>
      </trkpt>
      <trkpt lat="43.64986" lon="3.78867">
        <ele>125.2</ele>
        <time>2016-06-10T10:53:46Z</time>
      </trkpt>
      <trkpt lat="43.64993" lon="3.78871">
        <ele>125.1</ele>
        <time>2016-06-10T10:53:49Z</time>
      </trkpt>
      <trkpt lat="43.64997" lon="3.7888">
        <ele>125.3</ele>
        <time>2016-06-10T10:53:52Z</time>
      </trkpt>
      <trkpt lat="43.65" lon="3.7889">
        <ele>125.3</ele>
        <time>2016-06-10T10:53:55Z</time>
      </trkpt>
      <trkpt lat="43.65001" lon="3.78901">
        <ele>125.4</ele>
        <time>2016-06-10T10:53:57Z</time>
      </trkpt>
      <trkpt lat="43.65004" lon="3.78914">
        <ele>125.7</ele>
        <time>2016-06-10T10:53:59Z</time>
      </trkpt>
      <trkpt lat="43.65004" lon="3.78924">
        <ele>125.9</ele>
        <time>2016-06-10T10:54:03Z</time>
      </trkpt>
      <trkpt lat="43.65006" lon="3.78934">
        <ele>125.8</ele>
        <time>2016-06-10T10:54:07Z</time>
      </trkpt>
      <trkpt lat="43.65004" lon="3.78946">
        <ele>125.2</ele>
        <time>2016-06-10T10:54:11Z</time>
      </trkpt>
      <trkpt lat="43.65002" lon="3.78953">
        <ele>124.1</ele>
        <time>2016-06-10T10:54:18Z</time>
      </trkpt>
      <trkpt lat="43.65001" lon="3.78959">
        <ele>123.1</ele>
        <time>2016-06-10T10:54:26Z</time>
      </trkpt>
      <trkpt lat="43.64998" lon="3.78963">
        <ele>121.5</ele>
        <time>2016-06-10T10:54:33Z</time>
      </trkpt>
      <trkpt lat="43.64993" lon="3.78978">
        <ele>119.9</ele>
        <time>2016-06-10T10:54:36Z</time>
      </trkpt>
      <trkpt lat="43.64983" lon="3.78983">
        <ele>117.7</ele>
        <time>2016-06-10T10:54:38Z</time>
      </trkpt>
      <trkpt lat="43.64974" lon="3.7899">
        <ele>117.2</ele>
        <time>2016-06-10T10:54:40Z</time>
      </trkpt>
      <trkpt lat="43.64966" lon="3.78995">
        <ele>116.6</ele>
        <time>2016-06-10T10:54:42Z</time>
      </trkpt>
      <trkpt lat="43.64967" lon="3.78995">
        <ele>114.4</ele>
        <time>2016-06-10T10:54:56Z</time>
      </trkpt>
      <trkpt lat="43.64973" lon="3.78988">
        <ele>113.7</ele>
        <time>2016-06-10T10:55:00Z</time>
      </trkpt>
      <trkpt lat="43.6498" lon="3.78981">
        <ele>113.4</ele>
        <time>2016-06-10T10:55:03Z</time>
      </trkpt>
      <trkpt lat="43.64987" lon="3.78973">
        <ele>113.3</ele>
        <time>2016-06-10T10:55:07Z</time>
      </trkpt>
      <trkpt lat="43.64992" lon="3.78967">
        <ele>113.2</ele>
        <time>2016-06-10T10:55:10Z</time>
      </trkpt>
      <trkpt lat="43.64999" lon="3.78956">
        <ele>113.1</ele>
        <time>2016-06-10T10:55:13Z</time>
      </trkpt>
      <trkpt lat="43.65007" lon="3.7895">
        <ele>113</ele>
        <time>2016-06-10T10:55:16Z</time>
      </trkpt>
      <trkpt lat="43.65016" lon="3.78944">
        <ele>113.1</ele>
        <time>2016-06-10T10:55:19Z</time>
      </trkpt>
      <trkpt lat="43.65022" lon="3.78936">
        <ele>112.9</ele>
        <time>2016-06-10T10:55:21Z</time>
      </trkpt>
      <trkpt lat="43.6503" lon="3.78928">
        <ele>112.9</ele>
        <time>2016-06-10T10:55:23Z</time>
      </trkpt>
      <trkpt lat="43.65038" lon="3.78922">
        <ele>112.7</ele>
        <time>2016-06-10T10:55:26Z</time>
      </trkpt>
      <trkpt lat="43.65047" lon="3.78915">
        <ele>112.6</ele>
        <time>2016-06-10T10:55:29Z</time>
      </trkpt>
      <trkpt lat="43.65052" lon="3.78906">
        <ele>112.7</ele>
        <time>2016-06-10T10:55:31Z</time>
      </trkpt>
      <trkpt lat="43.65057" lon="3.78895">
        <ele>112.6</ele>
        <time>2016-06-10T10:55:33Z</time>
      </trkpt>
      <trkpt lat="43.65063" lon="3.78889">
        <ele>112.5</ele>
        <time>2016-06-10T10:55:36Z</time>
      </trkpt>
      <trkpt lat="43.65068" lon="3.789">
        <ele>112.5</ele>
        <time>2016-06-10T10:55:39Z</time>
      </trkpt>
      <trkpt lat="43.65072" lon="3.7891">
        <ele>112.6</ele>
        <time>2016-06-10T10:55:41Z</time>
      </trkpt>
      <trkpt lat="43.65076" lon="3.78919">
        <ele>112.7</ele>
        <time>2016-06-10T10:55:43Z</time>
      </trkpt>
      <trkpt lat="43.6508" lon="3.78929">
        <ele>112.7</ele>
        <time>2016-06-10T10:55:45Z</time>
      </trkpt>
      <trkpt lat="43.65085" lon="3.78939">
        <ele>113.3</ele>
        <time>2016-06-10T10:55:47Z</time>
      </trkpt>
      <trkpt lat="43.65089" lon="3.78949">
        <ele>114.1</ele>
        <time>2016-06-10T10:55:49Z</time>
      </trkpt>
      <trkpt lat="43.65093" lon="3.78962">
        <ele>114.9</ele>
        <time>2016-06-10T10:55:51Z</time>
      </trkpt>
      <trkpt lat="43.65096" lon="3.78977">
        <ele>114.7</ele>
        <time>2016-06-10T10:55:53Z</time>
      </trkpt>
      <trkpt lat="43.65098" lon="3.78992">
        <ele>113.7</ele>
        <time>2016-06-10T10:55:55Z</time>
      </trkpt>
      <trkpt lat="43.65099" lon="3.79006">
        <ele>113.3</ele>
        <time>2016-06-10T10:55:57Z</time>
      </trkpt>
      <trkpt lat="43.65096" lon="3.79021">
        <ele>114.3</ele>
        <time>2016-06-10T10:55:59Z</time>
      </trkpt>
      <trkpt lat="43.65092" lon="3.79033">
        <ele>115.2</ele>
        <time>2016-06-10T10:56:01Z</time>
      </trkpt>
      <trkpt lat="43.65088" lon="3.79044">
        <ele>116.3</ele>
        <time>2016-06-10T10:56:03Z</time>
      </trkpt>
      <trkpt lat="43.6508" lon="3.79056">
        <ele>116.5</ele>
        <time>2016-06-10T10:56:05Z</time>
      </trkpt>
      <trkpt lat="43.65073" lon="3.79065">
        <ele>115.9</ele>
        <time>2016-06-10T10:56:07Z</time>
      </trkpt>
      <trkpt lat="43.65069" lon="3.79074">
        <ele>115.5</ele>
        <time>2016-06-10T10:56:09Z</time>
      </trkpt>
      <trkpt lat="43.65075" lon="3.79078">
        <ele>115.5</ele>
        <time>2016-06-10T10:56:16Z</time>
      </trkpt>
      <trkpt lat="43.65082" lon="3.79074">
        <ele>115.9</ele>
        <time>2016-06-10T10:56:20Z</time>
      </trkpt>
      <trkpt lat="43.6509" lon="3.79071">
        <ele>116.2</ele>
        <time>2016-06-10T10:56:23Z</time>
      </trkpt>
      <trkpt lat="43.651" lon="3.79066">
        <ele>116.3</ele>
        <time>2016-06-10T10:56:26Z</time>
      </trkpt>
      <trkpt lat="43.65107" lon="3.79062">
        <ele>116.3</ele>
        <time>2016-06-10T10:56:28Z</time>
      </trkpt>
      <trkpt lat="43.65115" lon="3.79056">
        <ele>115.3</ele>
        <time>2016-06-10T10:56:30Z</time>
      </trkpt>
      <trkpt lat="43.65123" lon="3.79051">
        <ele>115.7</ele>
        <time>2016-06-10T10:56:32Z</time>
      </trkpt>
      <trkpt lat="43.6513" lon="3.79051">
        <ele>115.7</ele>
        <time>2016-06-10T10:56:34Z</time>
      </trkpt>
      <trkpt lat="43.65139" lon="3.79051">
        <ele>116.1</ele>
        <time>2016-06-10T10:56:36Z</time>
      </trkpt>
      <trkpt lat="43.65147" lon="3.79053">
        <ele>117.3</ele>
        <time>2016-06-10T10:56:38Z</time>
      </trkpt>
      <trkpt lat="43.65155" lon="3.79052">
        <ele>117.9</ele>
        <time>2016-06-10T10:56:40Z</time>
      </trkpt>
      <trkpt lat="43.65166" lon="3.79051">
        <ele>117.6</ele>
        <time>2016-06-10T10:56:42Z</time>
      </trkpt>
      <trkpt lat="43.65175" lon="3.79051">
        <ele>118.3</ele>
        <time>2016-06-10T10:56:44Z</time>
      </trkpt>
      <trkpt lat="43.65184" lon="3.7905">
        <ele>119.1</ele>
        <time>2016-06-10T10:56:46Z</time>
      </trkpt>
      <trkpt lat="43.65192" lon="3.79051">
        <ele>120.4</ele>
        <time>2016-06-10T10:56:48Z</time>
      </trkpt>
      <trkpt lat="43.65198" lon="3.7906">
        <ele>120.2</ele>
        <time>2016-06-10T10:56:51Z</time>
      </trkpt>
      <trkpt lat="43.65204" lon="3.79068">
        <ele>121</ele>
        <time>2016-06-10T10:56:53Z</time>
      </trkpt>
      <trkpt lat="43.65213" lon="3.7907">
        <ele>121.1</ele>
        <time>2016-06-10T10:56:57Z</time>
      </trkpt>
      <trkpt lat="43.65224" lon="3.79072">
        <ele>120.3</ele>
        <time>2016-06-10T10:57:00Z</time>
      </trkpt>
      <trkpt lat="43.65232" lon="3.79074">
        <ele>120.3</ele>
        <time>2016-06-10T10:57:02Z</time>
      </trkpt>
      <trkpt lat="43.65239" lon="3.79081">
        <ele>120.3</ele>
        <time>2016-06-10T10:57:05Z</time>
      </trkpt>
      <trkpt lat="43.65247" lon="3.79086">
        <ele>120.5</ele>
        <time>2016-06-10T10:57:08Z</time>
      </trkpt>
      <trkpt lat="43.65255" lon="3.79093">
        <ele>120.6</ele>
        <time>2016-06-10T10:57:12Z</time>
      </trkpt>
      <trkpt lat="43.65263" lon="3.79098">
        <ele>121.3</ele>
        <time>2016-06-10T10:57:18Z</time>
      </trkpt>
      <trkpt lat="43.65273" lon="3.79097">
        <ele>121.7</ele>
        <time>2016-06-10T10:57:21Z</time>
      </trkpt>
      <trkpt lat="43.65282" lon="3.79094">
        <ele>122.2</ele>
        <time>2016-06-10T10:57:24Z</time>
      </trkpt>
      <trkpt lat="43.65291" lon="3.79094">
        <ele>122.9</ele>
        <time>2016-06-10T10:57:27Z</time>
      </trkpt>
      <trkpt lat="43.653" lon="3.79096">
        <ele>123.3</ele>
        <time>2016-06-10T10:57:30Z</time>
      </trkpt>
      <trkpt lat="43.65308" lon="3.791">
        <ele>124</ele>
        <time>2016-06-10T10:57:34Z</time>
      </trkpt>
      <trkpt lat="43.65315" lon="3.79107">
        <ele>124.8</ele>
        <time>2016-06-10T10:57:38Z</time>
      </trkpt>
      <trkpt lat="43.65323" lon="3.79112">
        <ele>125.5</ele>
        <time>2016-06-10T10:57:43Z</time>
      </trkpt>
      <trkpt lat="43.65331" lon="3.79114">
        <ele>126.9</ele>
        <time>2016-06-10T10:57:49Z</time>
      </trkpt>
      <trkpt lat="43.65338" lon="3.79113">
        <ele>127.5</ele>
        <time>2016-06-10T10:57:52Z</time>
      </trkpt>
      <trkpt lat="43.65346" lon="3.79116">
        <ele>128</ele>
        <time>2016-06-10T10:57:55Z</time>
      </trkpt>
      <trkpt lat="43.65353" lon="3.79116">
        <ele>128.4</ele>
        <time>2016-06-10T10:57:57Z</time>
      </trkpt>
      <trkpt lat="43.65363" lon="3.79118">
        <ele>128.8</ele>
        <time>2016-06-10T10:57:59Z</time>
      </trkpt>
      <trkpt lat="43.65373" lon="3.79119">
        <ele>130.6</ele>
        <time>2016-06-10T10:58:02Z</time>
      </trkpt>
      <trkpt lat="43.65382" lon="3.79121">
        <ele>132.8</ele>
        <time>2016-06-10T10:58:04Z</time>
      </trkpt>
      <trkpt lat="43.65391" lon="3.79124">
        <ele>133.8</ele>
        <time>2016-06-10T10:58:06Z</time>
      </trkpt>
      <trkpt lat="43.654" lon="3.79128">
        <ele>135.7</ele>
        <time>2016-06-10T10:58:08Z</time>
      </trkpt>
      <trkpt lat="43.65409" lon="3.79129">
        <ele>137</ele>
        <time>2016-06-10T10:58:10Z</time>
      </trkpt>
      <trkpt lat="43.6542" lon="3.79132">
        <ele>137.5</ele>
        <time>2016-06-10T10:58:12Z</time>
      </trkpt>
      <trkpt lat="43.65429" lon="3.79134">
        <ele>136.1</ele>
        <time>2016-06-10T10:58:14Z</time>
      </trkpt>
      <trkpt lat="43.6544" lon="3.79137">
        <ele>134.8</ele>
        <time>2016-06-10T10:58:16Z</time>
      </trkpt>
      <trkpt lat="43.65452" lon="3.79141">
        <ele>135.3</ele>
        <time>2016-06-10T10:58:18Z</time>
      </trkpt>
      <trkpt lat="43.6546" lon="3.79145">
        <ele>135.6</ele>
        <time>2016-06-10T10:58:20Z</time>
      </trkpt>
      <trkpt lat="43.65467" lon="3.79143">
        <ele>135.5</ele>
        <time>2016-06-10T10:58:22Z</time>
      </trkpt>
      <trkpt lat="43.65478" lon="3.79143">
        <ele>135.3</ele>
        <time>2016-06-10T10:58:25Z</time>
      </trkpt>
      <trkpt lat="43.65485" lon="3.79143">
        <ele>135.3</ele>
        <time>2016-06-10T10:58:27Z</time>
      </trkpt>
      <trkpt lat="43.65493" lon="3.79148">
        <ele>135.3</ele>
        <time>2016-06-10T10:58:29Z</time>
      </trkpt>
      <trkpt lat="43.65501" lon="3.79149">
        <ele>135.2</ele>
        <time>2016-06-10T10:58:31Z</time>
      </trkpt>
      <trkpt lat="43.65508" lon="3.79149">
        <ele>134.6</ele>
        <time>2016-06-10T10:58:33Z</time>
      </trkpt>
      <trkpt lat="43.65517" lon="3.7915">
        <ele>134.3</ele>
        <time>2016-06-10T10:58:35Z</time>
      </trkpt>
      <trkpt lat="43.65525" lon="3.79151">
        <ele>134</ele>
        <time>2016-06-10T10:58:37Z</time>
      </trkpt>
      <trkpt lat="43.65532" lon="3.79149">
        <ele>133.8</ele>
        <time>2016-06-10T10:58:39Z</time>
      </trkpt>
      <trkpt lat="43.6554" lon="3.7915">
        <ele>133.4</ele>
        <time>2016-06-10T10:58:41Z</time>
      </trkpt>
      <trkpt lat="43.6555" lon="3.79155">
        <ele>130.7</ele>
        <time>2016-06-10T10:58:43Z</time>
      </trkpt>
      <trkpt lat="43.65557" lon="3.79166">
        <ele>130.6</ele>
        <time>2016-06-10T10:58:45Z</time>
      </trkpt>
      <trkpt lat="43.65562" lon="3.79178">
        <ele>130.8</ele>
        <time>2016-06-10T10:58:47Z</time>
      </trkpt>
      <trkpt lat="43.65568" lon="3.79186">
        <ele>130.9</ele>
        <time>2016-06-10T10:58:51Z</time>
      </trkpt>
      <trkpt lat="43.65575" lon="3.79192">
        <ele>130.7</ele>
        <time>2016-06-10T10:58:54Z</time>
      </trkpt>
      <trkpt lat="43.65583" lon="3.79197">
        <ele>130.7</ele>
        <time>2016-06-10T10:58:57Z</time>
      </trkpt>
      <trkpt lat="43.6559" lon="3.79205">
        <ele>130.7</ele>
        <time>2016-06-10T10:59:00Z</time>
      </trkpt>
      <trkpt lat="43.65597" lon="3.79212">
        <ele>130.8</ele>
        <time>2016-06-10T10:59:04Z</time>
      </trkpt>
      <trkpt lat="43.65605" lon="3.79219">
        <ele>131.2</ele>
        <time>2016-06-10T10:59:08Z</time>
      </trkpt>
      <trkpt lat="43.65613" lon="3.79226">
        <ele>131.6</ele>
        <time>2016-06-10T10:59:11Z</time>
      </trkpt>
      <trkpt lat="43.6562" lon="3.79229">
        <ele>131.7</ele>
        <time>2016-06-10T10:59:14Z</time>
      </trkpt>
      <trkpt lat="43.65627" lon="3.79234">
        <ele>131.9</ele>
        <time>2016-06-10T10:59:17Z</time>
      </trkpt>
      <trkpt lat="43.65633" lon="3.7924">
        <ele>132</ele>
        <time>2016-06-10T10:59:20Z</time>
      </trkpt>
      <trkpt lat="43.65641" lon="3.79246">
        <ele>132.2</ele>
        <time>2016-06-10T10:59:24Z</time>
      </trkpt>
      <trkpt lat="43.65642" lon="3.79257">
        <ele>132.7</ele>
        <time>2016-06-10T10:59:27Z</time>
      </trkpt>
      <trkpt lat="43.65646" lon="3.79267">
        <ele>133.3</ele>
        <time>2016-06-10T10:59:31Z</time>
      </trkpt>
      <trkpt lat="43.65655" lon="3.7927">
        <ele>134</ele>
        <time>2016-06-10T10:59:36Z</time>
      </trkpt>
      <trkpt lat="43.65661" lon="3.79277">
        <ele>134.1</ele>
        <time>2016-06-10T10:59:38Z</time>
      </trkpt>
      <trkpt lat="43.65668" lon="3.79283">
        <ele>134.5</ele>
        <time>2016-06-10T10:59:42Z</time>
      </trkpt>
      <trkpt lat="43.65676" lon="3.79284">
        <ele>134.8</ele>
        <time>2016-06-10T10:59:47Z</time>
      </trkpt>
      <trkpt lat="43.65684" lon="3.79286">
        <ele>135</ele>
        <time>2016-06-10T10:59:51Z</time>
      </trkpt>
      <trkpt lat="43.6569" lon="3.79292">
        <ele>136.2</ele>
        <time>2016-06-10T10:59:58Z</time>
      </trkpt>
      <trkpt lat="43.657" lon="3.79297">
        <ele>136.9</ele>
        <time>2016-06-10T11:00:02Z</time>
      </trkpt>
      <trkpt lat="43.65709" lon="3.79305">
        <ele>137.4</ele>
        <time>2016-06-10T11:00:05Z</time>
      </trkpt>
      <trkpt lat="43.65717" lon="3.79306">
        <ele>138.8</ele>
        <time>2016-06-10T11:00:08Z</time>
      </trkpt>
      <trkpt lat="43.65726" lon="3.79309">
        <ele>140.2</ele>
        <time>2016-06-10T11:00:10Z</time>
      </trkpt>
      <trkpt lat="43.65733" lon="3.79319">
        <ele>140.4</ele>
        <time>2016-06-10T11:00:12Z</time>
      </trkpt>
      <trkpt lat="43.65739" lon="3.79327">
        <ele>140.3</ele>
        <time>2016-06-10T11:00:14Z</time>
      </trkpt>
      <trkpt lat="43.65749" lon="3.79336">
        <ele>138.6</ele>
        <time>2016-06-10T11:00:16Z</time>
      </trkpt>
      <trkpt lat="43.65758" lon="3.79346">
        <ele>136.9</ele>
        <time>2016-06-10T11:00:18Z</time>
      </trkpt>
      <trkpt lat="43.65763" lon="3.79356">
        <ele>136.1</ele>
        <time>2016-06-10T11:00:20Z</time>
      </trkpt>
      <trkpt lat="43.6577" lon="3.79366">
        <ele>136.5</ele>
        <time>2016-06-10T11:00:22Z</time>
      </trkpt>
      <trkpt lat="43.65775" lon="3.79375">
        <ele>136.6</ele>
        <time>2016-06-10T11:00:24Z</time>
      </trkpt>
      <trkpt lat="43.65783" lon="3.79385">
        <ele>136.4</ele>
        <time>2016-06-10T11:00:26Z</time>
      </trkpt>
      <trkpt lat="43.6579" lon="3.79387">
        <ele>136.2</ele>
        <time>2016-06-10T11:00:28Z</time>
      </trkpt>
      <trkpt lat="43.65797" lon="3.79395">
        <ele>136</ele>
        <time>2016-06-10T11:00:30Z</time>
      </trkpt>
      <trkpt lat="43.65804" lon="3.79404">
        <ele>136</ele>
        <time>2016-06-10T11:00:33Z</time>
      </trkpt>
      <trkpt lat="43.65809" lon="3.79413">
        <ele>136.1</ele>
        <time>2016-06-10T11:00:35Z</time>
      </trkpt>
      <trkpt lat="43.65815" lon="3.79421">
        <ele>136.4</ele>
        <time>2016-06-10T11:00:38Z</time>
      </trkpt>
      <trkpt lat="43.65824" lon="3.79416">
        <ele>138.5</ele>
        <time>2016-06-10T11:00:41Z</time>
      </trkpt>
      <trkpt lat="43.65833" lon="3.79409">
        <ele>139.1</ele>
        <time>2016-06-10T11:00:43Z</time>
      </trkpt>
      <trkpt lat="43.65837" lon="3.794">
        <ele>138</ele>
        <time>2016-06-10T11:00:45Z</time>
      </trkpt>
      <trkpt lat="43.65842" lon="3.79391">
        <ele>137.2</ele>
        <time>2016-06-10T11:00:47Z</time>
      </trkpt>
      <trkpt lat="43.65852" lon="3.79383">
        <ele>135.7</ele>
        <time>2016-06-10T11:00:49Z</time>
      </trkpt>
      <trkpt lat="43.65857" lon="3.79373">
        <ele>133.2</ele>
        <time>2016-06-10T11:00:51Z</time>
      </trkpt>
      <trkpt lat="43.65864" lon="3.79365">
        <ele>131.7</ele>
        <time>2016-06-10T11:00:53Z</time>
      </trkpt>
      <trkpt lat="43.65876" lon="3.79358">
        <ele>133</ele>
        <time>2016-06-10T11:00:55Z</time>
      </trkpt>
      <trkpt lat="43.65885" lon="3.79356">
        <ele>133.8</ele>
        <time>2016-06-10T11:00:57Z</time>
      </trkpt>
      <trkpt lat="43.65893" lon="3.79346">
        <ele>133.8</ele>
        <time>2016-06-10T11:01:00Z</time>
      </trkpt>
      <trkpt lat="43.659" lon="3.79338">
        <ele>133.7</ele>
        <time>2016-06-10T11:01:02Z</time>
      </trkpt>
      <trkpt lat="43.65911" lon="3.79333">
        <ele>135.2</ele>
        <time>2016-06-10T11:01:04Z</time>
      </trkpt>
      <trkpt lat="43.65921" lon="3.79329">
        <ele>135.9</ele>
        <time>2016-06-10T11:01:06Z</time>
      </trkpt>
      <trkpt lat="43.6593" lon="3.79329">
        <ele>136.1</ele>
        <time>2016-06-10T11:01:08Z</time>
      </trkpt>
      <trkpt lat="43.65941" lon="3.79327">
        <ele>136</ele>
        <time>2016-06-10T11:01:11Z</time>
      </trkpt>
      <trkpt lat="43.6595" lon="3.79328">
        <ele>137</ele>
        <time>2016-06-10T11:01:13Z</time>
      </trkpt>
      <trkpt lat="43.65959" lon="3.7933">
        <ele>136.4</ele>
        <time>2016-06-10T11:01:15Z</time>
      </trkpt>
      <trkpt lat="43.65967" lon="3.79332">
        <ele>137.1</ele>
        <time>2016-06-10T11:01:17Z</time>
      </trkpt>
      <trkpt lat="43.65975" lon="3.79337">
        <ele>138.6</ele>
        <time>2016-06-10T11:01:19Z</time>
      </trkpt>
      <trkpt lat="43.65982" lon="3.7934">
        <ele>138.6</ele>
        <time>2016-06-10T11:01:21Z</time>
      </trkpt>
      <trkpt lat="43.65991" lon="3.79344">
        <ele>138.2</ele>
        <time>2016-06-10T11:01:23Z</time>
      </trkpt>
      <trkpt lat="43.65999" lon="3.79344">
        <ele>137.5</ele>
        <time>2016-06-10T11:01:25Z</time>
      </trkpt>
      <trkpt lat="43.66008" lon="3.79347">
        <ele>137.2</ele>
        <time>2016-06-10T11:01:27Z</time>
      </trkpt>
      <trkpt lat="43.66013" lon="3.79357">
        <ele>137</ele>
        <time>2016-06-10T11:01:29Z</time>
      </trkpt>
      <trkpt lat="43.66014" lon="3.79367">
        <ele>137</ele>
        <time>2016-06-10T11:01:31Z</time>
      </trkpt>
      <trkpt lat="43.66018" lon="3.79378">
        <ele>137.2</ele>
        <time>2016-06-10T11:01:33Z</time>
      </trkpt>
      <trkpt lat="43.66021" lon="3.79389">
        <ele>137.3</ele>
        <time>2016-06-10T11:01:35Z</time>
      </trkpt>
      <trkpt lat="43.66024" lon="3.79399">
        <ele>137.2</ele>
        <time>2016-06-10T11:01:37Z</time>
      </trkpt>
      <trkpt lat="43.66025" lon="3.7941">
        <ele>137.1</ele>
        <time>2016-06-10T11:01:39Z</time>
      </trkpt>
      <trkpt lat="43.66026" lon="3.79423">
        <ele>136.9</ele>
        <time>2016-06-10T11:01:42Z</time>
      </trkpt>
      <trkpt lat="43.66028" lon="3.79433">
        <ele>136.5</ele>
        <time>2016-06-10T11:01:45Z</time>
      </trkpt>
      <trkpt lat="43.66029" lon="3.79449">
        <ele>136.2</ele>
        <time>2016-06-10T11:01:48Z</time>
      </trkpt>
      <trkpt lat="43.6603" lon="3.79459">
        <ele>136.1</ele>
        <time>2016-06-10T11:01:50Z</time>
      </trkpt>
      <trkpt lat="43.6603" lon="3.79471">
        <ele>136.2</ele>
        <time>2016-06-10T11:01:53Z</time>
      </trkpt>
      <trkpt lat="43.66029" lon="3.79484">
        <ele>136.2</ele>
        <time>2016-06-10T11:01:57Z</time>
      </trkpt>
      <trkpt lat="43.66029" lon="3.79495">
        <ele>136.3</ele>
        <time>2016-06-10T11:02:00Z</time>
      </trkpt>
      <trkpt lat="43.66028" lon="3.79506">
        <ele>136.5</ele>
        <time>2016-06-10T11:02:03Z</time>
      </trkpt>
      <trkpt lat="43.66028" lon="3.79517">
        <ele>136.7</ele>
        <time>2016-06-10T11:02:06Z</time>
      </trkpt>
      <trkpt lat="43.66029" lon="3.79528">
        <ele>137</ele>
        <time>2016-06-10T11:02:09Z</time>
      </trkpt>
      <trkpt lat="43.6603" lon="3.79539">
        <ele>137.5</ele>
        <time>2016-06-10T11:02:12Z</time>
      </trkpt>
      <trkpt lat="43.66031" lon="3.79552">
        <ele>137.9</ele>
        <time>2016-06-10T11:02:15Z</time>
      </trkpt>
      <trkpt lat="43.66032" lon="3.79566">
        <ele>138.4</ele>
        <time>2016-06-10T11:02:19Z</time>
      </trkpt>
      <trkpt lat="43.66034" lon="3.79578">
        <ele>138.8</ele>
        <time>2016-06-10T11:02:22Z</time>
      </trkpt>
      <trkpt lat="43.66034" lon="3.79589">
        <ele>138.9</ele>
        <time>2016-06-10T11:02:25Z</time>
      </trkpt>
      <trkpt lat="43.66033" lon="3.79603">
        <ele>139.2</ele>
        <time>2016-06-10T11:02:28Z</time>
      </trkpt>
      <trkpt lat="43.66033" lon="3.79613">
        <ele>139.5</ele>
        <time>2016-06-10T11:02:30Z</time>
      </trkpt>
      <trkpt lat="43.66032" lon="3.79623">
        <ele>139.8</ele>
        <time>2016-06-10T11:02:33Z</time>
      </trkpt>
      <trkpt lat="43.66029" lon="3.79636">
        <ele>140</ele>
        <time>2016-06-10T11:02:37Z</time>
      </trkpt>
      <trkpt lat="43.66026" lon="3.79646">
        <ele>140.1</ele>
        <time>2016-06-10T11:02:39Z</time>
      </trkpt>
      <trkpt lat="43.66023" lon="3.79658">
        <ele>140.2</ele>
        <time>2016-06-10T11:02:42Z</time>
      </trkpt>
      <trkpt lat="43.6602" lon="3.7967">
        <ele>140.8</ele>
        <time>2016-06-10T11:02:46Z</time>
      </trkpt>
      <trkpt lat="43.66019" lon="3.79681">
        <ele>141.1</ele>
        <time>2016-06-10T11:02:49Z</time>
      </trkpt>
      <trkpt lat="43.66022" lon="3.79683">
        <ele>141.9</ele>
        <time>2016-06-10T11:02:56Z</time>
      </trkpt>
      <trkpt lat="43.66025" lon="3.79671">
        <ele>142.3</ele>
        <time>2016-06-10T11:02:59Z</time>
      </trkpt>
      <trkpt lat="43.66029" lon="3.79661">
        <ele>142.7</ele>
        <time>2016-06-10T11:03:02Z</time>
      </trkpt>
      <trkpt lat="43.66034" lon="3.79654">
        <ele>142.9</ele>
        <time>2016-06-10T11:03:04Z</time>
      </trkpt>
      <trkpt lat="43.66039" lon="3.79645">
        <ele>143</ele>
        <time>2016-06-10T11:03:06Z</time>
      </trkpt>
      <trkpt lat="43.66047" lon="3.79635">
        <ele>142.9</ele>
        <time>2016-06-10T11:03:09Z</time>
      </trkpt>
      <trkpt lat="43.66053" lon="3.79628">
        <ele>142.8</ele>
        <time>2016-06-10T11:03:11Z</time>
      </trkpt>
      <trkpt lat="43.66061" lon="3.79622">
        <ele>142.7</ele>
        <time>2016-06-10T11:03:14Z</time>
      </trkpt>
      <trkpt lat="43.66068" lon="3.79619">
        <ele>142.7</ele>
        <time>2016-06-10T11:03:16Z</time>
      </trkpt>
      <trkpt lat="43.66078" lon="3.79621">
        <ele>143</ele>
        <time>2016-06-10T11:03:19Z</time>
      </trkpt>
      <trkpt lat="43.66085" lon="3.79629">
        <ele>143.2</ele>
        <time>2016-06-10T11:03:22Z</time>
      </trkpt>
      <trkpt lat="43.66091" lon="3.79637">
        <ele>143.5</ele>
        <time>2016-06-10T11:03:24Z</time>
      </trkpt>
      <trkpt lat="43.66098" lon="3.79644">
        <ele>146.2</ele>
        <time>2016-06-10T11:03:26Z</time>
      </trkpt>
      <trkpt lat="43.66104" lon="3.79652">
        <ele>148.5</ele>
        <time>2016-06-10T11:03:28Z</time>
      </trkpt>
      <trkpt lat="43.66111" lon="3.79661">
        <ele>149.9</ele>
        <time>2016-06-10T11:03:30Z</time>
      </trkpt>
      <trkpt lat="43.66117" lon="3.79668">
        <ele>151</ele>
        <time>2016-06-10T11:03:32Z</time>
      </trkpt>
      <trkpt lat="43.66123" lon="3.79675">
        <ele>152.1</ele>
        <time>2016-06-10T11:03:34Z</time>
      </trkpt>
      <trkpt lat="43.66129" lon="3.79682">
        <ele>152.2</ele>
        <time>2016-06-10T11:03:36Z</time>
      </trkpt>
      <trkpt lat="43.66135" lon="3.79688">
        <ele>152.5</ele>
        <time>2016-06-10T11:03:38Z</time>
      </trkpt>
      <trkpt lat="43.66141" lon="3.79696">
        <ele>153.5</ele>
        <time>2016-06-10T11:03:40Z</time>
      </trkpt>
      <trkpt lat="43.66147" lon="3.79702">
        <ele>154</ele>
        <time>2016-06-10T11:03:42Z</time>
      </trkpt>
      <trkpt lat="43.66153" lon="3.79709">
        <ele>155.9</ele>
        <time>2016-06-10T11:03:44Z</time>
      </trkpt>
      <trkpt lat="43.66159" lon="3.79717">
        <ele>156.5</ele>
        <time>2016-06-10T11:03:46Z</time>
      </trkpt>
      <trkpt lat="43.66166" lon="3.79725">
        <ele>156.2</ele>
        <time>2016-06-10T11:03:48Z</time>
      </trkpt>
      <trkpt lat="43.66172" lon="3.79733">
        <ele>155.6</ele>
        <time>2016-06-10T11:03:50Z</time>
      </trkpt>
      <trkpt lat="43.66179" lon="3.7974">
        <ele>155.5</ele>
        <time>2016-06-10T11:03:52Z</time>
      </trkpt>
      <trkpt lat="43.66187" lon="3.79748">
        <ele>155.7</ele>
        <time>2016-06-10T11:03:54Z</time>
      </trkpt>
      <trkpt lat="43.66194" lon="3.79754">
        <ele>156.1</ele>
        <time>2016-06-10T11:03:56Z</time>
      </trkpt>
      <trkpt lat="43.66203" lon="3.7976">
        <ele>156.1</ele>
        <time>2016-06-10T11:03:58Z</time>
      </trkpt>
      <trkpt lat="43.6621" lon="3.79767">
        <ele>155.1</ele>
        <time>2016-06-10T11:04:00Z</time>
      </trkpt>
      <trkpt lat="43.66216" lon="3.79771">
        <ele>152.8</ele>
        <time>2016-06-10T11:04:02Z</time>
      </trkpt>
      <trkpt lat="43.66224" lon="3.79773">
        <ele>152.7</ele>
        <time>2016-06-10T11:04:04Z</time>
      </trkpt>
      <trkpt lat="43.6623" lon="3.79778">
        <ele>152.4</ele>
        <time>2016-06-10T11:04:06Z</time>
      </trkpt>
      <trkpt lat="43.66237" lon="3.79783">
        <ele>153.5</ele>
        <time>2016-06-10T11:04:08Z</time>
      </trkpt>
      <trkpt lat="43.66244" lon="3.79789">
        <ele>153.6</ele>
        <time>2016-06-10T11:04:10Z</time>
      </trkpt>
      <trkpt lat="43.66249" lon="3.79798">
        <ele>153.8</ele>
        <time>2016-06-10T11:04:12Z</time>
      </trkpt>
      <trkpt lat="43.66254" lon="3.79807">
        <ele>154.6</ele>
        <time>2016-06-10T11:04:14Z</time>
      </trkpt>
      <trkpt lat="43.66257" lon="3.79818">
        <ele>154.8</ele>
        <time>2016-06-10T11:04:16Z</time>
      </trkpt>
      <trkpt lat="43.66259" lon="3.79828">
        <ele>155.6</ele>
        <time>2016-06-10T11:04:18Z</time>
      </trkpt>
      <trkpt lat="43.66262" lon="3.79839">
        <ele>156.7</ele>
        <time>2016-06-10T11:04:20Z</time>
      </trkpt>
      <trkpt lat="43.6627" lon="3.79843">
        <ele>156.8</ele>
        <time>2016-06-10T11:04:22Z</time>
      </trkpt>
      <trkpt lat="43.66279" lon="3.79841">
        <ele>157</ele>
        <time>2016-06-10T11:04:25Z</time>
      </trkpt>
      <trkpt lat="43.66289" lon="3.79839">
        <ele>157.4</ele>
        <time>2016-06-10T11:04:28Z</time>
      </trkpt>
      <trkpt lat="43.66297" lon="3.79838">
        <ele>158.6</ele>
        <time>2016-06-10T11:04:30Z</time>
      </trkpt>
      <trkpt lat="43.66305" lon="3.79837">
        <ele>158.6</ele>
        <time>2016-06-10T11:04:32Z</time>
      </trkpt>
      <trkpt lat="43.66313" lon="3.79839">
        <ele>158.6</ele>
        <time>2016-06-10T11:04:34Z</time>
      </trkpt>
      <trkpt lat="43.66321" lon="3.79843">
        <ele>158.7</ele>
        <time>2016-06-10T11:04:36Z</time>
      </trkpt>
      <trkpt lat="43.66328" lon="3.79849">
        <ele>158.8</ele>
        <time>2016-06-10T11:04:38Z</time>
      </trkpt>
      <trkpt lat="43.66334" lon="3.79856">
        <ele>159</ele>
        <time>2016-06-10T11:04:40Z</time>
      </trkpt>
      <trkpt lat="43.66341" lon="3.79862">
        <ele>159.1</ele>
        <time>2016-06-10T11:04:42Z</time>
      </trkpt>
      <trkpt lat="43.66346" lon="3.79874">
        <ele>159.4</ele>
        <time>2016-06-10T11:04:45Z</time>
      </trkpt>
      <trkpt lat="43.6635" lon="3.79883">
        <ele>159.6</ele>
        <time>2016-06-10T11:04:47Z</time>
      </trkpt>
      <trkpt lat="43.66353" lon="3.79892">
        <ele>159.9</ele>
        <time>2016-06-10T11:04:49Z</time>
      </trkpt>
      <trkpt lat="43.66358" lon="3.79902">
        <ele>160.2</ele>
        <time>2016-06-10T11:04:51Z</time>
      </trkpt>
      <trkpt lat="43.66362" lon="3.79911">
        <ele>160.6</ele>
        <time>2016-06-10T11:04:53Z</time>
      </trkpt>
      <trkpt lat="43.66367" lon="3.79921">
        <ele>160.9</ele>
        <time>2016-06-10T11:04:55Z</time>
      </trkpt>
      <trkpt lat="43.66371" lon="3.79931">
        <ele>161.8</ele>
        <time>2016-06-10T11:04:57Z</time>
      </trkpt>
      <trkpt lat="43.66375" lon="3.7994">
        <ele>161.9</ele>
        <time>2016-06-10T11:04:59Z</time>
      </trkpt>
      <trkpt lat="43.6638" lon="3.79949">
        <ele>162.5</ele>
        <time>2016-06-10T11:05:01Z</time>
      </trkpt>
      <trkpt lat="43.66387" lon="3.79953">
        <ele>163.8</ele>
        <time>2016-06-10T11:05:03Z</time>
      </trkpt>
      <trkpt lat="43.66397" lon="3.79959">
        <ele>165.1</ele>
        <time>2016-06-10T11:05:06Z</time>
      </trkpt>
      <trkpt lat="43.66404" lon="3.79964">
        <ele>165.1</ele>
        <time>2016-06-10T11:05:08Z</time>
      </trkpt>
      <trkpt lat="43.66411" lon="3.79967">
        <ele>165.1</ele>
        <time>2016-06-10T11:05:10Z</time>
      </trkpt>
      <trkpt lat="43.6642" lon="3.7997">
        <ele>165.4</ele>
        <time>2016-06-10T11:05:12Z</time>
      </trkpt>
      <trkpt lat="43.66428" lon="3.79973">
        <ele>165.5</ele>
        <time>2016-06-10T11:05:14Z</time>
      </trkpt>
      <trkpt lat="43.66435" lon="3.79975">
        <ele>165.7</ele>
        <time>2016-06-10T11:05:16Z</time>
      </trkpt>
      <trkpt lat="43.66443" lon="3.7998">
        <ele>165.8</ele>
        <time>2016-06-10T11:05:18Z</time>
      </trkpt>
      <trkpt lat="43.66451" lon="3.79985">
        <ele>165.2</ele>
        <time>2016-06-10T11:05:20Z</time>
      </trkpt>
      <trkpt lat="43.66459" lon="3.79992">
        <ele>165.1</ele>
        <time>2016-06-10T11:05:22Z</time>
      </trkpt>
      <trkpt lat="43.66468" lon="3.8">
        <ele>165.5</ele>
        <time>2016-06-10T11:05:24Z</time>
      </trkpt>
      <trkpt lat="43.66476" lon="3.80006">
        <ele>166.5</ele>
        <time>2016-06-10T11:05:26Z</time>
      </trkpt>
      <trkpt lat="43.66485" lon="3.80011">
        <ele>168.3</ele>
        <time>2016-06-10T11:05:28Z</time>
      </trkpt>
      <trkpt lat="43.66493" lon="3.80015">
        <ele>168.4</ele>
        <time>2016-06-10T11:05:30Z</time>
      </trkpt>
      <trkpt lat="43.66501" lon="3.8002">
        <ele>168.5</ele>
        <time>2016-06-10T11:05:32Z</time>
      </trkpt>
      <trkpt lat="43.66509" lon="3.80024">
        <ele>169.4</ele>
        <time>2016-06-10T11:05:34Z</time>
      </trkpt>
      <trkpt lat="43.66521" lon="3.80029">
        <ele>167.3</ele>
        <time>2016-06-10T11:05:37Z</time>
      </trkpt>
      <trkpt lat="43.66528" lon="3.80032">
        <ele>165.7</ele>
        <time>2016-06-10T11:05:39Z</time>
      </trkpt>
      <trkpt lat="43.66535" lon="3.80037">
        <ele>166.5</ele>
        <time>2016-06-10T11:05:41Z</time>
      </trkpt>
      <trkpt lat="43.66543" lon="3.80043">
        <ele>167.7</ele>
        <time>2016-06-10T11:05:43Z</time>
      </trkpt>
      <trkpt lat="43.66555" lon="3.80052">
        <ele>167.6</ele>
        <time>2016-06-10T11:05:45Z</time>
      </trkpt>
      <trkpt lat="43.66564" lon="3.80062">
        <ele>167.9</ele>
        <time>2016-06-10T11:05:47Z</time>
      </trkpt>
      <trkpt lat="43.66571" lon="3.80073">
        <ele>167.9</ele>
        <time>2016-06-10T11:05:49Z</time>
      </trkpt>
      <trkpt lat="43.66578" lon="3.8008">
        <ele>167.8</ele>
        <time>2016-06-10T11:05:51Z</time>
      </trkpt>
      <trkpt lat="43.66585" lon="3.80088">
        <ele>167.3</ele>
        <time>2016-06-10T11:05:53Z</time>
      </trkpt>
      <trkpt lat="43.66592" lon="3.80095">
        <ele>167.1</ele>
        <time>2016-06-10T11:05:55Z</time>
      </trkpt>
      <trkpt lat="43.66599" lon="3.80103">
        <ele>166.7</ele>
        <time>2016-06-10T11:05:57Z</time>
      </trkpt>
      <trkpt lat="43.66606" lon="3.80113">
        <ele>166.6</ele>
        <time>2016-06-10T11:05:59Z</time>
      </trkpt>
      <trkpt lat="43.66612" lon="3.80123">
        <ele>166.5</ele>
        <time>2016-06-10T11:06:01Z</time>
      </trkpt>
      <trkpt lat="43.66618" lon="3.80131">
        <ele>166.4</ele>
        <time>2016-06-10T11:06:03Z</time>
      </trkpt>
      <trkpt lat="43.66625" lon="3.80135">
        <ele>167.4</ele>
        <time>2016-06-10T11:06:05Z</time>
      </trkpt>
      <trkpt lat="43.66635" lon="3.80135">
        <ele>168.2</ele>
        <time>2016-06-10T11:06:08Z</time>
      </trkpt>
      <trkpt lat="43.66642" lon="3.80135">
        <ele>168.5</ele>
        <time>2016-06-10T11:06:10Z</time>
      </trkpt>
      <trkpt lat="43.66653" lon="3.80134">
        <ele>169</ele>
        <time>2016-06-10T11:06:13Z</time>
      </trkpt>
      <trkpt lat="43.66663" lon="3.80135">
        <ele>169.1</ele>
        <time>2016-06-10T11:06:16Z</time>
      </trkpt>
      <trkpt lat="43.6667" lon="3.80137">
        <ele>169.7</ele>
        <time>2016-06-10T11:06:18Z</time>
      </trkpt>
      <trkpt lat="43.66679" lon="3.80142">
        <ele>169.6</ele>
        <time>2016-06-10T11:06:20Z</time>
      </trkpt>
      <trkpt lat="43.66687" lon="3.80148">
        <ele>169.5</ele>
        <time>2016-06-10T11:06:22Z</time>
      </trkpt>
      <trkpt lat="43.66694" lon="3.80153">
        <ele>169.8</ele>
        <time>2016-06-10T11:06:24Z</time>
      </trkpt>
      <trkpt lat="43.66702" lon="3.80157">
        <ele>170.1</ele>
        <time>2016-06-10T11:06:26Z</time>
      </trkpt>
      <trkpt lat="43.6671" lon="3.80161">
        <ele>169.5</ele>
        <time>2016-06-10T11:06:28Z</time>
      </trkpt>
      <trkpt lat="43.66718" lon="3.80164">
        <ele>169.5</ele>
        <time>2016-06-10T11:06:30Z</time>
      </trkpt>
      <trkpt lat="43.66725" lon="3.80169">
        <ele>169.6</ele>
        <time>2016-06-10T11:06:32Z</time>
      </trkpt>
      <trkpt lat="43.66735" lon="3.80174">
        <ele>169.6</ele>
        <time>2016-06-10T11:06:35Z</time>
      </trkpt>
      <trkpt lat="43.66742" lon="3.80179">
        <ele>169.6</ele>
        <time>2016-06-10T11:06:37Z</time>
      </trkpt>
      <trkpt lat="43.66749" lon="3.80184">
        <ele>169.7</ele>
        <time>2016-06-10T11:06:39Z</time>
      </trkpt>
      <trkpt lat="43.66756" lon="3.80188">
        <ele>169.7</ele>
        <time>2016-06-10T11:06:41Z</time>
      </trkpt>
      <trkpt lat="43.66762" lon="3.80194">
        <ele>169.9</ele>
        <time>2016-06-10T11:06:43Z</time>
      </trkpt>
      <trkpt lat="43.66768" lon="3.80201">
        <ele>170.2</ele>
        <time>2016-06-10T11:06:45Z</time>
      </trkpt>
      <trkpt lat="43.66777" lon="3.80205">
        <ele>170.6</ele>
        <time>2016-06-10T11:06:48Z</time>
      </trkpt>
      <trkpt lat="43.66785" lon="3.8021">
        <ele>171.2</ele>
        <time>2016-06-10T11:06:51Z</time>
      </trkpt>
      <trkpt lat="43.66795" lon="3.80212">
        <ele>171.6</ele>
        <time>2016-06-10T11:06:54Z</time>
      </trkpt>
      <trkpt lat="43.66803" lon="3.80211">
        <ele>171.8</ele>
        <time>2016-06-10T11:06:56Z</time>
      </trkpt>
      <trkpt lat="43.66813" lon="3.80207">
        <ele>172.2</ele>
        <time>2016-06-10T11:06:59Z</time>
      </trkpt>
      <trkpt lat="43.66823" lon="3.80204">
        <ele>172.7</ele>
        <time>2016-06-10T11:07:02Z</time>
      </trkpt>
      <trkpt lat="43.66833" lon="3.80202">
        <ele>172.9</ele>
        <time>2016-06-10T11:07:05Z</time>
      </trkpt>
      <trkpt lat="43.66844" lon="3.80202">
        <ele>172.9</ele>
        <time>2016-06-10T11:07:08Z</time>
      </trkpt>
      <trkpt lat="43.66853" lon="3.80203">
        <ele>172.9</ele>
        <time>2016-06-10T11:07:11Z</time>
      </trkpt>
      <trkpt lat="43.66861" lon="3.80206">
        <ele>172.8</ele>
        <time>2016-06-10T11:07:14Z</time>
      </trkpt>
      <trkpt lat="43.6687" lon="3.80209">
        <ele>173</ele>
        <time>2016-06-10T11:07:17Z</time>
      </trkpt>
      <trkpt lat="43.66879" lon="3.80212">
        <ele>173.1</ele>
        <time>2016-06-10T11:07:20Z</time>
      </trkpt>
      <trkpt lat="43.66887" lon="3.80216">
        <ele>173.3</ele>
        <time>2016-06-10T11:07:23Z</time>
      </trkpt>
      <trkpt lat="43.66895" lon="3.80221">
        <ele>173.7</ele>
        <time>2016-06-10T11:07:26Z</time>
      </trkpt>
      <trkpt lat="43.66902" lon="3.80226">
        <ele>174.1</ele>
        <time>2016-06-10T11:07:29Z</time>
      </trkpt>
      <trkpt lat="43.6691" lon="3.80231">
        <ele>174.6</ele>
        <time>2016-06-10T11:07:32Z</time>
      </trkpt>
      <trkpt lat="43.66912" lon="3.8024">
        <ele>174.8</ele>
        <time>2016-06-10T11:07:34Z</time>
      </trkpt>
      <trkpt lat="43.66909" lon="3.80249">
        <ele>175.5</ele>
        <time>2016-06-10T11:07:38Z</time>
      </trkpt>
      <trkpt lat="43.669" lon="3.8025">
        <ele>176.1</ele>
        <time>2016-06-10T11:07:42Z</time>
      </trkpt>
      <trkpt lat="43.66893" lon="3.80249">
        <ele>176.5</ele>
        <time>2016-06-10T11:07:46Z</time>
      </trkpt>
      <trkpt lat="43.66884" lon="3.80248">
        <ele>176.7</ele>
        <time>2016-06-10T11:07:50Z</time>
      </trkpt>
      <trkpt lat="43.66875" lon="3.80248">
        <ele>177</ele>
        <time>2016-06-10T11:07:54Z</time>
      </trkpt>
      <trkpt lat="43.66867" lon="3.80249">
        <ele>177.4</ele>
        <time>2016-06-10T11:07:57Z</time>
      </trkpt>
      <trkpt lat="43.66858" lon="3.80254">
        <ele>177.8</ele>
        <time>2016-06-10T11:08:00Z</time>
      </trkpt>
      <trkpt lat="43.66851" lon="3.80258">
        <ele>178.1</ele>
        <time>2016-06-10T11:08:03Z</time>
      </trkpt>
      <trkpt lat="43.66843" lon="3.80264">
        <ele>178.3</ele>
        <time>2016-06-10T11:08:06Z</time>
      </trkpt>
      <trkpt lat="43.66835" lon="3.80271">
        <ele>178.6</ele>
        <time>2016-06-10T11:08:09Z</time>
      </trkpt>
      <trkpt lat="43.66829" lon="3.80277">
        <ele>178.9</ele>
        <time>2016-06-10T11:08:12Z</time>
      </trkpt>
      <trkpt lat="43.66819" lon="3.80282">
        <ele>179.2</ele>
        <time>2016-06-10T11:08:15Z</time>
      </trkpt>
      <trkpt lat="43.66812" lon="3.80285">
        <ele>179.4</ele>
        <time>2016-06-10T11:08:17Z</time>
      </trkpt>
      <trkpt lat="43.66801" lon="3.80284">
        <ele>179.5</ele>
        <time>2016-06-10T11:08:20Z</time>
      </trkpt>
      <trkpt lat="43.66792" lon="3.80283">
        <ele>179.7</ele>
        <time>2016-06-10T11:08:23Z</time>
      </trkpt>
      <trkpt lat="43.66784" lon="3.80282">
        <ele>179.9</ele>
        <time>2016-06-10T11:08:26Z</time>
      </trkpt>
      <trkpt lat="43.66774" lon="3.80283">
        <ele>180.1</ele>
        <time>2016-06-10T11:08:30Z</time>
      </trkpt>
      <trkpt lat="43.66766" lon="3.80285">
        <ele>180.3</ele>
        <time>2016-06-10T11:08:33Z</time>
      </trkpt>
      <trkpt lat="43.66759" lon="3.80285">
        <ele>180.4</ele>
        <time>2016-06-10T11:08:35Z</time>
      </trkpt>
      <trkpt lat="43.66751" lon="3.80285">
        <ele>180.4</ele>
        <time>2016-06-10T11:08:37Z</time>
      </trkpt>
      <trkpt lat="43.66741" lon="3.80285">
        <ele>180.5</ele>
        <time>2016-06-10T11:08:40Z</time>
      </trkpt>
      <trkpt lat="43.6673" lon="3.80286">
        <ele>180.5</ele>
        <time>2016-06-10T11:08:43Z</time>
      </trkpt>
      <trkpt lat="43.66721" lon="3.8029">
        <ele>180.5</ele>
        <time>2016-06-10T11:08:46Z</time>
      </trkpt>
      <trkpt lat="43.6671" lon="3.80291">
        <ele>180.4</ele>
        <time>2016-06-10T11:08:50Z</time>
      </trkpt>
      <trkpt lat="43.66701" lon="3.80292">
        <ele>180.4</ele>
        <time>2016-06-10T11:08:52Z</time>
      </trkpt>
      <trkpt lat="43.66689" lon="3.80292">
        <ele>180.4</ele>
        <time>2016-06-10T11:08:54Z</time>
      </trkpt>
      <trkpt lat="43.66679" lon="3.80291">
        <ele>180.5</ele>
        <time>2016-06-10T11:08:56Z</time>
      </trkpt>
      <trkpt lat="43.6667" lon="3.80287">
        <ele>180.6</ele>
        <time>2016-06-10T11:08:58Z</time>
      </trkpt>
      <trkpt lat="43.6666" lon="3.80284">
        <ele>180.7</ele>
        <time>2016-06-10T11:09:00Z</time>
      </trkpt>
      <trkpt lat="43.66652" lon="3.80282">
        <ele>181</ele>
        <time>2016-06-10T11:09:02Z</time>
      </trkpt>
      <trkpt lat="43.66643" lon="3.80279">
        <ele>181.4</ele>
        <time>2016-06-10T11:09:05Z</time>
      </trkpt>
      <trkpt lat="43.66632" lon="3.80279">
        <ele>181.9</ele>
        <time>2016-06-10T11:09:09Z</time>
      </trkpt>
      <trkpt lat="43.66622" lon="3.80282">
        <ele>182.2</ele>
        <time>2016-06-10T11:09:12Z</time>
      </trkpt>
      <trkpt lat="43.66614" lon="3.80285">
        <ele>182.6</ele>
        <time>2016-06-10T11:09:15Z</time>
      </trkpt>
      <trkpt lat="43.66605" lon="3.80289">
        <ele>182.8</ele>
        <time>2016-06-10T11:09:17Z</time>
      </trkpt>
      <trkpt lat="43.66598" lon="3.80294">
        <ele>183</ele>
        <time>2016-06-10T11:09:19Z</time>
      </trkpt>
      <trkpt lat="43.6659" lon="3.803">
        <ele>183.3</ele>
        <time>2016-06-10T11:09:23Z</time>
      </trkpt>
      <trkpt lat="43.66583" lon="3.80305">
        <ele>183.4</ele>
        <time>2016-06-10T11:09:25Z</time>
      </trkpt>
      <trkpt lat="43.66576" lon="3.80308">
        <ele>183.7</ele>
        <time>2016-06-10T11:09:27Z</time>
      </trkpt>
      <trkpt lat="43.66567" lon="3.80314">
        <ele>183.9</ele>
        <time>2016-06-10T11:09:30Z</time>
      </trkpt>
      <trkpt lat="43.66561" lon="3.80321">
        <ele>184.3</ele>
        <time>2016-06-10T11:09:33Z</time>
      </trkpt>
      <trkpt lat="43.66553" lon="3.80328">
        <ele>185</ele>
        <time>2016-06-10T11:09:36Z</time>
      </trkpt>
      <trkpt lat="43.66545" lon="3.80336">
        <ele>185.8</ele>
        <time>2016-06-10T11:09:39Z</time>
      </trkpt>
      <trkpt lat="43.66538" lon="3.80342">
        <ele>186.8</ele>
        <time>2016-06-10T11:09:42Z</time>
      </trkpt>
      <trkpt lat="43.6653" lon="3.8035">
        <ele>187.6</ele>
        <time>2016-06-10T11:09:45Z</time>
      </trkpt>
      <trkpt lat="43.66525" lon="3.80355">
        <ele>188.4</ele>
        <time>2016-06-10T11:09:48Z</time>
      </trkpt>
      <trkpt lat="43.66518" lon="3.80364">
        <ele>189</ele>
        <time>2016-06-10T11:09:51Z</time>
      </trkpt>
      <trkpt lat="43.66514" lon="3.80376">
        <ele>189.8</ele>
        <time>2016-06-10T11:09:54Z</time>
      </trkpt>
      <trkpt lat="43.66511" lon="3.80387">
        <ele>190.6</ele>
        <time>2016-06-10T11:09:57Z</time>
      </trkpt>
      <trkpt lat="43.66505" lon="3.80398">
        <ele>191.3</ele>
        <time>2016-06-10T11:10:00Z</time>
      </trkpt>
      <trkpt lat="43.66497" lon="3.80401">
        <ele>191.7</ele>
        <time>2016-06-10T11:10:02Z</time>
      </trkpt>
      <trkpt lat="43.6649" lon="3.80405">
        <ele>192</ele>
        <time>2016-06-10T11:10:04Z</time>
      </trkpt>
      <trkpt lat="43.6648" lon="3.8041">
        <ele>192.6</ele>
        <time>2016-06-10T11:10:07Z</time>
      </trkpt>
      <trkpt lat="43.66473" lon="3.80415">
        <ele>193</ele>
        <time>2016-06-10T11:10:09Z</time>
      </trkpt>
      <trkpt lat="43.66466" lon="3.8042">
        <ele>193.4</ele>
        <time>2016-06-10T11:10:11Z</time>
      </trkpt>
      <trkpt lat="43.66459" lon="3.80426">
        <ele>194.1</ele>
        <time>2016-06-10T11:10:13Z</time>
      </trkpt>
      <trkpt lat="43.66452" lon="3.80432">
        <ele>194.7</ele>
        <time>2016-06-10T11:10:15Z</time>
      </trkpt>
      <trkpt lat="43.66446" lon="3.80438">
        <ele>196</ele>
        <time>2016-06-10T11:10:17Z</time>
      </trkpt>
      <trkpt lat="43.6644" lon="3.80444">
        <ele>197</ele>
        <time>2016-06-10T11:10:19Z</time>
      </trkpt>
      <trkpt lat="43.66432" lon="3.80451">
        <ele>197.1</ele>
        <time>2016-06-10T11:10:21Z</time>
      </trkpt>
      <trkpt lat="43.66425" lon="3.80456">
        <ele>198.2</ele>
        <time>2016-06-10T11:10:23Z</time>
      </trkpt>
      <trkpt lat="43.66418" lon="3.80459">
        <ele>198.5</ele>
        <time>2016-06-10T11:10:25Z</time>
      </trkpt>
      <trkpt lat="43.66409" lon="3.80459">
        <ele>198.7</ele>
        <time>2016-06-10T11:10:27Z</time>
      </trkpt>
      <trkpt lat="43.66399" lon="3.80457">
        <ele>199.1</ele>
        <time>2016-06-10T11:10:29Z</time>
      </trkpt>
      <trkpt lat="43.66389" lon="3.80451">
        <ele>200</ele>
        <time>2016-06-10T11:10:31Z</time>
      </trkpt>
      <trkpt lat="43.6638" lon="3.80444">
        <ele>200.6</ele>
        <time>2016-06-10T11:10:33Z</time>
      </trkpt>
      <trkpt lat="43.6637" lon="3.80438">
        <ele>200.2</ele>
        <time>2016-06-10T11:10:35Z</time>
      </trkpt>
      <trkpt lat="43.66361" lon="3.80431">
        <ele>201.1</ele>
        <time>2016-06-10T11:10:37Z</time>
      </trkpt>
      <trkpt lat="43.66353" lon="3.80422">
        <ele>202.1</ele>
        <time>2016-06-10T11:10:40Z</time>
      </trkpt>
      <trkpt lat="43.66347" lon="3.80417">
        <ele>201.8</ele>
        <time>2016-06-10T11:10:42Z</time>
      </trkpt>
      <trkpt lat="43.66339" lon="3.8041">
        <ele>201.1</ele>
        <time>2016-06-10T11:10:44Z</time>
      </trkpt>
      <trkpt lat="43.66331" lon="3.80402">
        <ele>199.4</ele>
        <time>2016-06-10T11:10:46Z</time>
      </trkpt>
      <trkpt lat="43.66325" lon="3.80397">
        <ele>199.1</ele>
        <time>2016-06-10T11:10:48Z</time>
      </trkpt>
      <trkpt lat="43.66318" lon="3.8039">
        <ele>199.5</ele>
        <time>2016-06-10T11:10:50Z</time>
      </trkpt>
      <trkpt lat="43.6631" lon="3.80383">
        <ele>199.1</ele>
        <time>2016-06-10T11:10:52Z</time>
      </trkpt>
      <trkpt lat="43.66302" lon="3.80376">
        <ele>198.3</ele>
        <time>2016-06-10T11:10:54Z</time>
      </trkpt>
      <trkpt lat="43.66295" lon="3.80369">
        <ele>197.1</ele>
        <time>2016-06-10T11:10:56Z</time>
      </trkpt>
      <trkpt lat="43.66288" lon="3.80363">
        <ele>196.7</ele>
        <time>2016-06-10T11:10:58Z</time>
      </trkpt>
      <trkpt lat="43.6628" lon="3.80357">
        <ele>197.4</ele>
        <time>2016-06-10T11:11:00Z</time>
      </trkpt>
      <trkpt lat="43.66272" lon="3.80351">
        <ele>198.1</ele>
        <time>2016-06-10T11:11:02Z</time>
      </trkpt>
      <trkpt lat="43.66266" lon="3.80343">
        <ele>198.1</ele>
        <time>2016-06-10T11:11:04Z</time>
      </trkpt>
      <trkpt lat="43.66258" lon="3.80336">
        <ele>198.1</ele>
        <time>2016-06-10T11:11:06Z</time>
      </trkpt>
      <trkpt lat="43.66251" lon="3.80329">
        <ele>198.5</ele>
        <time>2016-06-10T11:11:08Z</time>
      </trkpt>
      <trkpt lat="43.66242" lon="3.80322">
        <ele>197.9</ele>
        <time>2016-06-10T11:11:10Z</time>
      </trkpt>
      <trkpt lat="43.66234" lon="3.80315">
        <ele>198.6</ele>
        <time>2016-06-10T11:11:12Z</time>
      </trkpt>
      <trkpt lat="43.66225" lon="3.80307">
        <ele>199.2</ele>
        <time>2016-06-10T11:11:14Z</time>
      </trkpt>
      <trkpt lat="43.66216" lon="3.803">
        <ele>198.4</ele>
        <time>2016-06-10T11:11:16Z</time>
      </trkpt>
      <trkpt lat="43.66206" lon="3.80292">
        <ele>197.2</ele>
        <time>2016-06-10T11:11:18Z</time>
      </trkpt>
      <trkpt lat="43.66198" lon="3.80285">
        <ele>197.2</ele>
        <time>2016-06-10T11:11:20Z</time>
      </trkpt>
      <trkpt lat="43.66189" lon="3.80278">
        <ele>197.6</ele>
        <time>2016-06-10T11:11:22Z</time>
      </trkpt>
      <trkpt lat="43.66181" lon="3.80272">
        <ele>197.6</ele>
        <time>2016-06-10T11:11:24Z</time>
      </trkpt>
      <trkpt lat="43.66173" lon="3.80266">
        <ele>198</ele>
        <time>2016-06-10T11:11:26Z</time>
      </trkpt>
      <trkpt lat="43.66164" lon="3.80259">
        <ele>198.1</ele>
        <time>2016-06-10T11:11:28Z</time>
      </trkpt>
      <trkpt lat="43.66155" lon="3.80253">
        <ele>198.2</ele>
        <time>2016-06-10T11:11:30Z</time>
      </trkpt>
      <trkpt lat="43.66147" lon="3.80246">
        <ele>198.7</ele>
        <time>2016-06-10T11:11:32Z</time>
      </trkpt>
      <trkpt lat="43.66138" lon="3.80239">
        <ele>198.2</ele>
        <time>2016-06-10T11:11:34Z</time>
      </trkpt>
      <trkpt lat="43.66129" lon="3.80233">
        <ele>198.2</ele>
        <time>2016-06-10T11:11:36Z</time>
      </trkpt>
      <trkpt lat="43.6612" lon="3.80228">
        <ele>198.2</ele>
        <time>2016-06-10T11:11:38Z</time>
      </trkpt>
      <trkpt lat="43.66111" lon="3.80224">
        <ele>198.6</ele>
        <time>2016-06-10T11:11:40Z</time>
      </trkpt>
      <trkpt lat="43.66102" lon="3.8022">
        <ele>198.9</ele>
        <time>2016-06-10T11:11:42Z</time>
      </trkpt>
      <trkpt lat="43.66093" lon="3.80222">
        <ele>199.2</ele>
        <time>2016-06-10T11:11:44Z</time>
      </trkpt>
      <trkpt lat="43.66085" lon="3.80229">
        <ele>198</ele>
        <time>2016-06-10T11:11:46Z</time>
      </trkpt>
      <trkpt lat="43.66075" lon="3.80236">
        <ele>196.4</ele>
        <time>2016-06-10T11:11:48Z</time>
      </trkpt>
      <trkpt lat="43.66063" lon="3.8024">
        <ele>194.8</ele>
        <time>2016-06-10T11:11:50Z</time>
      </trkpt>
      <trkpt lat="43.66051" lon="3.80243">
        <ele>195.8</ele>
        <time>2016-06-10T11:11:52Z</time>
      </trkpt>
      <trkpt lat="43.66039" lon="3.80245">
        <ele>197</ele>
        <time>2016-06-10T11:11:54Z</time>
      </trkpt>
      <trkpt lat="43.66027" lon="3.80245">
        <ele>196.3</ele>
        <time>2016-06-10T11:11:56Z</time>
      </trkpt>
      <trkpt lat="43.66015" lon="3.80244">
        <ele>196.8</ele>
        <time>2016-06-10T11:11:58Z</time>
      </trkpt>
      <trkpt lat="43.66003" lon="3.80243">
        <ele>197.1</ele>
        <time>2016-06-10T11:12:00Z</time>
      </trkpt>
      <trkpt lat="43.6599" lon="3.8024">
        <ele>196</ele>
        <time>2016-06-10T11:12:02Z</time>
      </trkpt>
      <trkpt lat="43.65977" lon="3.80236">
        <ele>196.4</ele>
        <time>2016-06-10T11:12:04Z</time>
      </trkpt>
      <trkpt lat="43.65964" lon="3.8023">
        <ele>197</ele>
        <time>2016-06-10T11:12:06Z</time>
      </trkpt>
      <trkpt lat="43.65952" lon="3.80223">
        <ele>197</ele>
        <time>2016-06-10T11:12:08Z</time>
      </trkpt>
      <trkpt lat="43.6594" lon="3.80216">
        <ele>197.2</ele>
        <time>2016-06-10T11:12:10Z</time>
      </trkpt>
      <trkpt lat="43.65928" lon="3.80209">
        <ele>197.4</ele>
        <time>2016-06-10T11:12:12Z</time>
      </trkpt>
      <trkpt lat="43.65915" lon="3.80202">
        <ele>197.6</ele>
        <time>2016-06-10T11:12:14Z</time>
      </trkpt>
      <trkpt lat="43.65908" lon="3.80197">
        <ele>197.2</ele>
        <time>2016-06-10T11:12:15Z</time>
      </trkpt>
      <trkpt lat="43.65897" lon="3.80188">
        <ele>197.2</ele>
        <time>2016-06-10T11:12:17Z</time>
      </trkpt>
      <trkpt lat="43.65887" lon="3.80177">
        <ele>194.6</ele>
        <time>2016-06-10T11:12:19Z</time>
      </trkpt>
      <trkpt lat="43.65882" lon="3.80169">
        <ele>193.6</ele>
        <time>2016-06-10T11:12:20Z</time>
      </trkpt>
      <trkpt lat="43.65873" lon="3.80153">
        <ele>191.8</ele>
        <time>2016-06-10T11:12:23Z</time>
      </trkpt>
      <trkpt lat="43.65865" lon="3.80138">
        <ele>191.5</ele>
        <time>2016-06-10T11:12:24Z</time>
      </trkpt>
      <trkpt lat="43.65856" lon="3.80123">
        <ele>192.3</ele>
        <time>2016-06-10T11:12:26Z</time>
      </trkpt>
      <trkpt lat="43.65847" lon="3.80109">
        <ele>192</ele>
        <time>2016-06-10T11:12:28Z</time>
      </trkpt>
      <trkpt lat="43.65842" lon="3.80101">
        <ele>191.5</ele>
        <time>2016-06-10T11:12:29Z</time>
      </trkpt>
      <trkpt lat="43.65832" lon="3.80085">
        <ele>191.6</ele>
        <time>2016-06-10T11:12:31Z</time>
      </trkpt>
      <trkpt lat="43.65828" lon="3.80077">
        <ele>191.7</ele>
        <time>2016-06-10T11:12:32Z</time>
      </trkpt>
      <trkpt lat="43.65822" lon="3.8007">
        <ele>191.4</ele>
        <time>2016-06-10T11:12:33Z</time>
      </trkpt>
      <trkpt lat="43.65816" lon="3.80064">
        <ele>190.8</ele>
        <time>2016-06-10T11:12:34Z</time>
      </trkpt>
      <trkpt lat="43.65809" lon="3.80059">
        <ele>190.4</ele>
        <time>2016-06-10T11:12:35Z</time>
      </trkpt>
      <trkpt lat="43.65802" lon="3.80055">
        <ele>190.2</ele>
        <time>2016-06-10T11:12:36Z</time>
      </trkpt>
      <trkpt lat="43.65796" lon="3.80052">
        <ele>190</ele>
        <time>2016-06-10T11:12:37Z</time>
      </trkpt>
      <trkpt lat="43.65789" lon="3.80049">
        <ele>189.6</ele>
        <time>2016-06-10T11:12:38Z</time>
      </trkpt>
      <trkpt lat="43.65774" lon="3.80043">
        <ele>189.9</ele>
        <time>2016-06-10T11:12:40Z</time>
      </trkpt>
      <trkpt lat="43.65761" lon="3.8004">
        <ele>190</ele>
        <time>2016-06-10T11:12:43Z</time>
      </trkpt>
      <trkpt lat="43.65748" lon="3.80038">
        <ele>189.7</ele>
        <time>2016-06-10T11:12:44Z</time>
      </trkpt>
      <trkpt lat="43.65736" lon="3.80039">
        <ele>189.1</ele>
        <time>2016-06-10T11:12:46Z</time>
      </trkpt>
      <trkpt lat="43.65726" lon="3.80046">
        <ele>187.3</ele>
        <time>2016-06-10T11:12:48Z</time>
      </trkpt>
      <trkpt lat="43.65718" lon="3.80052">
        <ele>188</ele>
        <time>2016-06-10T11:12:50Z</time>
      </trkpt>
      <trkpt lat="43.65708" lon="3.80058">
        <ele>189</ele>
        <time>2016-06-10T11:12:52Z</time>
      </trkpt>
      <trkpt lat="43.657" lon="3.80067">
        <ele>190.4</ele>
        <time>2016-06-10T11:12:54Z</time>
      </trkpt>
      <trkpt lat="43.65691" lon="3.80076">
        <ele>190.7</ele>
        <time>2016-06-10T11:12:56Z</time>
      </trkpt>
      <trkpt lat="43.65682" lon="3.80085">
        <ele>191.6</ele>
        <time>2016-06-10T11:12:58Z</time>
      </trkpt>
      <trkpt lat="43.65675" lon="3.80093">
        <ele>192.7</ele>
        <time>2016-06-10T11:13:00Z</time>
      </trkpt>
      <trkpt lat="43.65666" lon="3.80102">
        <ele>193.1</ele>
        <time>2016-06-10T11:13:02Z</time>
      </trkpt>
      <trkpt lat="43.65657" lon="3.8011">
        <ele>192.7</ele>
        <time>2016-06-10T11:13:04Z</time>
      </trkpt>
      <trkpt lat="43.65649" lon="3.80117">
        <ele>193</ele>
        <time>2016-06-10T11:13:06Z</time>
      </trkpt>
      <trkpt lat="43.65641" lon="3.80125">
        <ele>193.5</ele>
        <time>2016-06-10T11:13:08Z</time>
      </trkpt>
      <trkpt lat="43.65633" lon="3.80132">
        <ele>194.4</ele>
        <time>2016-06-10T11:13:10Z</time>
      </trkpt>
      <trkpt lat="43.65625" lon="3.8014">
        <ele>195.3</ele>
        <time>2016-06-10T11:13:12Z</time>
      </trkpt>
      <trkpt lat="43.65617" lon="3.80148">
        <ele>196.2</ele>
        <time>2016-06-10T11:13:14Z</time>
      </trkpt>
      <trkpt lat="43.65611" lon="3.80156">
        <ele>196.4</ele>
        <time>2016-06-10T11:13:16Z</time>
      </trkpt>
      <trkpt lat="43.65606" lon="3.80164">
        <ele>196.1</ele>
        <time>2016-06-10T11:13:18Z</time>
      </trkpt>
      <trkpt lat="43.65601" lon="3.80172">
        <ele>197.3</ele>
        <time>2016-06-10T11:13:20Z</time>
      </trkpt>
      <trkpt lat="43.65595" lon="3.8018">
        <ele>197.2</ele>
        <time>2016-06-10T11:13:22Z</time>
      </trkpt>
      <trkpt lat="43.6559" lon="3.80189">
        <ele>197.4</ele>
        <time>2016-06-10T11:13:24Z</time>
      </trkpt>
      <trkpt lat="43.65584" lon="3.80195">
        <ele>196.8</ele>
        <time>2016-06-10T11:13:26Z</time>
      </trkpt>
      <trkpt lat="43.65577" lon="3.80202">
        <ele>197.2</ele>
        <time>2016-06-10T11:13:28Z</time>
      </trkpt>
      <trkpt lat="43.65571" lon="3.80209">
        <ele>197.1</ele>
        <time>2016-06-10T11:13:30Z</time>
      </trkpt>
      <trkpt lat="43.65565" lon="3.80215">
        <ele>197.1</ele>
        <time>2016-06-10T11:13:32Z</time>
      </trkpt>
      <trkpt lat="43.65557" lon="3.80219">
        <ele>197</ele>
        <time>2016-06-10T11:13:36Z</time>
      </trkpt>
      <trkpt lat="43.65547" lon="3.80223">
        <ele>196.8</ele>
        <time>2016-06-10T11:13:39Z</time>
      </trkpt>
      <trkpt lat="43.6554" lon="3.80227">
        <ele>196.8</ele>
        <time>2016-06-10T11:13:41Z</time>
      </trkpt>
      <trkpt lat="43.65532" lon="3.80231">
        <ele>196.7</ele>
        <time>2016-06-10T11:13:43Z</time>
      </trkpt>
      <trkpt lat="43.65524" lon="3.80235">
        <ele>196.7</ele>
        <time>2016-06-10T11:13:45Z</time>
      </trkpt>
      <trkpt lat="43.65517" lon="3.80239">
        <ele>197.6</ele>
        <time>2016-06-10T11:13:47Z</time>
      </trkpt>
      <trkpt lat="43.65507" lon="3.80246">
        <ele>197.9</ele>
        <time>2016-06-10T11:13:49Z</time>
      </trkpt>
      <trkpt lat="43.65498" lon="3.80252">
        <ele>197</ele>
        <time>2016-06-10T11:13:51Z</time>
      </trkpt>
      <trkpt lat="43.65489" lon="3.80261">
        <ele>197.2</ele>
        <time>2016-06-10T11:13:53Z</time>
      </trkpt>
      <trkpt lat="43.65482" lon="3.80272">
        <ele>197.3</ele>
        <time>2016-06-10T11:13:55Z</time>
      </trkpt>
      <trkpt lat="43.6548" lon="3.80289">
        <ele>197.8</ele>
        <time>2016-06-10T11:13:57Z</time>
      </trkpt>
      <trkpt lat="43.65482" lon="3.80301">
        <ele>197</ele>
        <time>2016-06-10T11:13:59Z</time>
      </trkpt>
      <trkpt lat="43.6549" lon="3.8031">
        <ele>196</ele>
        <time>2016-06-10T11:14:01Z</time>
      </trkpt>
      <trkpt lat="43.65499" lon="3.80315">
        <ele>194.8</ele>
        <time>2016-06-10T11:14:03Z</time>
      </trkpt>
      <trkpt lat="43.65504" lon="3.80326">
        <ele>194.8</ele>
        <time>2016-06-10T11:14:06Z</time>
      </trkpt>
      <trkpt lat="43.65501" lon="3.80336">
        <ele>194.8</ele>
        <time>2016-06-10T11:14:09Z</time>
      </trkpt>
      <trkpt lat="43.65507" lon="3.80344">
        <ele>194.8</ele>
        <time>2016-06-10T11:14:13Z</time>
      </trkpt>
      <trkpt lat="43.65513" lon="3.80354">
        <ele>195.9</ele>
        <time>2016-06-10T11:14:16Z</time>
      </trkpt>
      <trkpt lat="43.65519" lon="3.80363">
        <ele>195.8</ele>
        <time>2016-06-10T11:14:18Z</time>
      </trkpt>
      <trkpt lat="43.65527" lon="3.80368">
        <ele>195.3</ele>
        <time>2016-06-10T11:14:20Z</time>
      </trkpt>
      <trkpt lat="43.65535" lon="3.80373">
        <ele>194.4</ele>
        <time>2016-06-10T11:14:22Z</time>
      </trkpt>
      <trkpt lat="43.65548" lon="3.80377">
        <ele>192.3</ele>
        <time>2016-06-10T11:14:24Z</time>
      </trkpt>
      <trkpt lat="43.65555" lon="3.8038">
        <ele>191.2</ele>
        <time>2016-06-10T11:14:25Z</time>
      </trkpt>
      <trkpt lat="43.65567" lon="3.80383">
        <ele>190</ele>
        <time>2016-06-10T11:14:27Z</time>
      </trkpt>
      <trkpt lat="43.6558" lon="3.80386">
        <ele>189.5</ele>
        <time>2016-06-10T11:14:29Z</time>
      </trkpt>
      <trkpt lat="43.6559" lon="3.80388">
        <ele>189.6</ele>
        <time>2016-06-10T11:14:31Z</time>
      </trkpt>
      <trkpt lat="43.65601" lon="3.80389">
        <ele>189.9</ele>
        <time>2016-06-10T11:14:33Z</time>
      </trkpt>
      <trkpt lat="43.65612" lon="3.80398">
        <ele>191.2</ele>
        <time>2016-06-10T11:14:35Z</time>
      </trkpt>
      <trkpt lat="43.65619" lon="3.80407">
        <ele>191.8</ele>
        <time>2016-06-10T11:14:36Z</time>
      </trkpt>
      <trkpt lat="43.65631" lon="3.80417">
        <ele>191.7</ele>
        <time>2016-06-10T11:14:38Z</time>
      </trkpt>
      <trkpt lat="43.65645" lon="3.80423">
        <ele>192.5</ele>
        <time>2016-06-10T11:14:40Z</time>
      </trkpt>
      <trkpt lat="43.65651" lon="3.80427">
        <ele>192.2</ele>
        <time>2016-06-10T11:14:41Z</time>
      </trkpt>
      <trkpt lat="43.65663" lon="3.8043">
        <ele>191.8</ele>
        <time>2016-06-10T11:14:43Z</time>
      </trkpt>
      <trkpt lat="43.65674" lon="3.80433">
        <ele>191.1</ele>
        <time>2016-06-10T11:14:45Z</time>
      </trkpt>
      <trkpt lat="43.65685" lon="3.80436">
        <ele>189.9</ele>
        <time>2016-06-10T11:14:47Z</time>
      </trkpt>
      <trkpt lat="43.65695" lon="3.80442">
        <ele>188.8</ele>
        <time>2016-06-10T11:14:49Z</time>
      </trkpt>
      <trkpt lat="43.65703" lon="3.80445">
        <ele>187.6</ele>
        <time>2016-06-10T11:14:51Z</time>
      </trkpt>
      <trkpt lat="43.65713" lon="3.8045">
        <ele>187.1</ele>
        <time>2016-06-10T11:14:53Z</time>
      </trkpt>
      <trkpt lat="43.65722" lon="3.80453">
        <ele>186.8</ele>
        <time>2016-06-10T11:14:55Z</time>
      </trkpt>
      <trkpt lat="43.65728" lon="3.8046">
        <ele>187.2</ele>
        <time>2016-06-10T11:14:57Z</time>
      </trkpt>
      <trkpt lat="43.65737" lon="3.80462">
        <ele>187.1</ele>
        <time>2016-06-10T11:14:59Z</time>
      </trkpt>
      <trkpt lat="43.65747" lon="3.80461">
        <ele>187.3</ele>
        <time>2016-06-10T11:15:01Z</time>
      </trkpt>
      <trkpt lat="43.65756" lon="3.80465">
        <ele>188.3</ele>
        <time>2016-06-10T11:15:03Z</time>
      </trkpt>
      <trkpt lat="43.65766" lon="3.80468">
        <ele>188.6</ele>
        <time>2016-06-10T11:15:05Z</time>
      </trkpt>
      <trkpt lat="43.65774" lon="3.8047">
        <ele>189</ele>
        <time>2016-06-10T11:15:07Z</time>
      </trkpt>
      <trkpt lat="43.65783" lon="3.80474">
        <ele>188.9</ele>
        <time>2016-06-10T11:15:09Z</time>
      </trkpt>
      <trkpt lat="43.65794" lon="3.8048">
        <ele>188.3</ele>
        <time>2016-06-10T11:15:11Z</time>
      </trkpt>
      <trkpt lat="43.65806" lon="3.8048">
        <ele>188.3</ele>
        <time>2016-06-10T11:15:13Z</time>
      </trkpt>
      <trkpt lat="43.65815" lon="3.80484">
        <ele>188.8</ele>
        <time>2016-06-10T11:15:15Z</time>
      </trkpt>
      <trkpt lat="43.65826" lon="3.80487">
        <ele>189.2</ele>
        <time>2016-06-10T11:15:17Z</time>
      </trkpt>
      <trkpt lat="43.65834" lon="3.80491">
        <ele>188.6</ele>
        <time>2016-06-10T11:15:19Z</time>
      </trkpt>
      <trkpt lat="43.65843" lon="3.805">
        <ele>188</ele>
        <time>2016-06-10T11:15:21Z</time>
      </trkpt>
      <trkpt lat="43.65853" lon="3.80507">
        <ele>187.1</ele>
        <time>2016-06-10T11:15:23Z</time>
      </trkpt>
      <trkpt lat="43.6586" lon="3.8051">
        <ele>187.1</ele>
        <time>2016-06-10T11:15:25Z</time>
      </trkpt>
      <trkpt lat="43.65868" lon="3.80515">
        <ele>186.9</ele>
        <time>2016-06-10T11:15:27Z</time>
      </trkpt>
      <trkpt lat="43.65879" lon="3.80519">
        <ele>186.6</ele>
        <time>2016-06-10T11:15:29Z</time>
      </trkpt>
      <trkpt lat="43.65887" lon="3.80525">
        <ele>186.5</ele>
        <time>2016-06-10T11:15:32Z</time>
      </trkpt>
      <trkpt lat="43.65895" lon="3.80529">
        <ele>186.2</ele>
        <time>2016-06-10T11:15:35Z</time>
      </trkpt>
      <trkpt lat="43.65904" lon="3.80536">
        <ele>185.8</ele>
        <time>2016-06-10T11:15:37Z</time>
      </trkpt>
      <trkpt lat="43.65913" lon="3.80541">
        <ele>186.4</ele>
        <time>2016-06-10T11:15:39Z</time>
      </trkpt>
      <trkpt lat="43.65921" lon="3.80551">
        <ele>186.5</ele>
        <time>2016-06-10T11:15:41Z</time>
      </trkpt>
      <trkpt lat="43.65929" lon="3.80557">
        <ele>186.2</ele>
        <time>2016-06-10T11:15:43Z</time>
      </trkpt>
      <trkpt lat="43.65931" lon="3.80567">
        <ele>186.3</ele>
        <time>2016-06-10T11:15:45Z</time>
      </trkpt>
      <trkpt lat="43.65925" lon="3.8059">
        <ele>185.3</ele>
        <time>2016-06-10T11:16:17Z</time>
      </trkpt>
      <trkpt lat="43.65932" lon="3.80596">
        <ele>184.9</ele>
        <time>2016-06-10T11:16:21Z</time>
      </trkpt>
      <trkpt lat="43.65931" lon="3.8061">
        <ele>184.2</ele>
        <time>2016-06-10T11:16:24Z</time>
      </trkpt>
      <trkpt lat="43.65928" lon="3.8062">
        <ele>183.6</ele>
        <time>2016-06-10T11:16:26Z</time>
      </trkpt>
      <trkpt lat="43.65925" lon="3.80631">
        <ele>182.8</ele>
        <time>2016-06-10T11:16:29Z</time>
      </trkpt>
      <trkpt lat="43.65914" lon="3.80637">
        <ele>178.6</ele>
        <time>2016-06-10T11:16:32Z</time>
      </trkpt>
      <trkpt lat="43.65905" lon="3.80642">
        <ele>175.1</ele>
        <time>2016-06-10T11:16:34Z</time>
      </trkpt>
      <trkpt lat="43.65899" lon="3.80652">
        <ele>171.9</ele>
        <time>2016-06-10T11:16:36Z</time>
      </trkpt>
      <trkpt lat="43.65902" lon="3.80665">
        <ele>167.3</ele>
        <time>2016-06-10T11:16:38Z</time>
      </trkpt>
      <trkpt lat="43.65906" lon="3.80673">
        <ele>167</ele>
        <time>2016-06-10T11:16:40Z</time>
      </trkpt>
      <trkpt lat="43.65914" lon="3.80681">
        <ele>166.4</ele>
        <time>2016-06-10T11:16:43Z</time>
      </trkpt>
      <trkpt lat="43.65919" lon="3.8069">
        <ele>163</ele>
        <time>2016-06-10T11:16:45Z</time>
      </trkpt>
      <trkpt lat="43.65925" lon="3.80702">
        <ele>160.1</ele>
        <time>2016-06-10T11:16:47Z</time>
      </trkpt>
      <trkpt lat="43.65926" lon="3.80712">
        <ele>159</ele>
        <time>2016-06-10T11:16:48Z</time>
      </trkpt>
      <trkpt lat="43.65923" lon="3.80725">
        <ele>156.6</ele>
        <time>2016-06-10T11:16:50Z</time>
      </trkpt>
      <trkpt lat="43.65915" lon="3.80739">
        <ele>154.2</ele>
        <time>2016-06-10T11:16:52Z</time>
      </trkpt>
      <trkpt lat="43.65909" lon="3.80754">
        <ele>151.8</ele>
        <time>2016-06-10T11:16:54Z</time>
      </trkpt>
      <trkpt lat="43.65903" lon="3.80767">
        <ele>150.4</ele>
        <time>2016-06-10T11:16:56Z</time>
      </trkpt>
      <trkpt lat="43.65896" lon="3.80777">
        <ele>150.8</ele>
        <time>2016-06-10T11:16:58Z</time>
      </trkpt>
      <trkpt lat="43.65887" lon="3.80777">
        <ele>150.4</ele>
        <time>2016-06-10T11:17:00Z</time>
      </trkpt>
      <trkpt lat="43.6588" lon="3.80775">
        <ele>150.3</ele>
        <time>2016-06-10T11:17:03Z</time>
      </trkpt>
      <trkpt lat="43.65871" lon="3.80771">
        <ele>150.3</ele>
        <time>2016-06-10T11:17:06Z</time>
      </trkpt>
      <trkpt lat="43.65863" lon="3.80768">
        <ele>150.2</ele>
        <time>2016-06-10T11:17:08Z</time>
      </trkpt>
      <trkpt lat="43.65856" lon="3.80766">
        <ele>150.2</ele>
        <time>2016-06-10T11:17:11Z</time>
      </trkpt>
      <trkpt lat="43.65848" lon="3.80758">
        <ele>149.9</ele>
        <time>2016-06-10T11:17:15Z</time>
      </trkpt>
      <trkpt lat="43.65838" lon="3.80755">
        <ele>149.6</ele>
        <time>2016-06-10T11:17:18Z</time>
      </trkpt>
      <trkpt lat="43.65829" lon="3.80751">
        <ele>149</ele>
        <time>2016-06-10T11:17:21Z</time>
      </trkpt>
      <trkpt lat="43.6582" lon="3.80746">
        <ele>148.4</ele>
        <time>2016-06-10T11:17:24Z</time>
      </trkpt>
      <trkpt lat="43.65812" lon="3.80742">
        <ele>148.1</ele>
        <time>2016-06-10T11:17:26Z</time>
      </trkpt>
      <trkpt lat="43.65806" lon="3.80737">
        <ele>146.4</ele>
        <time>2016-06-10T11:17:28Z</time>
      </trkpt>
      <trkpt lat="43.65798" lon="3.80733">
        <ele>145.7</ele>
        <time>2016-06-10T11:17:30Z</time>
      </trkpt>
      <trkpt lat="43.65785" lon="3.80733">
        <ele>145.6</ele>
        <time>2016-06-10T11:17:33Z</time>
      </trkpt>
      <trkpt lat="43.65777" lon="3.80732">
        <ele>144.9</ele>
        <time>2016-06-10T11:17:35Z</time>
      </trkpt>
      <trkpt lat="43.65768" lon="3.80732">
        <ele>144.9</ele>
        <time>2016-06-10T11:17:37Z</time>
      </trkpt>
      <trkpt lat="43.65761" lon="3.8073">
        <ele>145.1</ele>
        <time>2016-06-10T11:17:39Z</time>
      </trkpt>
      <trkpt lat="43.6575" lon="3.80728">
        <ele>145.1</ele>
        <time>2016-06-10T11:17:42Z</time>
      </trkpt>
      <trkpt lat="43.65742" lon="3.80722">
        <ele>145.1</ele>
        <time>2016-06-10T11:17:44Z</time>
      </trkpt>
      <trkpt lat="43.65734" lon="3.80717">
        <ele>145.1</ele>
        <time>2016-06-10T11:17:46Z</time>
      </trkpt>
      <trkpt lat="43.65725" lon="3.80711">
        <ele>144.4</ele>
        <time>2016-06-10T11:17:48Z</time>
      </trkpt>
      <trkpt lat="43.65718" lon="3.80704">
        <ele>143.7</ele>
        <time>2016-06-10T11:17:50Z</time>
      </trkpt>
      <trkpt lat="43.65712" lon="3.80699">
        <ele>143.6</ele>
        <time>2016-06-10T11:17:52Z</time>
      </trkpt>
      <trkpt lat="43.65702" lon="3.80699">
        <ele>143.2</ele>
        <time>2016-06-10T11:17:54Z</time>
      </trkpt>
      <trkpt lat="43.65692" lon="3.80703">
        <ele>142.8</ele>
        <time>2016-06-10T11:17:56Z</time>
      </trkpt>
      <trkpt lat="43.6568" lon="3.80707">
        <ele>143</ele>
        <time>2016-06-10T11:17:58Z</time>
      </trkpt>
      <trkpt lat="43.65668" lon="3.80712">
        <ele>142.8</ele>
        <time>2016-06-10T11:18:00Z</time>
      </trkpt>
      <trkpt lat="43.65656" lon="3.80717">
        <ele>141.8</ele>
        <time>2016-06-10T11:18:02Z</time>
      </trkpt>
      <trkpt lat="43.65645" lon="3.80723">
        <ele>141.6</ele>
        <time>2016-06-10T11:18:04Z</time>
      </trkpt>
      <trkpt lat="43.65634" lon="3.80731">
        <ele>139.8</ele>
        <time>2016-06-10T11:18:06Z</time>
      </trkpt>
      <trkpt lat="43.65627" lon="3.80736">
        <ele>139</ele>
        <time>2016-06-10T11:18:07Z</time>
      </trkpt>
      <trkpt lat="43.65615" lon="3.80746">
        <ele>138.4</ele>
        <time>2016-06-10T11:18:09Z</time>
      </trkpt>
      <trkpt lat="43.65608" lon="3.80752">
        <ele>137.9</ele>
        <time>2016-06-10T11:18:10Z</time>
      </trkpt>
      <trkpt lat="43.65602" lon="3.80758">
        <ele>137.1</ele>
        <time>2016-06-10T11:18:11Z</time>
      </trkpt>
      <trkpt lat="43.6559" lon="3.8077">
        <ele>136.6</ele>
        <time>2016-06-10T11:18:13Z</time>
      </trkpt>
      <trkpt lat="43.65579" lon="3.80782">
        <ele>136.7</ele>
        <time>2016-06-10T11:18:15Z</time>
      </trkpt>
      <trkpt lat="43.65567" lon="3.8079">
        <ele>136</ele>
        <time>2016-06-10T11:18:17Z</time>
      </trkpt>
      <trkpt lat="43.65554" lon="3.80788">
        <ele>135.2</ele>
        <time>2016-06-10T11:18:19Z</time>
      </trkpt>
      <trkpt lat="43.65543" lon="3.80784">
        <ele>135.1</ele>
        <time>2016-06-10T11:18:21Z</time>
      </trkpt>
      <trkpt lat="43.65533" lon="3.8078">
        <ele>135.3</ele>
        <time>2016-06-10T11:18:23Z</time>
      </trkpt>
      <trkpt lat="43.65525" lon="3.80777">
        <ele>135.5</ele>
        <time>2016-06-10T11:18:25Z</time>
      </trkpt>
      <trkpt lat="43.65512" lon="3.80777">
        <ele>135.4</ele>
        <time>2016-06-10T11:18:28Z</time>
      </trkpt>
      <trkpt lat="43.65501" lon="3.80778">
        <ele>135.3</ele>
        <time>2016-06-10T11:18:30Z</time>
      </trkpt>
      <trkpt lat="43.6549" lon="3.80774">
        <ele>134.2</ele>
        <time>2016-06-10T11:18:32Z</time>
      </trkpt>
      <trkpt lat="43.65479" lon="3.80766">
        <ele>133.5</ele>
        <time>2016-06-10T11:18:34Z</time>
      </trkpt>
      <trkpt lat="43.65466" lon="3.80761">
        <ele>132.8</ele>
        <time>2016-06-10T11:18:36Z</time>
      </trkpt>
      <trkpt lat="43.65456" lon="3.80759">
        <ele>132.5</ele>
        <time>2016-06-10T11:18:38Z</time>
      </trkpt>
      <trkpt lat="43.65444" lon="3.80759">
        <ele>131.3</ele>
        <time>2016-06-10T11:18:40Z</time>
      </trkpt>
      <trkpt lat="43.65434" lon="3.80758">
        <ele>131.5</ele>
        <time>2016-06-10T11:18:42Z</time>
      </trkpt>
      <trkpt lat="43.65425" lon="3.80757">
        <ele>132.3</ele>
        <time>2016-06-10T11:18:44Z</time>
      </trkpt>
      <trkpt lat="43.65417" lon="3.80755">
        <ele>133.8</ele>
        <time>2016-06-10T11:18:46Z</time>
      </trkpt>
      <trkpt lat="43.65408" lon="3.80751">
        <ele>133.6</ele>
        <time>2016-06-10T11:18:48Z</time>
      </trkpt>
      <trkpt lat="43.65398" lon="3.80747">
        <ele>133.4</ele>
        <time>2016-06-10T11:18:50Z</time>
      </trkpt>
      <trkpt lat="43.65388" lon="3.80745">
        <ele>133.9</ele>
        <time>2016-06-10T11:18:52Z</time>
      </trkpt>
      <trkpt lat="43.65377" lon="3.80741">
        <ele>134.4</ele>
        <time>2016-06-10T11:18:54Z</time>
      </trkpt>
      <trkpt lat="43.65368" lon="3.80738">
        <ele>134.9</ele>
        <time>2016-06-10T11:18:56Z</time>
      </trkpt>
      <trkpt lat="43.65356" lon="3.80733">
        <ele>135.1</ele>
        <time>2016-06-10T11:18:58Z</time>
      </trkpt>
      <trkpt lat="43.65347" lon="3.8074">
        <ele>134.1</ele>
        <time>2016-06-10T11:19:00Z</time>
      </trkpt>
      <trkpt lat="43.65342" lon="3.80756">
        <ele>133.3</ele>
        <time>2016-06-10T11:19:02Z</time>
      </trkpt>
      <trkpt lat="43.65338" lon="3.80764">
        <ele>132.7</ele>
        <time>2016-06-10T11:19:03Z</time>
      </trkpt>
      <trkpt lat="43.65334" lon="3.80773">
        <ele>131.8</ele>
        <time>2016-06-10T11:19:04Z</time>
      </trkpt>
      <trkpt lat="43.65327" lon="3.8079">
        <ele>129.8</ele>
        <time>2016-06-10T11:19:06Z</time>
      </trkpt>
      <trkpt lat="43.65322" lon="3.80799">
        <ele>129.2</ele>
        <time>2016-06-10T11:19:07Z</time>
      </trkpt>
      <trkpt lat="43.65319" lon="3.80808">
        <ele>128.9</ele>
        <time>2016-06-10T11:19:08Z</time>
      </trkpt>
      <trkpt lat="43.65315" lon="3.80816">
        <ele>128.4</ele>
        <time>2016-06-10T11:19:09Z</time>
      </trkpt>
      <trkpt lat="43.65311" lon="3.80825">
        <ele>128.3</ele>
        <time>2016-06-10T11:19:10Z</time>
      </trkpt>
      <trkpt lat="43.65306" lon="3.80834">
        <ele>128.1</ele>
        <time>2016-06-10T11:19:11Z</time>
      </trkpt>
      <trkpt lat="43.65301" lon="3.80842">
        <ele>127.6</ele>
        <time>2016-06-10T11:19:12Z</time>
      </trkpt>
      <trkpt lat="43.65296" lon="3.80851">
        <ele>127.4</ele>
        <time>2016-06-10T11:19:13Z</time>
      </trkpt>
      <trkpt lat="43.65287" lon="3.80867">
        <ele>126.6</ele>
        <time>2016-06-10T11:19:15Z</time>
      </trkpt>
      <trkpt lat="43.6528" lon="3.80882">
        <ele>125.3</ele>
        <time>2016-06-10T11:19:17Z</time>
      </trkpt>
      <trkpt lat="43.65275" lon="3.80891">
        <ele>125.4</ele>
        <time>2016-06-10T11:19:18Z</time>
      </trkpt>
      <trkpt lat="43.65267" lon="3.80906">
        <ele>124.4</ele>
        <time>2016-06-10T11:19:20Z</time>
      </trkpt>
      <trkpt lat="43.65259" lon="3.80919">
        <ele>123.6</ele>
        <time>2016-06-10T11:19:22Z</time>
      </trkpt>
      <trkpt lat="43.65254" lon="3.80929">
        <ele>123.1</ele>
        <time>2016-06-10T11:19:24Z</time>
      </trkpt>
      <trkpt lat="43.65249" lon="3.8094">
        <ele>123.1</ele>
        <time>2016-06-10T11:19:27Z</time>
      </trkpt>
      <trkpt lat="43.65247" lon="3.80954">
        <ele>123.3</ele>
        <time>2016-06-10T11:19:30Z</time>
      </trkpt>
      <trkpt lat="43.65243" lon="3.80964">
        <ele>122.7</ele>
        <time>2016-06-10T11:19:32Z</time>
      </trkpt>
      <trkpt lat="43.6524" lon="3.80974">
        <ele>122.3</ele>
        <time>2016-06-10T11:19:34Z</time>
      </trkpt>
      <trkpt lat="43.65236" lon="3.80984">
        <ele>122.7</ele>
        <time>2016-06-10T11:19:36Z</time>
      </trkpt>
      <trkpt lat="43.65231" lon="3.80996">
        <ele>123.5</ele>
        <time>2016-06-10T11:19:38Z</time>
      </trkpt>
      <trkpt lat="43.65225" lon="3.81007">
        <ele>123.9</ele>
        <time>2016-06-10T11:19:40Z</time>
      </trkpt>
      <trkpt lat="43.6522" lon="3.81017">
        <ele>123.5</ele>
        <time>2016-06-10T11:19:42Z</time>
      </trkpt>
      <trkpt lat="43.65215" lon="3.81025">
        <ele>123.1</ele>
        <time>2016-06-10T11:19:44Z</time>
      </trkpt>
      <trkpt lat="43.65211" lon="3.81033">
        <ele>123.8</ele>
        <time>2016-06-10T11:19:46Z</time>
      </trkpt>
      <trkpt lat="43.65205" lon="3.81043">
        <ele>124</ele>
        <time>2016-06-10T11:19:48Z</time>
      </trkpt>
      <trkpt lat="43.652" lon="3.81051">
        <ele>126.3</ele>
        <time>2016-06-10T11:19:50Z</time>
      </trkpt>
      <trkpt lat="43.65193" lon="3.81062">
        <ele>127.1</ele>
        <time>2016-06-10T11:19:53Z</time>
      </trkpt>
      <trkpt lat="43.65188" lon="3.81072">
        <ele>127.1</ele>
        <time>2016-06-10T11:19:56Z</time>
      </trkpt>
      <trkpt lat="43.65183" lon="3.81086">
        <ele>125.9</ele>
        <time>2016-06-10T11:19:59Z</time>
      </trkpt>
      <trkpt lat="43.65181" lon="3.81096">
        <ele>125.6</ele>
        <time>2016-06-10T11:20:03Z</time>
      </trkpt>
      <trkpt lat="43.65176" lon="3.81104">
        <ele>125.5</ele>
        <time>2016-06-10T11:20:05Z</time>
      </trkpt>
      <trkpt lat="43.65172" lon="3.81116">
        <ele>125.4</ele>
        <time>2016-06-10T11:20:08Z</time>
      </trkpt>
      <trkpt lat="43.65171" lon="3.81129">
        <ele>125.5</ele>
        <time>2016-06-10T11:20:12Z</time>
      </trkpt>
      <trkpt lat="43.65177" lon="3.81139">
        <ele>125.8</ele>
        <time>2016-06-10T11:20:16Z</time>
      </trkpt>
      <trkpt lat="43.65183" lon="3.81147">
        <ele>126.2</ele>
        <time>2016-06-10T11:20:20Z</time>
      </trkpt>
      <trkpt lat="43.65189" lon="3.81154">
        <ele>126.5</ele>
        <time>2016-06-10T11:20:23Z</time>
      </trkpt>
      <trkpt lat="43.65198" lon="3.81162">
        <ele>126.6</ele>
        <time>2016-06-10T11:20:26Z</time>
      </trkpt>
      <trkpt lat="43.65205" lon="3.8117">
        <ele>126.8</ele>
        <time>2016-06-10T11:20:29Z</time>
      </trkpt>
      <trkpt lat="43.65214" lon="3.8118">
        <ele>127</ele>
        <time>2016-06-10T11:20:32Z</time>
      </trkpt>
      <trkpt lat="43.6522" lon="3.81186">
        <ele>127.5</ele>
        <time>2016-06-10T11:20:34Z</time>
      </trkpt>
      <trkpt lat="43.65229" lon="3.81195">
        <ele>127.5</ele>
        <time>2016-06-10T11:20:37Z</time>
      </trkpt>
      <trkpt lat="43.65234" lon="3.81207">
        <ele>128.1</ele>
        <time>2016-06-10T11:20:40Z</time>
      </trkpt>
      <trkpt lat="43.65235" lon="3.81225">
        <ele>128.9</ele>
        <time>2016-06-10T11:20:42Z</time>
      </trkpt>
      <trkpt lat="43.65235" lon="3.81243">
        <ele>128</ele>
        <time>2016-06-10T11:20:44Z</time>
      </trkpt>
      <trkpt lat="43.65236" lon="3.81254">
        <ele>127.1</ele>
        <time>2016-06-10T11:20:45Z</time>
      </trkpt>
      <trkpt lat="43.65238" lon="3.81271">
        <ele>125.2</ele>
        <time>2016-06-10T11:20:47Z</time>
      </trkpt>
      <trkpt lat="43.65239" lon="3.81286">
        <ele>125.1</ele>
        <time>2016-06-10T11:20:49Z</time>
      </trkpt>
      <trkpt lat="43.65241" lon="3.81297">
        <ele>124.9</ele>
        <time>2016-06-10T11:20:54Z</time>
      </trkpt>
      <trkpt lat="43.65246" lon="3.81307">
        <ele>125</ele>
        <time>2016-06-10T11:20:57Z</time>
      </trkpt>
      <trkpt lat="43.65249" lon="3.81316">
        <ele>124.9</ele>
        <time>2016-06-10T11:20:59Z</time>
      </trkpt>
      <trkpt lat="43.65252" lon="3.81329">
        <ele>124.8</ele>
        <time>2016-06-10T11:21:02Z</time>
      </trkpt>
      <trkpt lat="43.65255" lon="3.81341">
        <ele>124.5</ele>
        <time>2016-06-10T11:21:05Z</time>
      </trkpt>
      <trkpt lat="43.65256" lon="3.81351">
        <ele>124.5</ele>
        <time>2016-06-10T11:21:08Z</time>
      </trkpt>
      <trkpt lat="43.65258" lon="3.81364">
        <ele>124.4</ele>
        <time>2016-06-10T11:21:11Z</time>
      </trkpt>
      <trkpt lat="43.65264" lon="3.81377">
        <ele>125</ele>
        <time>2016-06-10T11:21:14Z</time>
      </trkpt>
      <trkpt lat="43.65267" lon="3.81389">
        <ele>124.9</ele>
        <time>2016-06-10T11:21:17Z</time>
      </trkpt>
      <trkpt lat="43.65273" lon="3.81399">
        <ele>125.1</ele>
        <time>2016-06-10T11:21:20Z</time>
      </trkpt>
      <trkpt lat="43.65275" lon="3.81408">
        <ele>125.2</ele>
        <time>2016-06-10T11:21:22Z</time>
      </trkpt>
      <trkpt lat="43.65276" lon="3.81422">
        <ele>125.3</ele>
        <time>2016-06-10T11:21:25Z</time>
      </trkpt>
      <trkpt lat="43.65276" lon="3.81433">
        <ele>125.2</ele>
        <time>2016-06-10T11:21:27Z</time>
      </trkpt>
      <trkpt lat="43.65276" lon="3.81444">
        <ele>125.6</ele>
        <time>2016-06-10T11:21:29Z</time>
      </trkpt>
      <trkpt lat="43.65279" lon="3.8146">
        <ele>125.6</ele>
        <time>2016-06-10T11:21:32Z</time>
      </trkpt>
      <trkpt lat="43.65282" lon="3.81472">
        <ele>126.3</ele>
        <time>2016-06-10T11:21:34Z</time>
      </trkpt>
      <trkpt lat="43.65285" lon="3.81483">
        <ele>125.9</ele>
        <time>2016-06-10T11:21:36Z</time>
      </trkpt>
      <trkpt lat="43.6529" lon="3.81495">
        <ele>126.4</ele>
        <time>2016-06-10T11:21:39Z</time>
      </trkpt>
      <trkpt lat="43.65294" lon="3.8151">
        <ele>127.7</ele>
        <time>2016-06-10T11:21:42Z</time>
      </trkpt>
      <trkpt lat="43.65297" lon="3.8152">
        <ele>127.9</ele>
        <time>2016-06-10T11:21:44Z</time>
      </trkpt>
      <trkpt lat="43.653" lon="3.81529">
        <ele>128.5</ele>
        <time>2016-06-10T11:21:46Z</time>
      </trkpt>
      <trkpt lat="43.65304" lon="3.8154">
        <ele>128.8</ele>
        <time>2016-06-10T11:21:48Z</time>
      </trkpt>
      <trkpt lat="43.65308" lon="3.81551">
        <ele>128.7</ele>
        <time>2016-06-10T11:21:50Z</time>
      </trkpt>
      <trkpt lat="43.65311" lon="3.81567">
        <ele>129</ele>
        <time>2016-06-10T11:21:53Z</time>
      </trkpt>
      <trkpt lat="43.65312" lon="3.8158">
        <ele>130.7</ele>
        <time>2016-06-10T11:21:55Z</time>
      </trkpt>
      <trkpt lat="43.65313" lon="3.81594">
        <ele>131</ele>
        <time>2016-06-10T11:21:58Z</time>
      </trkpt>
      <trkpt lat="43.65316" lon="3.8161">
        <ele>132.6</ele>
        <time>2016-06-10T11:22:01Z</time>
      </trkpt>
      <trkpt lat="43.65318" lon="3.8162">
        <ele>134</ele>
        <time>2016-06-10T11:22:03Z</time>
      </trkpt>
      <trkpt lat="43.65321" lon="3.81632">
        <ele>133.9</ele>
        <time>2016-06-10T11:22:05Z</time>
      </trkpt>
      <trkpt lat="43.65325" lon="3.81643">
        <ele>133.9</ele>
        <time>2016-06-10T11:22:07Z</time>
      </trkpt>
      <trkpt lat="43.65328" lon="3.81654">
        <ele>133.4</ele>
        <time>2016-06-10T11:22:09Z</time>
      </trkpt>
      <trkpt lat="43.65332" lon="3.81665">
        <ele>133.5</ele>
        <time>2016-06-10T11:22:11Z</time>
      </trkpt>
      <trkpt lat="43.65336" lon="3.81676">
        <ele>133.2</ele>
        <time>2016-06-10T11:22:13Z</time>
      </trkpt>
      <trkpt lat="43.65339" lon="3.81687">
        <ele>132.7</ele>
        <time>2016-06-10T11:22:15Z</time>
      </trkpt>
      <trkpt lat="43.65344" lon="3.81699">
        <ele>133.4</ele>
        <time>2016-06-10T11:22:17Z</time>
      </trkpt>
      <trkpt lat="43.65348" lon="3.81709">
        <ele>134</ele>
        <time>2016-06-10T11:22:19Z</time>
      </trkpt>
      <trkpt lat="43.65353" lon="3.81719">
        <ele>135.4</ele>
        <time>2016-06-10T11:22:21Z</time>
      </trkpt>
      <trkpt lat="43.65358" lon="3.81733">
        <ele>136.1</ele>
        <time>2016-06-10T11:22:23Z</time>
      </trkpt>
      <trkpt lat="43.65363" lon="3.81747">
        <ele>136.9</ele>
        <time>2016-06-10T11:22:25Z</time>
      </trkpt>
      <trkpt lat="43.6537" lon="3.81757">
        <ele>136.9</ele>
        <time>2016-06-10T11:22:28Z</time>
      </trkpt>
      <trkpt lat="43.65375" lon="3.81765">
        <ele>136.9</ele>
        <time>2016-06-10T11:22:30Z</time>
      </trkpt>
      <trkpt lat="43.6538" lon="3.81775">
        <ele>136.2</ele>
        <time>2016-06-10T11:22:32Z</time>
      </trkpt>
      <trkpt lat="43.65385" lon="3.81783">
        <ele>135.6</ele>
        <time>2016-06-10T11:22:34Z</time>
      </trkpt>
      <trkpt lat="43.65394" lon="3.81799">
        <ele>133.1</ele>
        <time>2016-06-10T11:22:38Z</time>
      </trkpt>
      <trkpt lat="43.65399" lon="3.81815">
        <ele>132.7</ele>
        <time>2016-06-10T11:22:39Z</time>
      </trkpt>
      <trkpt lat="43.65402" lon="3.81825">
        <ele>133.1</ele>
        <time>2016-06-10T11:22:40Z</time>
      </trkpt>
      <trkpt lat="43.65408" lon="3.81841">
        <ele>132.8</ele>
        <time>2016-06-10T11:22:42Z</time>
      </trkpt>
      <trkpt lat="43.65407" lon="3.81856">
        <ele>132.9</ele>
        <time>2016-06-10T11:22:44Z</time>
      </trkpt>
      <trkpt lat="43.65411" lon="3.8187">
        <ele>132.8</ele>
        <time>2016-06-10T11:22:46Z</time>
      </trkpt>
      <trkpt lat="43.65415" lon="3.81885">
        <ele>132.6</ele>
        <time>2016-06-10T11:22:48Z</time>
      </trkpt>
      <trkpt lat="43.65417" lon="3.819">
        <ele>132.7</ele>
        <time>2016-06-10T11:22:50Z</time>
      </trkpt>
      <trkpt lat="43.65418" lon="3.81915">
        <ele>132.2</ele>
        <time>2016-06-10T11:22:52Z</time>
      </trkpt>
      <trkpt lat="43.65422" lon="3.81927">
        <ele>131.6</ele>
        <time>2016-06-10T11:22:54Z</time>
      </trkpt>
      <trkpt lat="43.65427" lon="3.8194">
        <ele>132.1</ele>
        <time>2016-06-10T11:22:56Z</time>
      </trkpt>
      <trkpt lat="43.65429" lon="3.81949">
        <ele>131.3</ele>
        <time>2016-06-10T11:22:58Z</time>
      </trkpt>
      <trkpt lat="43.65433" lon="3.8196">
        <ele>131.2</ele>
        <time>2016-06-10T11:23:00Z</time>
      </trkpt>
      <trkpt lat="43.65428" lon="3.8197">
        <ele>131</ele>
        <time>2016-06-10T11:23:04Z</time>
      </trkpt>
      <trkpt lat="43.65419" lon="3.81976">
        <ele>131.3</ele>
        <time>2016-06-10T11:23:07Z</time>
      </trkpt>
      <trkpt lat="43.65413" lon="3.81986">
        <ele>131.4</ele>
        <time>2016-06-10T11:23:09Z</time>
      </trkpt>
      <trkpt lat="43.6541" lon="3.81995">
        <ele>131.4</ele>
        <time>2016-06-10T11:23:11Z</time>
      </trkpt>
      <trkpt lat="43.65404" lon="3.82004">
        <ele>131.6</ele>
        <time>2016-06-10T11:23:14Z</time>
      </trkpt>
      <trkpt lat="43.654" lon="3.82015">
        <ele>131.9</ele>
        <time>2016-06-10T11:23:17Z</time>
      </trkpt>
      <trkpt lat="43.65395" lon="3.82024">
        <ele>132.1</ele>
        <time>2016-06-10T11:23:19Z</time>
      </trkpt>
      <trkpt lat="43.65392" lon="3.82036">
        <ele>134.4</ele>
        <time>2016-06-10T11:23:21Z</time>
      </trkpt>
      <trkpt lat="43.65392" lon="3.8205">
        <ele>135.2</ele>
        <time>2016-06-10T11:23:23Z</time>
      </trkpt>
      <trkpt lat="43.65396" lon="3.82061">
        <ele>135.1</ele>
        <time>2016-06-10T11:23:28Z</time>
      </trkpt>
      <trkpt lat="43.654" lon="3.8207">
        <ele>135.1</ele>
        <time>2016-06-10T11:23:30Z</time>
      </trkpt>
      <trkpt lat="43.65404" lon="3.8208">
        <ele>135.9</ele>
        <time>2016-06-10T11:23:32Z</time>
      </trkpt>
      <trkpt lat="43.65411" lon="3.82088">
        <ele>137.1</ele>
        <time>2016-06-10T11:23:34Z</time>
      </trkpt>
      <trkpt lat="43.65409" lon="3.82105">
        <ele>136.1</ele>
        <time>2016-06-10T11:23:36Z</time>
      </trkpt>
      <trkpt lat="43.65406" lon="3.82121">
        <ele>134.8</ele>
        <time>2016-06-10T11:23:38Z</time>
      </trkpt>
      <trkpt lat="43.65406" lon="3.82137">
        <ele>133.8</ele>
        <time>2016-06-10T11:23:40Z</time>
      </trkpt>
      <trkpt lat="43.65403" lon="3.82152">
        <ele>131.8</ele>
        <time>2016-06-10T11:23:42Z</time>
      </trkpt>
      <trkpt lat="43.65402" lon="3.82164">
        <ele>130.2</ele>
        <time>2016-06-10T11:23:44Z</time>
      </trkpt>
      <trkpt lat="43.65401" lon="3.82175">
        <ele>130.6</ele>
        <time>2016-06-10T11:23:46Z</time>
      </trkpt>
      <trkpt lat="43.65399" lon="3.82188">
        <ele>130.6</ele>
        <time>2016-06-10T11:23:48Z</time>
      </trkpt>
      <trkpt lat="43.65395" lon="3.82199">
        <ele>130.1</ele>
        <time>2016-06-10T11:23:50Z</time>
      </trkpt>
      <trkpt lat="43.65385" lon="3.82208">
        <ele>130.9</ele>
        <time>2016-06-10T11:23:52Z</time>
      </trkpt>
      <trkpt lat="43.65378" lon="3.82212">
        <ele>131</ele>
        <time>2016-06-10T11:23:54Z</time>
      </trkpt>
      <trkpt lat="43.6537" lon="3.8222">
        <ele>131</ele>
        <time>2016-06-10T11:23:58Z</time>
      </trkpt>
      <trkpt lat="43.65366" lon="3.8223">
        <ele>131.3</ele>
        <time>2016-06-10T11:24:02Z</time>
      </trkpt>
      <trkpt lat="43.65362" lon="3.82239">
        <ele>131.6</ele>
        <time>2016-06-10T11:24:05Z</time>
      </trkpt>
      <trkpt lat="43.6536" lon="3.82253">
        <ele>132.1</ele>
        <time>2016-06-10T11:24:09Z</time>
      </trkpt>
      <trkpt lat="43.65359" lon="3.82265">
        <ele>132.4</ele>
        <time>2016-06-10T11:24:11Z</time>
      </trkpt>
      <trkpt lat="43.65359" lon="3.82277">
        <ele>132.9</ele>
        <time>2016-06-10T11:24:14Z</time>
      </trkpt>
      <trkpt lat="43.65359" lon="3.82289">
        <ele>133.6</ele>
        <time>2016-06-10T11:24:17Z</time>
      </trkpt>
      <trkpt lat="43.65357" lon="3.82301">
        <ele>134</ele>
        <time>2016-06-10T11:24:20Z</time>
      </trkpt>
      <trkpt lat="43.65354" lon="3.82314">
        <ele>134.3</ele>
        <time>2016-06-10T11:24:23Z</time>
      </trkpt>
      <trkpt lat="43.65351" lon="3.82326">
        <ele>134.6</ele>
        <time>2016-06-10T11:24:26Z</time>
      </trkpt>
      <trkpt lat="43.6535" lon="3.82337">
        <ele>134.9</ele>
        <time>2016-06-10T11:24:30Z</time>
      </trkpt>
      <trkpt lat="43.65348" lon="3.8235">
        <ele>135.3</ele>
        <time>2016-06-10T11:24:34Z</time>
      </trkpt>
      <trkpt lat="43.65347" lon="3.82363">
        <ele>135.9</ele>
        <time>2016-06-10T11:24:38Z</time>
      </trkpt>
      <trkpt lat="43.65346" lon="3.82374">
        <ele>136.3</ele>
        <time>2016-06-10T11:24:42Z</time>
      </trkpt>
      <trkpt lat="43.65345" lon="3.82387">
        <ele>136.7</ele>
        <time>2016-06-10T11:24:45Z</time>
      </trkpt>
      <trkpt lat="43.65344" lon="3.82397">
        <ele>137.1</ele>
        <time>2016-06-10T11:24:48Z</time>
      </trkpt>
      <trkpt lat="43.65342" lon="3.82407">
        <ele>137.6</ele>
        <time>2016-06-10T11:24:52Z</time>
      </trkpt>
      <trkpt lat="43.65342" lon="3.82417">
        <ele>138</ele>
        <time>2016-06-10T11:24:55Z</time>
      </trkpt>
      <trkpt lat="43.65341" lon="3.82428">
        <ele>138.2</ele>
        <time>2016-06-10T11:24:58Z</time>
      </trkpt>
      <trkpt lat="43.6534" lon="3.82439">
        <ele>138.5</ele>
        <time>2016-06-10T11:25:01Z</time>
      </trkpt>
      <trkpt lat="43.65336" lon="3.82447">
        <ele>138.9</ele>
        <time>2016-06-10T11:25:04Z</time>
      </trkpt>
      <trkpt lat="43.65333" lon="3.82458">
        <ele>139.6</ele>
        <time>2016-06-10T11:25:09Z</time>
      </trkpt>
      <trkpt lat="43.65331" lon="3.82467">
        <ele>139.8</ele>
        <time>2016-06-10T11:25:12Z</time>
      </trkpt>
      <trkpt lat="43.6533" lon="3.8248">
        <ele>140.5</ele>
        <time>2016-06-10T11:25:16Z</time>
      </trkpt>
      <trkpt lat="43.6533" lon="3.8249">
        <ele>141</ele>
        <time>2016-06-10T11:25:19Z</time>
      </trkpt>
      <trkpt lat="43.6533" lon="3.82502">
        <ele>142.4</ele>
        <time>2016-06-10T11:25:25Z</time>
      </trkpt>
      <trkpt lat="43.65328" lon="3.82514">
        <ele>143.2</ele>
        <time>2016-06-10T11:25:28Z</time>
      </trkpt>
      <trkpt lat="43.65326" lon="3.82524">
        <ele>144.1</ele>
        <time>2016-06-10T11:25:32Z</time>
      </trkpt>
      <trkpt lat="43.65326" lon="3.82534">
        <ele>145.5</ele>
        <time>2016-06-10T11:25:39Z</time>
      </trkpt>
      <trkpt lat="43.65327" lon="3.82545">
        <ele>146.6</ele>
        <time>2016-06-10T11:25:44Z</time>
      </trkpt>
      <trkpt lat="43.65327" lon="3.82551">
        <ele>147.9</ele>
        <time>2016-06-10T11:25:51Z</time>
      </trkpt>
      <trkpt lat="43.65328" lon="3.82562">
        <ele>148</ele>
        <time>2016-06-10T11:25:52Z</time>
      </trkpt>
      <trkpt lat="43.65328" lon="3.82564">
        <ele>149.3</ele>
        <time>2016-06-10T11:25:59Z</time>
      </trkpt>
      <trkpt lat="43.65315" lon="3.82568">
        <ele>149.7</ele>
        <time>2016-06-10T11:26:03Z</time>
      </trkpt>
      <trkpt lat="43.65307" lon="3.82567">
        <ele>150.3</ele>
        <time>2016-06-10T11:26:08Z</time>
      </trkpt>
      <trkpt lat="43.65299" lon="3.82568">
        <ele>151.4</ele>
        <time>2016-06-10T11:26:14Z</time>
      </trkpt>
      <trkpt lat="43.6529" lon="3.8257">
        <ele>151.8</ele>
        <time>2016-06-10T11:26:19Z</time>
      </trkpt>
      <trkpt lat="43.65282" lon="3.82569">
        <ele>152.8</ele>
        <time>2016-06-10T11:26:24Z</time>
      </trkpt>
      <trkpt lat="43.65273" lon="3.82567">
        <ele>154</ele>
        <time>2016-06-10T11:26:30Z</time>
      </trkpt>
      <trkpt lat="43.65264" lon="3.82568">
        <ele>154.7</ele>
        <time>2016-06-10T11:26:34Z</time>
      </trkpt>
      <trkpt lat="43.65257" lon="3.8257">
        <ele>155.7</ele>
        <time>2016-06-10T11:26:39Z</time>
      </trkpt>
      <trkpt lat="43.65254" lon="3.82576">
        <ele>157.5</ele>
        <time>2016-06-10T11:26:46Z</time>
      </trkpt>
      <trkpt lat="43.65247" lon="3.82588">
        <ele>159.9</ele>
        <time>2016-06-10T11:26:53Z</time>
      </trkpt>
      <trkpt lat="43.65246" lon="3.8259">
        <ele>162</ele>
        <time>2016-06-10T11:27:00Z</time>
      </trkpt>
      <trkpt lat="43.65224" lon="3.82596">
        <ele>163.3</ele>
        <time>2016-06-10T11:27:05Z</time>
      </trkpt>
      <trkpt lat="43.65217" lon="3.82592">
        <ele>163.6</ele>
        <time>2016-06-10T11:27:07Z</time>
      </trkpt>
      <trkpt lat="43.65208" lon="3.82586">
        <ele>164</ele>
        <time>2016-06-10T11:27:10Z</time>
      </trkpt>
      <trkpt lat="43.65201" lon="3.82576">
        <ele>164.3</ele>
        <time>2016-06-10T11:27:13Z</time>
      </trkpt>
      <trkpt lat="43.65194" lon="3.82564">
        <ele>166.6</ele>
        <time>2016-06-10T11:27:15Z</time>
      </trkpt>
      <trkpt lat="43.6519" lon="3.82556">
        <ele>166.8</ele>
        <time>2016-06-10T11:27:17Z</time>
      </trkpt>
      <trkpt lat="43.65183" lon="3.82546">
        <ele>167.9</ele>
        <time>2016-06-10T11:27:19Z</time>
      </trkpt>
      <trkpt lat="43.65175" lon="3.82535">
        <ele>168.1</ele>
        <time>2016-06-10T11:27:22Z</time>
      </trkpt>
      <trkpt lat="43.65169" lon="3.8253">
        <ele>168.5</ele>
        <time>2016-06-10T11:27:25Z</time>
      </trkpt>
      <trkpt lat="43.65162" lon="3.82522">
        <ele>168.5</ele>
        <time>2016-06-10T11:27:29Z</time>
      </trkpt>
      <trkpt lat="43.65156" lon="3.82514">
        <ele>168.3</ele>
        <time>2016-06-10T11:27:32Z</time>
      </trkpt>
      <trkpt lat="43.65152" lon="3.82506">
        <ele>168.3</ele>
        <time>2016-06-10T11:27:34Z</time>
      </trkpt>
      <trkpt lat="43.65149" lon="3.82495">
        <ele>168.1</ele>
        <time>2016-06-10T11:27:38Z</time>
      </trkpt>
      <trkpt lat="43.65152" lon="3.82484">
        <ele>168.2</ele>
        <time>2016-06-10T11:27:40Z</time>
      </trkpt>
      <trkpt lat="43.65156" lon="3.82471">
        <ele>168</ele>
        <time>2016-06-10T11:27:43Z</time>
      </trkpt>
      <trkpt lat="43.65159" lon="3.8246">
        <ele>167.8</ele>
        <time>2016-06-10T11:27:46Z</time>
      </trkpt>
      <trkpt lat="43.65158" lon="3.8245">
        <ele>167.5</ele>
        <time>2016-06-10T11:27:49Z</time>
      </trkpt>
      <trkpt lat="43.65158" lon="3.82439">
        <ele>167.4</ele>
        <time>2016-06-10T11:27:52Z</time>
      </trkpt>
      <trkpt lat="43.65157" lon="3.82426">
        <ele>167.4</ele>
        <time>2016-06-10T11:27:56Z</time>
      </trkpt>
      <trkpt lat="43.65154" lon="3.82416">
        <ele>167.1</ele>
        <time>2016-06-10T11:27:59Z</time>
      </trkpt>
      <trkpt lat="43.65149" lon="3.82407">
        <ele>166.9</ele>
        <time>2016-06-10T11:28:02Z</time>
      </trkpt>
      <trkpt lat="43.65144" lon="3.82398">
        <ele>166.7</ele>
        <time>2016-06-10T11:28:05Z</time>
      </trkpt>
      <trkpt lat="43.65139" lon="3.82388">
        <ele>166.5</ele>
        <time>2016-06-10T11:28:09Z</time>
      </trkpt>
      <trkpt lat="43.65134" lon="3.82378">
        <ele>166.5</ele>
        <time>2016-06-10T11:28:13Z</time>
      </trkpt>
      <trkpt lat="43.65129" lon="3.82371">
        <ele>166.7</ele>
        <time>2016-06-10T11:28:16Z</time>
      </trkpt>
      <trkpt lat="43.65121" lon="3.82365">
        <ele>167.4</ele>
        <time>2016-06-10T11:28:20Z</time>
      </trkpt>
      <trkpt lat="43.65114" lon="3.82359">
        <ele>168.1</ele>
        <time>2016-06-10T11:28:24Z</time>
      </trkpt>
      <trkpt lat="43.65106" lon="3.82355">
        <ele>168.6</ele>
        <time>2016-06-10T11:28:27Z</time>
      </trkpt>
      <trkpt lat="43.65096" lon="3.82354">
        <ele>169</ele>
        <time>2016-06-10T11:28:30Z</time>
      </trkpt>
      <trkpt lat="43.6509" lon="3.82343">
        <ele>169.5</ele>
        <time>2016-06-10T11:28:35Z</time>
      </trkpt>
      <trkpt lat="43.6509" lon="3.8233">
        <ele>169.8</ele>
        <time>2016-06-10T11:28:38Z</time>
      </trkpt>
      <trkpt lat="43.6509" lon="3.82319">
        <ele>169.7</ele>
        <time>2016-06-10T11:28:40Z</time>
      </trkpt>
      <trkpt lat="43.65092" lon="3.82307">
        <ele>169.7</ele>
        <time>2016-06-10T11:28:43Z</time>
      </trkpt>
      <trkpt lat="43.65093" lon="3.82297">
        <ele>169.4</ele>
        <time>2016-06-10T11:28:46Z</time>
      </trkpt>
      <trkpt lat="43.65097" lon="3.82285">
        <ele>169</ele>
        <time>2016-06-10T11:28:49Z</time>
      </trkpt>
      <trkpt lat="43.651" lon="3.82274">
        <ele>165.5</ele>
        <time>2016-06-10T11:28:51Z</time>
      </trkpt>
      <trkpt lat="43.65102" lon="3.82265">
        <ele>161.9</ele>
        <time>2016-06-10T11:28:53Z</time>
      </trkpt>
      <trkpt lat="43.65099" lon="3.82256">
        <ele>161</ele>
        <time>2016-06-10T11:28:59Z</time>
      </trkpt>
      <trkpt lat="43.6509" lon="3.82256">
        <ele>160</ele>
        <time>2016-06-10T11:29:03Z</time>
      </trkpt>
      <trkpt lat="43.65082" lon="3.82252">
        <ele>157.5</ele>
        <time>2016-06-10T11:29:06Z</time>
      </trkpt>
      <trkpt lat="43.65073" lon="3.82249">
        <ele>154.5</ele>
        <time>2016-06-10T11:29:08Z</time>
      </trkpt>
      <trkpt lat="43.65065" lon="3.82251">
        <ele>153.4</ele>
        <time>2016-06-10T11:29:10Z</time>
      </trkpt>
      <trkpt lat="43.65058" lon="3.82253">
        <ele>153.2</ele>
        <time>2016-06-10T11:29:12Z</time>
      </trkpt>
      <trkpt lat="43.6505" lon="3.82254">
        <ele>152.9</ele>
        <time>2016-06-10T11:29:14Z</time>
      </trkpt>
      <trkpt lat="43.65041" lon="3.82254">
        <ele>152.5</ele>
        <time>2016-06-10T11:29:17Z</time>
      </trkpt>
      <trkpt lat="43.65032" lon="3.82254">
        <ele>152</ele>
        <time>2016-06-10T11:29:21Z</time>
      </trkpt>
      <trkpt lat="43.65023" lon="3.82254">
        <ele>151.7</ele>
        <time>2016-06-10T11:29:25Z</time>
      </trkpt>
      <trkpt lat="43.65016" lon="3.82243">
        <ele>150.4</ele>
        <time>2016-06-10T11:29:28Z</time>
      </trkpt>
      <trkpt lat="43.6501" lon="3.82229">
        <ele>148.8</ele>
        <time>2016-06-10T11:29:30Z</time>
      </trkpt>
      <trkpt lat="43.65006" lon="3.82215">
        <ele>147</ele>
        <time>2016-06-10T11:29:32Z</time>
      </trkpt>
      <trkpt lat="43.64995" lon="3.82206">
        <ele>143.9</ele>
        <time>2016-06-10T11:29:34Z</time>
      </trkpt>
      <trkpt lat="43.64985" lon="3.822">
        <ele>142.5</ele>
        <time>2016-06-10T11:29:36Z</time>
      </trkpt>
      <trkpt lat="43.6498" lon="3.82191">
        <ele>142.4</ele>
        <time>2016-06-10T11:29:39Z</time>
      </trkpt>
      <trkpt lat="43.64974" lon="3.82183">
        <ele>142.1</ele>
        <time>2016-06-10T11:29:43Z</time>
      </trkpt>
      <trkpt lat="43.6497" lon="3.82193">
        <ele>141.5</ele>
        <time>2016-06-10T11:29:49Z</time>
      </trkpt>
      <trkpt lat="43.64967" lon="3.82205">
        <ele>141</ele>
        <time>2016-06-10T11:29:53Z</time>
      </trkpt>
      <trkpt lat="43.64964" lon="3.82218">
        <ele>140.7</ele>
        <time>2016-06-10T11:29:57Z</time>
      </trkpt>
      <trkpt lat="43.64958" lon="3.82226">
        <ele>140.4</ele>
        <time>2016-06-10T11:30:00Z</time>
      </trkpt>
      <trkpt lat="43.64952" lon="3.82233">
        <ele>140.4</ele>
        <time>2016-06-10T11:30:03Z</time>
      </trkpt>
      <trkpt lat="43.64945" lon="3.82242">
        <ele>140.4</ele>
        <time>2016-06-10T11:30:06Z</time>
      </trkpt>
      <trkpt lat="43.64941" lon="3.82254">
        <ele>140.3</ele>
        <time>2016-06-10T11:30:10Z</time>
      </trkpt>
      <trkpt lat="43.64942" lon="3.82266">
        <ele>140.1</ele>
        <time>2016-06-10T11:30:15Z</time>
      </trkpt>
      <trkpt lat="43.64939" lon="3.82277">
        <ele>140.1</ele>
        <time>2016-06-10T11:30:19Z</time>
      </trkpt>
      <trkpt lat="43.64935" lon="3.82285">
        <ele>140.1</ele>
        <time>2016-06-10T11:30:22Z</time>
      </trkpt>
      <trkpt lat="43.64929" lon="3.82296">
        <ele>140.1</ele>
        <time>2016-06-10T11:30:26Z</time>
      </trkpt>
      <trkpt lat="43.64925" lon="3.82304">
        <ele>140.2</ele>
        <time>2016-06-10T11:30:29Z</time>
      </trkpt>
      <trkpt lat="43.64922" lon="3.82316">
        <ele>140.4</ele>
        <time>2016-06-10T11:30:33Z</time>
      </trkpt>
      <trkpt lat="43.64923" lon="3.82329">
        <ele>140.4</ele>
        <time>2016-06-10T11:30:38Z</time>
      </trkpt>
      <trkpt lat="43.64923" lon="3.82339">
        <ele>140.4</ele>
        <time>2016-06-10T11:30:42Z</time>
      </trkpt>
      <trkpt lat="43.64921" lon="3.82349">
        <ele>140.5</ele>
        <time>2016-06-10T11:30:46Z</time>
      </trkpt>
      <trkpt lat="43.64918" lon="3.82359">
        <ele>141.2</ele>
        <time>2016-06-10T11:30:51Z</time>
      </trkpt>
      <trkpt lat="43.64916" lon="3.8237">
        <ele>142</ele>
        <time>2016-06-10T11:30:56Z</time>
      </trkpt>
      <trkpt lat="43.64919" lon="3.82372">
        <ele>143.2</ele>
        <time>2016-06-10T11:31:03Z</time>
      </trkpt>
      <trkpt lat="43.64921" lon="3.82378">
        <ele>144.5</ele>
        <time>2016-06-10T11:31:10Z</time>
      </trkpt>
      <trkpt lat="43.64923" lon="3.82384">
        <ele>145.6</ele>
        <time>2016-06-10T11:31:17Z</time>
      </trkpt>
      <trkpt lat="43.64921" lon="3.82385">
        <ele>146.1</ele>
        <time>2016-06-10T11:31:24Z</time>
      </trkpt>
      <trkpt lat="43.64922" lon="3.82392">
        <ele>146.4</ele>
        <time>2016-06-10T11:31:31Z</time>
      </trkpt>
      <trkpt lat="43.64927" lon="3.82402">
        <ele>147</ele>
        <time>2016-06-10T11:31:36Z</time>
      </trkpt>
      <trkpt lat="43.64931" lon="3.82411">
        <ele>147.5</ele>
        <time>2016-06-10T11:31:40Z</time>
      </trkpt>
      <trkpt lat="43.64935" lon="3.8242">
        <ele>148.3</ele>
        <time>2016-06-10T11:31:44Z</time>
      </trkpt>
      <trkpt lat="43.64938" lon="3.82429">
        <ele>149.1</ele>
        <time>2016-06-10T11:31:48Z</time>
      </trkpt>
      <trkpt lat="43.6494" lon="3.82439">
        <ele>150.2</ele>
        <time>2016-06-10T11:31:52Z</time>
      </trkpt>
      <trkpt lat="43.6494" lon="3.82444">
        <ele>152.2</ele>
        <time>2016-06-10T11:31:59Z</time>
      </trkpt>
      <trkpt lat="43.64934" lon="3.82452">
        <ele>154.8</ele>
        <time>2016-06-10T11:32:13Z</time>
      </trkpt>
      <trkpt lat="43.64928" lon="3.82457">
        <ele>155.7</ele>
        <time>2016-06-10T11:32:19Z</time>
      </trkpt>
      <trkpt lat="43.64921" lon="3.82463">
        <ele>156.4</ele>
        <time>2016-06-10T11:32:25Z</time>
      </trkpt>
      <trkpt lat="43.64914" lon="3.82462">
        <ele>156.6</ele>
        <time>2016-06-10T11:32:28Z</time>
      </trkpt>
      <trkpt lat="43.64906" lon="3.82462">
        <ele>156.8</ele>
        <time>2016-06-10T11:32:31Z</time>
      </trkpt>
      <trkpt lat="43.64897" lon="3.82462">
        <ele>156.9</ele>
        <time>2016-06-10T11:32:34Z</time>
      </trkpt>
      <trkpt lat="43.64888" lon="3.82463">
        <ele>157</ele>
        <time>2016-06-10T11:32:37Z</time>
      </trkpt>
      <trkpt lat="43.64877" lon="3.82463">
        <ele>158.2</ele>
        <time>2016-06-10T11:32:40Z</time>
      </trkpt>
      <trkpt lat="43.64867" lon="3.82465">
        <ele>159.7</ele>
        <time>2016-06-10T11:32:42Z</time>
      </trkpt>
      <trkpt lat="43.64857" lon="3.82463">
        <ele>159.5</ele>
        <time>2016-06-10T11:32:44Z</time>
      </trkpt>
      <trkpt lat="43.64847" lon="3.82462">
        <ele>158.8</ele>
        <time>2016-06-10T11:32:46Z</time>
      </trkpt>
      <trkpt lat="43.64837" lon="3.82458">
        <ele>158.4</ele>
        <time>2016-06-10T11:32:48Z</time>
      </trkpt>
      <trkpt lat="43.64827" lon="3.82454">
        <ele>157</ele>
        <time>2016-06-10T11:32:50Z</time>
      </trkpt>
      <trkpt lat="43.64819" lon="3.8245">
        <ele>156</ele>
        <time>2016-06-10T11:32:52Z</time>
      </trkpt>
      <trkpt lat="43.64809" lon="3.82443">
        <ele>155.5</ele>
        <time>2016-06-10T11:32:54Z</time>
      </trkpt>
      <trkpt lat="43.64799" lon="3.82438">
        <ele>155.2</ele>
        <time>2016-06-10T11:32:56Z</time>
      </trkpt>
      <trkpt lat="43.64789" lon="3.82432">
        <ele>154.5</ele>
        <time>2016-06-10T11:32:58Z</time>
      </trkpt>
      <trkpt lat="43.64777" lon="3.82428">
        <ele>154.5</ele>
        <time>2016-06-10T11:33:00Z</time>
      </trkpt>
      <trkpt lat="43.64764" lon="3.82431">
        <ele>154.7</ele>
        <time>2016-06-10T11:33:02Z</time>
      </trkpt>
      <trkpt lat="43.64749" lon="3.82434">
        <ele>154</ele>
        <time>2016-06-10T11:33:04Z</time>
      </trkpt>
      <trkpt lat="43.64736" lon="3.82433">
        <ele>154.1</ele>
        <time>2016-06-10T11:33:06Z</time>
      </trkpt>
      <trkpt lat="43.64723" lon="3.82431">
        <ele>153.6</ele>
        <time>2016-06-10T11:33:08Z</time>
      </trkpt>
      <trkpt lat="43.64711" lon="3.82426">
        <ele>154.1</ele>
        <time>2016-06-10T11:33:10Z</time>
      </trkpt>
      <trkpt lat="43.64705" lon="3.82422">
        <ele>154.1</ele>
        <time>2016-06-10T11:33:11Z</time>
      </trkpt>
      <trkpt lat="43.64692" lon="3.82414">
        <ele>153.6</ele>
        <time>2016-06-10T11:33:13Z</time>
      </trkpt>
      <trkpt lat="43.64685" lon="3.82409">
        <ele>153.9</ele>
        <time>2016-06-10T11:33:14Z</time>
      </trkpt>
      <trkpt lat="43.64673" lon="3.82401">
        <ele>154.9</ele>
        <time>2016-06-10T11:33:16Z</time>
      </trkpt>
      <trkpt lat="43.64663" lon="3.82393">
        <ele>155.4</ele>
        <time>2016-06-10T11:33:18Z</time>
      </trkpt>
      <trkpt lat="43.64652" lon="3.82384">
        <ele>155.8</ele>
        <time>2016-06-10T11:33:20Z</time>
      </trkpt>
      <trkpt lat="43.64641" lon="3.82375">
        <ele>154.4</ele>
        <time>2016-06-10T11:33:22Z</time>
      </trkpt>
      <trkpt lat="43.64629" lon="3.82367">
        <ele>154</ele>
        <time>2016-06-10T11:33:24Z</time>
      </trkpt>
      <trkpt lat="43.64619" lon="3.82359">
        <ele>155</ele>
        <time>2016-06-10T11:33:26Z</time>
      </trkpt>
      <trkpt lat="43.64608" lon="3.8235">
        <ele>154.4</ele>
        <time>2016-06-10T11:33:28Z</time>
      </trkpt>
      <trkpt lat="43.64596" lon="3.82341">
        <ele>153.5</ele>
        <time>2016-06-10T11:33:30Z</time>
      </trkpt>
      <trkpt lat="43.64586" lon="3.82332">
        <ele>152.7</ele>
        <time>2016-06-10T11:33:32Z</time>
      </trkpt>
      <trkpt lat="43.64575" lon="3.82323">
        <ele>152.2</ele>
        <time>2016-06-10T11:33:34Z</time>
      </trkpt>
      <trkpt lat="43.64565" lon="3.82315">
        <ele>152.6</ele>
        <time>2016-06-10T11:33:36Z</time>
      </trkpt>
      <trkpt lat="43.64554" lon="3.82312">
        <ele>153.1</ele>
        <time>2016-06-10T11:33:38Z</time>
      </trkpt>
      <trkpt lat="43.64542" lon="3.82309">
        <ele>153.4</ele>
        <time>2016-06-10T11:33:40Z</time>
      </trkpt>
      <trkpt lat="43.64531" lon="3.82308">
        <ele>153</ele>
        <time>2016-06-10T11:33:42Z</time>
      </trkpt>
      <trkpt lat="43.64519" lon="3.82305">
        <ele>152.7</ele>
        <time>2016-06-10T11:33:44Z</time>
      </trkpt>
      <trkpt lat="43.64508" lon="3.82302">
        <ele>153.7</ele>
        <time>2016-06-10T11:33:46Z</time>
      </trkpt>
      <trkpt lat="43.64497" lon="3.82294">
        <ele>153.3</ele>
        <time>2016-06-10T11:33:48Z</time>
      </trkpt>
      <trkpt lat="43.64485" lon="3.8229">
        <ele>152.3</ele>
        <time>2016-06-10T11:33:50Z</time>
      </trkpt>
      <trkpt lat="43.64479" lon="3.82297">
        <ele>151.8</ele>
        <time>2016-06-10T11:33:52Z</time>
      </trkpt>
      <trkpt lat="43.6447" lon="3.82295">
        <ele>151.6</ele>
        <time>2016-06-10T11:33:55Z</time>
      </trkpt>
      <trkpt lat="43.64465" lon="3.82283">
        <ele>151.5</ele>
        <time>2016-06-10T11:33:59Z</time>
      </trkpt>
      <trkpt lat="43.64459" lon="3.82277">
        <ele>151.5</ele>
        <time>2016-06-10T11:34:01Z</time>
      </trkpt>
      <trkpt lat="43.64451" lon="3.82272">
        <ele>151.4</ele>
        <time>2016-06-10T11:34:04Z</time>
      </trkpt>
      <trkpt lat="43.64443" lon="3.82263">
        <ele>151.3</ele>
        <time>2016-06-10T11:34:07Z</time>
      </trkpt>
      <trkpt lat="43.64437" lon="3.82257">
        <ele>151.4</ele>
        <time>2016-06-10T11:34:09Z</time>
      </trkpt>
      <trkpt lat="43.6443" lon="3.82248">
        <ele>151.5</ele>
        <time>2016-06-10T11:34:12Z</time>
      </trkpt>
      <trkpt lat="43.64423" lon="3.82238">
        <ele>153.2</ele>
        <time>2016-06-10T11:34:14Z</time>
      </trkpt>
      <trkpt lat="43.64416" lon="3.8224">
        <ele>152.5</ele>
        <time>2016-06-10T11:34:16Z</time>
      </trkpt>
      <trkpt lat="43.6441" lon="3.82246">
        <ele>152.3</ele>
        <time>2016-06-10T11:34:18Z</time>
      </trkpt>
      <trkpt lat="43.64399" lon="3.82254">
        <ele>151.8</ele>
        <time>2016-06-10T11:34:21Z</time>
      </trkpt>
      <trkpt lat="43.64391" lon="3.82258">
        <ele>152</ele>
        <time>2016-06-10T11:34:23Z</time>
      </trkpt>
      <trkpt lat="43.6438" lon="3.82261">
        <ele>152.1</ele>
        <time>2016-06-10T11:34:26Z</time>
      </trkpt>
      <trkpt lat="43.64372" lon="3.82265">
        <ele>152.2</ele>
        <time>2016-06-10T11:34:29Z</time>
      </trkpt>
      <trkpt lat="43.64367" lon="3.82273">
        <ele>152.1</ele>
        <time>2016-06-10T11:34:34Z</time>
      </trkpt>
      <trkpt lat="43.64359" lon="3.82273">
        <ele>152</ele>
        <time>2016-06-10T11:34:37Z</time>
      </trkpt>
      <trkpt lat="43.6435" lon="3.8228">
        <ele>151.8</ele>
        <time>2016-06-10T11:34:41Z</time>
      </trkpt>
      <trkpt lat="43.64342" lon="3.82289">
        <ele>151.8</ele>
        <time>2016-06-10T11:34:44Z</time>
      </trkpt>
      <trkpt lat="43.64336" lon="3.82294">
        <ele>151.8</ele>
        <time>2016-06-10T11:34:46Z</time>
      </trkpt>
      <trkpt lat="43.64328" lon="3.82297">
        <ele>151.7</ele>
        <time>2016-06-10T11:34:48Z</time>
      </trkpt>
      <trkpt lat="43.6432" lon="3.82299">
        <ele>150.9</ele>
        <time>2016-06-10T11:34:50Z</time>
      </trkpt>
      <trkpt lat="43.64312" lon="3.82301">
        <ele>150.3</ele>
        <time>2016-06-10T11:34:52Z</time>
      </trkpt>
      <trkpt lat="43.64302" lon="3.82301">
        <ele>150.3</ele>
        <time>2016-06-10T11:34:55Z</time>
      </trkpt>
      <trkpt lat="43.64294" lon="3.82308">
        <ele>150.4</ele>
        <time>2016-06-10T11:34:59Z</time>
      </trkpt>
      <trkpt lat="43.64287" lon="3.82313">
        <ele>151.3</ele>
        <time>2016-06-10T11:35:01Z</time>
      </trkpt>
      <trkpt lat="43.64278" lon="3.82317">
        <ele>151.3</ele>
        <time>2016-06-10T11:35:03Z</time>
      </trkpt>
      <trkpt lat="43.64271" lon="3.82315">
        <ele>151.1</ele>
        <time>2016-06-10T11:35:05Z</time>
      </trkpt>
      <trkpt lat="43.64264" lon="3.82309">
        <ele>151.2</ele>
        <time>2016-06-10T11:35:07Z</time>
      </trkpt>
      <trkpt lat="43.64254" lon="3.82309">
        <ele>151.4</ele>
        <time>2016-06-10T11:35:10Z</time>
      </trkpt>
      <trkpt lat="43.64246" lon="3.82311">
        <ele>151.7</ele>
        <time>2016-06-10T11:35:13Z</time>
      </trkpt>
      <trkpt lat="43.64238" lon="3.82309">
        <ele>152</ele>
        <time>2016-06-10T11:35:16Z</time>
      </trkpt>
      <trkpt lat="43.64228" lon="3.82308">
        <ele>152.1</ele>
        <time>2016-06-10T11:35:19Z</time>
      </trkpt>
      <trkpt lat="43.64221" lon="3.82311">
        <ele>152.3</ele>
        <time>2016-06-10T11:35:22Z</time>
      </trkpt>
      <trkpt lat="43.64213" lon="3.82314">
        <ele>152.5</ele>
        <time>2016-06-10T11:35:25Z</time>
      </trkpt>
      <trkpt lat="43.64206" lon="3.82317">
        <ele>152.7</ele>
        <time>2016-06-10T11:35:27Z</time>
      </trkpt>
      <trkpt lat="43.64198" lon="3.82323">
        <ele>152.9</ele>
        <time>2016-06-10T11:35:29Z</time>
      </trkpt>
      <trkpt lat="43.64192" lon="3.82332">
        <ele>153</ele>
        <time>2016-06-10T11:35:32Z</time>
      </trkpt>
      <trkpt lat="43.64188" lon="3.82345">
        <ele>153.1</ele>
        <time>2016-06-10T11:35:35Z</time>
      </trkpt>
      <trkpt lat="43.64185" lon="3.82356">
        <ele>153.4</ele>
        <time>2016-06-10T11:35:38Z</time>
      </trkpt>
      <trkpt lat="43.64182" lon="3.82367">
        <ele>153.6</ele>
        <time>2016-06-10T11:35:41Z</time>
      </trkpt>
      <trkpt lat="43.64176" lon="3.82373">
        <ele>153.5</ele>
        <time>2016-06-10T11:35:44Z</time>
      </trkpt>
      <trkpt lat="43.64169" lon="3.82385">
        <ele>153.5</ele>
        <time>2016-06-10T11:35:47Z</time>
      </trkpt>
      <trkpt lat="43.64166" lon="3.82396">
        <ele>153.4</ele>
        <time>2016-06-10T11:35:49Z</time>
      </trkpt>
      <trkpt lat="43.6416" lon="3.8241">
        <ele>153.1</ele>
        <time>2016-06-10T11:35:51Z</time>
      </trkpt>
      <trkpt lat="43.64153" lon="3.82423">
        <ele>153.5</ele>
        <time>2016-06-10T11:35:53Z</time>
      </trkpt>
      <trkpt lat="43.64152" lon="3.82436">
        <ele>153.7</ele>
        <time>2016-06-10T11:35:56Z</time>
      </trkpt>
      <trkpt lat="43.64148" lon="3.82448">
        <ele>153.8</ele>
        <time>2016-06-10T11:35:59Z</time>
      </trkpt>
      <trkpt lat="43.64147" lon="3.82462">
        <ele>154.4</ele>
        <time>2016-06-10T11:36:01Z</time>
      </trkpt>
      <trkpt lat="43.64138" lon="3.82473">
        <ele>153.9</ele>
        <time>2016-06-10T11:36:03Z</time>
      </trkpt>
      <trkpt lat="43.64136" lon="3.82489">
        <ele>153.7</ele>
        <time>2016-06-10T11:36:05Z</time>
      </trkpt>
      <trkpt lat="43.64133" lon="3.82498">
        <ele>153.7</ele>
        <time>2016-06-10T11:36:06Z</time>
      </trkpt>
      <trkpt lat="43.64125" lon="3.82514">
        <ele>154.1</ele>
        <time>2016-06-10T11:36:08Z</time>
      </trkpt>
      <trkpt lat="43.6412" lon="3.82528">
        <ele>153.6</ele>
        <time>2016-06-10T11:36:10Z</time>
      </trkpt>
      <trkpt lat="43.64114" lon="3.82544">
        <ele>152.8</ele>
        <time>2016-06-10T11:36:12Z</time>
      </trkpt>
      <trkpt lat="43.64112" lon="3.82555">
        <ele>152.4</ele>
        <time>2016-06-10T11:36:13Z</time>
      </trkpt>
      <trkpt lat="43.64108" lon="3.82573">
        <ele>151.5</ele>
        <time>2016-06-10T11:36:15Z</time>
      </trkpt>
      <trkpt lat="43.64104" lon="3.82582">
        <ele>151.9</ele>
        <time>2016-06-10T11:36:16Z</time>
      </trkpt>
      <trkpt lat="43.641" lon="3.82592">
        <ele>151.4</ele>
        <time>2016-06-10T11:36:17Z</time>
      </trkpt>
      <trkpt lat="43.64095" lon="3.82602">
        <ele>150.5</ele>
        <time>2016-06-10T11:36:18Z</time>
      </trkpt>
      <trkpt lat="43.64092" lon="3.82611">
        <ele>149.8</ele>
        <time>2016-06-10T11:36:19Z</time>
      </trkpt>
      <trkpt lat="43.64088" lon="3.82622">
        <ele>148.8</ele>
        <time>2016-06-10T11:36:20Z</time>
      </trkpt>
      <trkpt lat="43.64086" lon="3.82643">
        <ele>146.8</ele>
        <time>2016-06-10T11:36:22Z</time>
      </trkpt>
      <trkpt lat="43.64081" lon="3.82653">
        <ele>146</ele>
        <time>2016-06-10T11:36:23Z</time>
      </trkpt>
      <trkpt lat="43.64077" lon="3.82664">
        <ele>145.7</ele>
        <time>2016-06-10T11:36:24Z</time>
      </trkpt>
      <trkpt lat="43.64072" lon="3.82675">
        <ele>145.8</ele>
        <time>2016-06-10T11:36:25Z</time>
      </trkpt>
      <trkpt lat="43.64067" lon="3.82684">
        <ele>145.4</ele>
        <time>2016-06-10T11:36:26Z</time>
      </trkpt>
      <trkpt lat="43.64065" lon="3.82695">
        <ele>144.1</ele>
        <time>2016-06-10T11:36:27Z</time>
      </trkpt>
      <trkpt lat="43.64062" lon="3.82706">
        <ele>143</ele>
        <time>2016-06-10T11:36:28Z</time>
      </trkpt>
      <trkpt lat="43.64056" lon="3.82717">
        <ele>142.4</ele>
        <time>2016-06-10T11:36:29Z</time>
      </trkpt>
      <trkpt lat="43.6405" lon="3.82727">
        <ele>142.2</ele>
        <time>2016-06-10T11:36:30Z</time>
      </trkpt>
      <trkpt lat="43.64043" lon="3.82737">
        <ele>141.7</ele>
        <time>2016-06-10T11:36:31Z</time>
      </trkpt>
      <trkpt lat="43.64038" lon="3.82745">
        <ele>141.6</ele>
        <time>2016-06-10T11:36:32Z</time>
      </trkpt>
      <trkpt lat="43.64034" lon="3.82755">
        <ele>140.9</ele>
        <time>2016-06-10T11:36:33Z</time>
      </trkpt>
      <trkpt lat="43.64028" lon="3.82764">
        <ele>140.5</ele>
        <time>2016-06-10T11:36:34Z</time>
      </trkpt>
      <trkpt lat="43.64023" lon="3.82771">
        <ele>139.4</ele>
        <time>2016-06-10T11:36:35Z</time>
      </trkpt>
      <trkpt lat="43.64018" lon="3.82787">
        <ele>137.7</ele>
        <time>2016-06-10T11:36:37Z</time>
      </trkpt>
      <trkpt lat="43.64006" lon="3.82794">
        <ele>136.1</ele>
        <time>2016-06-10T11:36:39Z</time>
      </trkpt>
      <trkpt lat="43.63996" lon="3.82796">
        <ele>134.2</ele>
        <time>2016-06-10T11:36:41Z</time>
      </trkpt>
      <trkpt lat="43.63982" lon="3.82799">
        <ele>135.1</ele>
        <time>2016-06-10T11:36:43Z</time>
      </trkpt>
      <trkpt lat="43.63974" lon="3.82802">
        <ele>135.9</ele>
        <time>2016-06-10T11:36:44Z</time>
      </trkpt>
      <trkpt lat="43.63968" lon="3.82808">
        <ele>136.9</ele>
        <time>2016-06-10T11:36:45Z</time>
      </trkpt>
      <trkpt lat="43.63958" lon="3.82819">
        <ele>136.3</ele>
        <time>2016-06-10T11:36:47Z</time>
      </trkpt>
      <trkpt lat="43.6395" lon="3.82825">
        <ele>135.4</ele>
        <time>2016-06-10T11:36:49Z</time>
      </trkpt>
      <trkpt lat="43.63941" lon="3.82827">
        <ele>135.5</ele>
        <time>2016-06-10T11:36:52Z</time>
      </trkpt>
      <trkpt lat="43.63933" lon="3.82832">
        <ele>135.5</ele>
        <time>2016-06-10T11:36:55Z</time>
      </trkpt>
      <trkpt lat="43.63926" lon="3.82828">
        <ele>134.7</ele>
        <time>2016-06-10T11:36:57Z</time>
      </trkpt>
      <trkpt lat="43.63919" lon="3.82823">
        <ele>134.6</ele>
        <time>2016-06-10T11:36:59Z</time>
      </trkpt>
      <trkpt lat="43.63912" lon="3.82818">
        <ele>134.3</ele>
        <time>2016-06-10T11:37:02Z</time>
      </trkpt>
      <trkpt lat="43.63905" lon="3.82814">
        <ele>134.2</ele>
        <time>2016-06-10T11:37:04Z</time>
      </trkpt>
      <trkpt lat="43.63898" lon="3.82811">
        <ele>134.1</ele>
        <time>2016-06-10T11:37:06Z</time>
      </trkpt>
      <trkpt lat="43.63892" lon="3.82803">
        <ele>134.3</ele>
        <time>2016-06-10T11:37:09Z</time>
      </trkpt>
      <trkpt lat="43.63887" lon="3.82792">
        <ele>135.6</ele>
        <time>2016-06-10T11:37:11Z</time>
      </trkpt>
      <trkpt lat="43.63881" lon="3.82785">
        <ele>137.2</ele>
        <time>2016-06-10T11:37:13Z</time>
      </trkpt>
      <trkpt lat="43.63872" lon="3.8279">
        <ele>136</ele>
        <time>2016-06-10T11:37:16Z</time>
      </trkpt>
      <trkpt lat="43.63864" lon="3.82796">
        <ele>134.3</ele>
        <time>2016-06-10T11:37:18Z</time>
      </trkpt>
      <trkpt lat="43.63855" lon="3.82802">
        <ele>133.4</ele>
        <time>2016-06-10T11:37:20Z</time>
      </trkpt>
      <trkpt lat="43.63845" lon="3.82806">
        <ele>132.6</ele>
        <time>2016-06-10T11:37:22Z</time>
      </trkpt>
      <trkpt lat="43.63837" lon="3.82805">
        <ele>131.7</ele>
        <time>2016-06-10T11:37:24Z</time>
      </trkpt>
      <trkpt lat="43.63829" lon="3.82806">
        <ele>130.4</ele>
        <time>2016-06-10T11:37:26Z</time>
      </trkpt>
      <trkpt lat="43.63818" lon="3.82808">
        <ele>128.8</ele>
        <time>2016-06-10T11:37:28Z</time>
      </trkpt>
      <trkpt lat="43.63808" lon="3.82812">
        <ele>126</ele>
        <time>2016-06-10T11:37:30Z</time>
      </trkpt>
      <trkpt lat="43.63797" lon="3.82816">
        <ele>123.9</ele>
        <time>2016-06-10T11:37:32Z</time>
      </trkpt>
      <trkpt lat="43.63786" lon="3.82819">
        <ele>124</ele>
        <time>2016-06-10T11:37:34Z</time>
      </trkpt>
      <trkpt lat="43.6378" lon="3.82826">
        <ele>124.8</ele>
        <time>2016-06-10T11:37:36Z</time>
      </trkpt>
      <trkpt lat="43.63781" lon="3.82841">
        <ele>127.4</ele>
        <time>2016-06-10T11:37:39Z</time>
      </trkpt>
      <trkpt lat="43.63778" lon="3.82856">
        <ele>127.4</ele>
        <time>2016-06-10T11:37:41Z</time>
      </trkpt>
      <trkpt lat="43.6377" lon="3.82849">
        <ele>127.5</ele>
        <time>2016-06-10T11:37:45Z</time>
      </trkpt>
      <trkpt lat="43.63764" lon="3.82846">
        <ele>127.8</ele>
        <time>2016-06-10T11:37:52Z</time>
      </trkpt>
    </trkseg>
  </trk>
</gpx>